Time,TemperatureF,DewpointF,PressureIn,WindDirection,WindDirectionDegrees,WindSpeedMPH,WindSpeedGustMPH,Humidity,HourlyPrecipIn,Conditions,Clouds,dailyrainin,SoftwareType,DateUTC
2013-09-21 00:00:00,66.1,64.9,30.01,WSW,242,1.0,1.0,96,0.00,,---,0.21,VWS V14.01,2013-09-21 04:00:00,
2013-09-21 00:01:00,66.1,64.9,30.01,WSW,244,1.0,1.0,96,0.00,,---,0.00,VWS V14.01,2013-09-21 04:01:00,
2013-09-21 00:02:00,66.1,64.6,30.01,WSW,238,1.0,2.0,95,0.00,,---,0.00,VWS V14.01,2013-09-21 04:02:00,
2013-09-21 00:03:00,66.0,64.5,30.01,WSW,238,0.0,1.0,95,0.00,,---,0.00,VWS V14.01,2013-09-21 04:03:00,
2013-09-21 00:04:00,66.0,64.5,30.01,WSW,238,0.0,0.0,95,0.00,,---,0.00,VWS V14.01,2013-09-21 04:04:00,
2013-09-21 00:05:00,66.0,64.5,30.01,WSW,238,1.0,1.0,95,0.01,,---,0.01,VWS V14.01,2013-09-21 04:05:00,
2013-09-21 00:06:00,66.0,64.5,30.01,WSW,238,0.0,1.0,95,0.01,,---,0.01,VWS V14.01,2013-09-21 04:06:00,
2013-09-21 00:07:00,66.0,64.5,30.01,SSW,202,1.0,2.0,95,0.01,,---,0.01,VWS V14.01,2013-09-21 04:07:00,
2013-09-21 00:08:00,66.0,64.5,30.01,SSW,202,1.0,1.0,95,0.01,,---,0.01,VWS V14.01,2013-09-21 04:08:00,
2013-09-21 00:09:00,66.0,64.5,30.01,SSW,202,1.0,1.0,95,0.01,,---,0.01,VWS V14.01,2013-09-21 04:09:00,
2013-09-21 00:10:00,66.0,64.5,30.01,SE,137,1.0,2.0,95,0.01,,---,0.01,VWS V14.01,2013-09-21 04:10:00,
2013-09-21 00:11:00,66.0,64.5,30.01,SE,142,1.0,1.0,95,0.01,,---,0.01,VWS V14.01,2013-09-21 04:11:00,
2013-09-21 00:12:00,66.0,64.5,30.01,South,173,2.0,3.0,95,0.02,,---,0.02,VWS V14.01,2013-09-21 04:12:00,
2013-09-21 00:13:00,66.0,64.5,30.01,SE,142,2.0,4.0,95,0.02,,---,0.02,VWS V14.01,2013-09-21 04:13:00,
2013-09-21 00:14:00,66.0,64.5,30.01,SE,137,3.0,3.0,95,0.02,,---,0.02,VWS V14.01,2013-09-21 04:14:00,
2013-09-21 00:15:00,65.9,64.4,30.01,WSW,242,1.0,3.0,95,0.02,,---,0.02,VWS V14.01,2013-09-21 04:15:00,
2013-09-21 00:16:00,65.9,64.4,30.00,South,171,1.0,1.0,95,0.03,,---,0.03,VWS V14.01,2013-09-21 04:16:00,
2013-09-21 00:17:00,65.9,64.4,30.00,SSE,165,1.0,1.0,95,0.03,,---,0.03,VWS V14.01,2013-09-21 04:17:00,
2013-09-21 00:18:00,65.9,64.4,30.00,SE,142,1.0,2.0,95,0.03,,---,0.03,VWS V14.01,2013-09-21 04:18:00,
2013-09-21 00:19:00,65.9,64.4,30.00,SSW,207,1.0,1.0,95,0.03,,---,0.03,VWS V14.01,2013-09-21 04:19:00,
2013-09-21 00:20:00,65.9,64.4,30.00,ESE,117,1.0,2.0,95,0.03,,---,0.03,VWS V14.01,2013-09-21 04:20:00,
2013-09-21 00:21:00,65.8,64.3,30.00,ESE,106,2.0,2.0,95,0.03,,---,0.03,VWS V14.01,2013-09-21 04:21:00,
2013-09-21 00:22:00,65.8,64.3,30.00,ESE,105,1.0,2.0,95,0.03,,---,0.03,VWS V14.01,2013-09-21 04:22:00,
2013-09-21 00:23:00,65.8,64.3,30.00,ESE,105,0.0,1.0,95,0.03,,---,0.03,VWS V14.01,2013-09-21 04:23:00,
2013-09-21 00:24:00,65.8,64.3,30.00,ESE,105,0.0,0.0,95,0.03,,---,0.03,VWS V14.01,2013-09-21 04:24:00,
2013-09-21 00:25:00,65.8,64.3,30.00,ESE,105,1.0,1.0,95,0.03,,---,0.03,VWS V14.01,2013-09-21 04:25:00,
2013-09-21 00:26:00,65.8,64.3,30.00,ESE,105,0.0,1.0,95,0.03,,---,0.03,VWS V14.01,2013-09-21 04:26:00,
2013-09-21 00:27:00,65.8,64.3,30.00,ESE,105,0.0,1.0,95,0.03,,---,0.03,VWS V14.01,2013-09-21 04:27:00,
2013-09-21 00:28:00,65.8,64.3,30.00,SSE,154,1.0,1.0,95,0.03,,---,0.03,VWS V14.01,2013-09-21 04:28:00,
2013-09-21 00:29:00,65.8,64.3,30.00,SSE,153,1.0,1.0,95,0.03,,---,0.03,VWS V14.01,2013-09-21 04:29:00,
2013-09-21 00:30:00,65.8,64.6,30.00,SSE,154,0.0,1.0,96,0.03,,---,0.03,VWS V14.01,2013-09-21 04:30:00,
2013-09-21 00:31:00,65.8,64.6,30.00,ESE,115,1.0,1.0,96,0.03,,---,0.03,VWS V14.01,2013-09-21 04:31:00,
2013-09-21 00:32:00,65.8,64.6,30.00,East,90,1.0,2.0,96,0.03,,---,0.03,VWS V14.01,2013-09-21 04:32:00,
2013-09-21 00:33:00,65.8,64.6,30.00,East,95,1.0,2.0,96,0.03,,---,0.03,VWS V14.01,2013-09-21 04:33:00,
2013-09-21 00:34:00,65.8,64.6,30.00,East,94,2.0,2.0,96,0.03,,---,0.03,VWS V14.01,2013-09-21 04:34:00,
2013-09-21 00:35:00,65.8,64.6,30.00,East,88,2.0,3.0,96,0.03,,---,0.03,VWS V14.01,2013-09-21 04:35:00,
2013-09-21 00:36:00,65.8,64.3,30.00,East,101,2.0,2.0,95,0.03,,---,0.03,VWS V14.01,2013-09-21 04:36:00,
2013-09-21 00:37:00,65.8,64.3,30.00,East,96,2.0,2.0,95,0.03,,---,0.03,VWS V14.01,2013-09-21 04:37:00,
2013-09-21 00:38:00,65.8,64.3,30.00,East,96,3.0,3.0,95,0.03,,---,0.03,VWS V14.01,2013-09-21 04:38:00,
2013-09-21 00:39:00,65.8,64.3,30.00,East,90,2.0,3.0,95,0.03,,---,0.03,VWS V14.01,2013-09-21 04:39:00,
2013-09-21 00:40:00,65.8,64.6,30.00,ESE,113,0.0,2.0,96,0.03,,---,0.03,VWS V14.01,2013-09-21 04:40:00,
2013-09-21 00:41:00,65.8,64.6,30.00,ESE,113,0.0,0.0,96,0.03,,---,0.03,VWS V14.01,2013-09-21 04:41:00,
2013-09-21 00:42:00,65.8,64.6,30.00,ESE,113,0.0,0.0,96,0.03,,---,0.03,VWS V14.01,2013-09-21 04:42:00,
2013-09-21 00:43:00,65.8,64.6,30.00,ESE,113,0.0,0.0,96,0.03,,---,0.03,VWS V14.01,2013-09-21 04:43:00,
2013-09-21 00:44:00,65.8,64.3,30.00,ESE,113,0.0,1.0,95,0.03,,---,0.03,VWS V14.01,2013-09-21 04:44:00,
2013-09-21 00:45:00,65.8,64.3,30.00,ESE,113,0.0,0.0,95,0.03,,---,0.03,VWS V14.01,2013-09-21 04:45:00,
2013-09-21 00:46:00,65.7,64.2,30.00,ESE,113,0.0,0.0,95,0.03,,---,0.03,VWS V14.01,2013-09-21 04:46:00,
2013-09-21 00:47:00,65.7,64.2,30.00,ESE,113,0.0,0.0,95,0.03,,---,0.03,VWS V14.01,2013-09-21 04:47:00,
2013-09-21 00:48:00,65.7,64.2,30.00,ESE,113,0.0,0.0,95,0.03,,---,0.03,VWS V14.01,2013-09-21 04:48:00,
2013-09-21 00:49:00,65.7,64.2,30.00,ESE,113,1.0,1.0,95,0.03,,---,0.03,VWS V14.01,2013-09-21 04:49:00,
2013-09-21 00:50:00,65.7,64.2,30.00,ESE,113,0.0,1.0,95,0.03,,---,0.03,VWS V14.01,2013-09-21 04:50:00,
2013-09-21 00:51:00,65.7,64.2,30.00,ESE,113,0.0,0.0,95,0.03,,---,0.03,VWS V14.01,2013-09-21 04:51:00,
2013-09-21 00:52:00,65.7,64.2,30.00,ESE,113,0.0,0.0,95,0.03,,---,0.03,VWS V14.01,2013-09-21 04:52:00,
2013-09-21 00:53:00,65.7,64.2,30.00,ESE,113,0.0,0.0,95,0.03,,---,0.03,VWS V14.01,2013-09-21 04:53:00,
2013-09-21 00:54:00,65.7,64.5,30.00,ESE,113,0.0,0.0,96,0.03,,---,0.03,VWS V14.01,2013-09-21 04:54:00,
2013-09-21 00:55:00,65.7,64.5,30.00,ESE,121,0.0,0.0,96,0.03,,---,0.03,VWS V14.01,2013-09-21 04:55:00,
2013-09-21 00:56:00,65.7,64.5,30.00,SE,142,1.0,1.0,96,0.03,,---,0.03,VWS V14.01,2013-09-21 04:56:00,
2013-09-21 00:57:00,65.7,64.5,30.00,SE,142,0.0,1.0,96,0.03,,---,0.03,VWS V14.01,2013-09-21 04:57:00,
2013-09-21 00:58:00,65.7,64.5,30.00,SE,141,0.0,0.0,96,0.03,,---,0.03,VWS V14.01,2013-09-21 04:58:00,
2013-09-21 00:59:00,65.7,64.5,30.00,SE,142,1.0,1.0,96,0.03,,---,0.03,VWS V14.01,2013-09-21 04:59:00,
2013-09-21 01:00:00,65.8,64.6,30.00,SE,141,0.0,1.0,96,0.03,,---,0.03,VWS V14.01,2013-09-21 05:00:00,
2013-09-21 01:01:00,65.7,64.5,30.00,SE,142,0.0,0.0,96,0.03,,---,0.03,VWS V14.01,2013-09-21 05:01:00,
2013-09-21 01:02:00,65.8,64.6,30.00,SE,142,0.0,0.0,96,0.03,,---,0.03,VWS V14.01,2013-09-21 05:02:00,
2013-09-21 01:03:00,65.7,64.5,30.00,SE,142,1.0,1.0,96,0.03,,---,0.03,VWS V14.01,2013-09-21 05:03:00,
2013-09-21 01:04:00,65.8,64.6,30.00,SE,142,0.0,1.0,96,0.03,,---,0.03,VWS V14.01,2013-09-21 05:04:00,
2013-09-21 01:05:00,65.7,64.5,30.00,SE,142,0.0,1.0,96,0.03,,---,0.03,VWS V14.01,2013-09-21 05:05:00,
2013-09-21 01:06:00,65.7,64.5,30.00,SE,142,0.0,1.0,96,0.02,,---,0.03,VWS V14.01,2013-09-21 05:06:00,
2013-09-21 01:07:00,65.7,64.5,30.00,SE,142,0.0,1.0,96,0.02,,---,0.03,VWS V14.01,2013-09-21 05:07:00,
2013-09-21 01:08:00,65.7,64.5,30.01,SE,130,1.0,1.0,96,0.02,,---,0.03,VWS V14.01,2013-09-21 05:08:00,
2013-09-21 01:09:00,65.7,64.5,30.01,SE,130,0.0,1.0,96,0.02,,---,0.03,VWS V14.01,2013-09-21 05:09:00,
2013-09-21 01:10:00,65.7,64.5,30.01,SE,130,0.0,0.0,96,0.02,,---,0.03,VWS V14.01,2013-09-21 05:10:00,
2013-09-21 01:11:00,65.7,64.5,30.01,SE,130,0.0,0.0,96,0.02,,---,0.03,VWS V14.01,2013-09-21 05:11:00,
2013-09-21 01:12:00,65.7,64.5,30.01,SE,130,0.0,1.0,96,0.02,,---,0.03,VWS V14.01,2013-09-21 05:12:00,
2013-09-21 01:13:00,65.7,64.5,30.01,SE,130,1.0,1.0,96,0.01,,---,0.03,VWS V14.01,2013-09-21 05:13:00,
2013-09-21 01:14:00,65.7,64.5,30.01,SE,131,0.0,1.0,96,0.01,,---,0.03,VWS V14.01,2013-09-21 05:14:00,
2013-09-21 01:15:00,65.7,64.5,30.01,SE,131,1.0,1.0,96,0.01,,---,0.03,VWS V14.01,2013-09-21 05:15:00,
2013-09-21 01:16:00,65.7,64.5,30.01,ESE,120,1.0,1.0,96,0.01,,---,0.03,VWS V14.01,2013-09-21 05:16:00,
2013-09-21 01:17:00,65.7,64.2,30.01,ESE,119,0.0,1.0,95,0.01,,---,0.03,VWS V14.01,2013-09-21 05:17:00,
2013-09-21 01:18:00,65.7,64.5,30.01,ESE,119,0.0,0.0,96,0.00,,---,0.03,VWS V14.01,2013-09-21 05:18:00,
2013-09-21 01:19:00,65.7,64.5,30.01,ESE,120,0.0,0.0,96,0.00,,---,0.03,VWS V14.01,2013-09-21 05:19:00,
2013-09-21 01:20:00,65.7,64.5,30.01,ESE,120,0.0,0.0,96,0.00,,---,0.03,VWS V14.01,2013-09-21 05:20:00,
2013-09-21 01:21:00,65.7,64.5,30.01,ESE,120,0.0,0.0,96,0.00,,---,0.03,VWS V14.01,2013-09-21 05:21:00,
2013-09-21 01:22:00,65.8,64.6,30.01,ESE,120,0.0,0.0,96,0.00,,---,0.03,VWS V14.01,2013-09-21 05:22:00,
2013-09-21 01:23:00,65.8,64.6,30.01,ESE,120,0.0,0.0,96,0.00,,---,0.03,VWS V14.01,2013-09-21 05:23:00,
2013-09-21 01:24:00,65.8,64.6,30.01,ESE,120,0.0,0.0,96,0.00,,---,0.03,VWS V14.01,2013-09-21 05:24:00,
2013-09-21 01:25:00,65.8,64.6,30.01,ESE,120,0.0,0.0,96,0.01,,---,0.04,VWS V14.01,2013-09-21 05:25:00,
2013-09-21 01:26:00,65.8,64.6,30.01,ESE,120,1.0,1.0,96,0.02,,---,0.05,VWS V14.01,2013-09-21 05:26:00,
2013-09-21 01:27:00,65.8,64.6,30.01,ESE,120,1.0,1.0,96,0.02,,---,0.05,VWS V14.01,2013-09-21 05:27:00,
2013-09-21 01:28:00,65.8,64.6,30.01,ESE,119,1.0,1.0,96,0.02,,---,0.05,VWS V14.01,2013-09-21 05:28:00,
2013-09-21 01:29:00,65.8,64.3,30.01,ESE,120,0.0,1.0,95,0.03,,---,0.06,VWS V14.01,2013-09-21 05:29:00,
2013-09-21 01:30:00,65.8,64.6,30.01,ESE,119,0.0,0.0,96,0.03,,---,0.06,VWS V14.01,2013-09-21 05:30:00,
2013-09-21 01:31:00,65.8,64.6,30.01,ESE,120,0.0,0.0,96,0.03,,---,0.06,VWS V14.01,2013-09-21 05:31:00,
2013-09-21 01:32:00,65.8,64.6,30.01,ESE,120,0.0,1.0,96,0.03,,---,0.06,VWS V14.01,2013-09-21 05:32:00,
2013-09-21 01:33:00,65.8,64.6,30.01,ESE,119,0.0,0.0,96,0.03,,---,0.06,VWS V14.01,2013-09-21 05:33:00,
2013-09-21 01:34:00,65.8,64.6,30.01,ESE,119,1.0,1.0,96,0.04,,---,0.07,VWS V14.01,2013-09-21 05:34:00,
2013-09-21 01:35:00,65.8,64.6,30.01,SE,137,2.0,2.0,96,0.04,,---,0.07,VWS V14.01,2013-09-21 05:35:00,
2013-09-21 01:36:00,65.8,64.6,30.01,SE,137,1.0,1.0,96,0.04,,---,0.07,VWS V14.01,2013-09-21 05:36:00,
2013-09-21 01:37:00,65.8,64.6,30.01,SSE,156,1.0,1.0,96,0.04,,---,0.07,VWS V14.01,2013-09-21 05:37:00,
2013-09-21 01:38:00,65.8,64.6,30.01,SSE,157,1.0,1.0,96,0.04,,---,0.07,VWS V14.01,2013-09-21 05:38:00,
2013-09-21 01:39:00,65.7,64.5,30.01,SSE,156,1.0,2.0,96,0.04,,---,0.07,VWS V14.01,2013-09-21 05:39:00,
2013-09-21 01:40:00,65.7,64.5,30.01,SE,142,2.0,2.0,96,0.04,,---,0.07,VWS V14.01,2013-09-21 05:40:00,
2013-09-21 01:41:00,65.7,64.5,30.01,SSE,150,1.0,1.0,96,0.04,,---,0.07,VWS V14.01,2013-09-21 05:41:00,
2013-09-21 01:42:00,65.7,64.5,30.01,SSE,150,1.0,1.0,96,0.04,,---,0.07,VWS V14.01,2013-09-21 05:42:00,
2013-09-21 01:43:00,65.7,64.5,30.01,SE,145,2.0,2.0,96,0.04,,---,0.07,VWS V14.01,2013-09-21 05:43:00,
2013-09-21 01:44:00,65.7,64.5,30.01,SSE,150,0.0,2.0,96,0.04,,---,0.07,VWS V14.01,2013-09-21 05:44:00,
2013-09-21 01:45:00,65.7,64.5,30.01,SSE,149,0.0,0.0,96,0.04,,---,0.07,VWS V14.01,2013-09-21 05:45:00,
2013-09-21 01:46:00,65.7,64.5,30.01,SSE,153,1.0,2.0,96,0.04,,---,0.07,VWS V14.01,2013-09-21 05:46:00,
2013-09-21 01:47:00,65.7,64.5,30.01,SSE,153,0.0,2.0,96,0.04,,---,0.07,VWS V14.01,2013-09-21 05:47:00,
2013-09-21 01:48:00,65.7,64.5,30.01,SSE,164,1.0,1.0,96,0.04,,---,0.07,VWS V14.01,2013-09-21 05:48:00,
2013-09-21 01:49:00,65.7,64.5,30.01,SSE,164,0.0,1.0,96,0.04,,---,0.07,VWS V14.01,2013-09-21 05:49:00,
2013-09-21 01:50:00,65.7,64.5,30.01,SSE,152,0.0,2.0,96,0.04,,---,0.07,VWS V14.01,2013-09-21 05:50:00,
2013-09-21 01:51:00,65.7,64.5,30.00,SSE,152,1.0,1.0,96,0.04,,---,0.07,VWS V14.01,2013-09-21 05:51:00,
2013-09-21 01:52:00,65.7,64.5,30.00,SSE,152,0.0,1.0,96,0.04,,---,0.07,VWS V14.01,2013-09-21 05:52:00,
2013-09-21 01:53:00,65.7,64.5,30.00,SE,139,1.0,2.0,96,0.04,,---,0.07,VWS V14.01,2013-09-21 05:53:00,
2013-09-21 01:54:00,65.7,64.5,30.00,SE,139,0.0,1.0,96,0.04,,---,0.07,VWS V14.01,2013-09-21 05:54:00,
2013-09-21 01:55:00,65.7,64.5,30.00,SE,128,1.0,1.0,96,0.04,,---,0.07,VWS V14.01,2013-09-21 05:55:00,
2013-09-21 01:56:00,65.7,64.5,30.00,SSW,203,0.0,0.0,96,0.04,,---,0.07,VWS V14.01,2013-09-21 05:56:00,
2013-09-21 01:57:00,65.7,64.5,30.00,SSW,203,0.0,0.0,96,0.04,,---,0.07,VWS V14.01,2013-09-21 05:57:00,
2013-09-21 01:58:00,65.7,64.5,30.00,SSW,203,0.0,0.0,96,0.04,,---,0.07,VWS V14.01,2013-09-21 05:58:00,
2013-09-21 01:59:00,65.7,64.5,30.00,SSE,157,3.0,3.0,96,0.04,,---,0.07,VWS V14.01,2013-09-21 05:59:00,
2013-09-21 02:00:00,65.7,64.5,30.00,SSE,159,2.0,2.0,96,0.04,,---,0.07,VWS V14.01,2013-09-21 06:00:00,
2013-09-21 02:01:00,65.7,64.5,30.00,SE,128,2.0,2.0,96,0.04,,---,0.07,VWS V14.01,2013-09-21 06:01:00,
2013-09-21 02:02:00,65.7,64.5,30.00,South,169,1.0,2.0,96,0.04,,---,0.07,VWS V14.01,2013-09-21 06:02:00,
2013-09-21 02:03:00,65.7,64.5,30.00,ESE,118,1.0,2.0,96,0.04,,---,0.07,VWS V14.01,2013-09-21 06:03:00,
2013-09-21 02:04:00,65.7,64.5,30.00,ESE,123,2.0,2.0,96,0.04,,---,0.07,VWS V14.01,2013-09-21 06:04:00,
2013-09-21 02:05:00,65.7,64.5,30.00,SSE,159,2.0,3.0,96,0.04,,---,0.07,VWS V14.01,2013-09-21 06:05:00,
2013-09-21 02:06:00,65.7,64.5,30.00,SE,128,1.0,1.0,96,0.04,,---,0.07,VWS V14.01,2013-09-21 06:06:00,
2013-09-21 02:07:00,65.7,64.5,30.00,SE,124,1.0,2.0,96,0.04,,---,0.07,VWS V14.01,2013-09-21 06:07:00,
2013-09-21 02:08:00,65.7,64.5,30.00,ENE,74,2.0,2.0,96,0.04,,---,0.07,VWS V14.01,2013-09-21 06:08:00,
2013-09-21 02:09:00,65.7,64.5,30.00,SSE,156,1.0,2.0,96,0.04,,---,0.07,VWS V14.01,2013-09-21 06:09:00,
2013-09-21 02:10:00,65.7,64.5,30.00,ESE,105,0.0,2.0,96,0.04,,---,0.07,VWS V14.01,2013-09-21 06:10:00,
2013-09-21 02:11:00,65.7,64.5,30.00,ESE,115,1.0,1.0,96,0.04,,---,0.07,VWS V14.01,2013-09-21 06:11:00,
2013-09-21 02:12:00,65.7,64.5,30.00,East,101,3.0,3.0,96,0.04,,---,0.07,VWS V14.01,2013-09-21 06:12:00,
2013-09-21 02:13:00,65.6,64.4,30.00,SE,139,3.0,3.0,96,0.04,,---,0.07,VWS V14.01,2013-09-21 06:13:00,
2013-09-21 02:14:00,65.6,64.4,30.00,SE,136,2.0,3.0,96,0.04,,---,0.07,VWS V14.01,2013-09-21 06:14:00,
2013-09-21 02:15:00,65.6,64.4,29.99,SSE,163,2.0,3.0,96,0.04,,---,0.07,VWS V14.01,2013-09-21 06:15:00,
2013-09-21 02:16:00,65.6,64.4,29.99,SSE,152,1.0,1.0,96,0.04,,---,0.07,VWS V14.01,2013-09-21 06:16:00,
2013-09-21 02:17:00,65.6,64.4,29.99,South,178,4.0,5.0,96,0.04,,---,0.07,VWS V14.01,2013-09-21 06:17:00,
2013-09-21 02:18:00,65.6,64.4,30.00,SSE,163,0.0,4.0,96,0.04,,---,0.07,VWS V14.01,2013-09-21 06:18:00,
2013-09-21 02:19:00,65.6,64.4,30.00,SSE,161,0.0,2.0,96,0.04,,---,0.07,VWS V14.01,2013-09-21 06:19:00,
2013-09-21 02:20:00,65.6,64.4,29.99,SE,144,1.0,2.0,96,0.04,,---,0.07,VWS V14.01,2013-09-21 06:20:00,
2013-09-21 02:21:00,65.6,64.4,29.99,SE,134,2.0,2.0,96,0.04,,---,0.07,VWS V14.01,2013-09-21 06:21:00,
2013-09-21 02:22:00,65.5,64.3,29.99,South,176,2.0,5.0,96,0.04,,---,0.07,VWS V14.01,2013-09-21 06:22:00,
2013-09-21 02:23:00,65.5,64.3,29.99,SE,142,1.0,2.0,96,0.04,,---,0.07,VWS V14.01,2013-09-21 06:23:00,
2013-09-21 02:24:00,65.5,64.3,29.99,SE,132,1.0,2.0,96,0.04,,---,0.07,VWS V14.01,2013-09-21 06:24:00,
2013-09-21 02:25:00,65.5,64.3,29.99,South,186,2.0,2.0,96,0.04,,---,0.07,VWS V14.01,2013-09-21 06:25:00,
2013-09-21 02:26:00,65.5,64.3,29.99,SSE,149,1.0,1.0,96,0.02,,---,0.07,VWS V14.01,2013-09-21 06:26:00,
2013-09-21 02:27:00,65.5,64.3,29.99,SSE,160,2.0,2.0,96,0.02,,---,0.07,VWS V14.01,2013-09-21 06:27:00,
2013-09-21 02:28:00,65.5,64.3,29.99,South,190,1.0,2.0,96,0.02,,---,0.07,VWS V14.01,2013-09-21 06:28:00,
2013-09-21 02:29:00,65.5,64.3,29.99,SW,236,1.0,1.0,96,0.02,,---,0.07,VWS V14.01,2013-09-21 06:29:00,
2013-09-21 02:31:00,65.5,64.3,30.00,South,173,0.0,1.0,96,0.01,,---,0.07,VWS V14.01,2013-09-21 06:31:00,
2013-09-21 02:32:00,65.5,64.3,30.00,SE,142,1.0,1.0,96,0.01,,---,0.07,VWS V14.01,2013-09-21 06:32:00,
2013-09-21 02:33:00,65.6,64.4,29.99,SE,140,1.0,1.0,96,0.01,,---,0.07,VWS V14.01,2013-09-21 06:33:00,
2013-09-21 02:34:00,65.6,64.4,29.99,SSW,198,2.0,2.0,96,0.01,,---,0.07,VWS V14.01,2013-09-21 06:34:00,
2013-09-21 02:35:00,65.5,64.3,29.99,ESE,106,1.0,3.0,96,0.00,,---,0.07,VWS V14.01,2013-09-21 06:35:00,
2013-09-21 02:36:00,65.5,64.3,29.99,SSE,153,1.0,2.0,96,0.00,,---,0.07,VWS V14.01,2013-09-21 06:36:00,
2013-09-21 02:37:00,65.5,64.3,29.99,SSE,153,0.0,2.0,96,0.00,,---,0.07,VWS V14.01,2013-09-21 06:37:00,
2013-09-21 02:38:00,65.5,64.3,29.99,SE,139,4.0,4.0,96,0.00,,---,0.07,VWS V14.01,2013-09-21 06:38:00,
2013-09-21 02:39:00,65.5,64.3,29.99,South,169,1.0,4.0,96,0.00,,---,0.07,VWS V14.01,2013-09-21 06:39:00,
2013-09-21 02:40:00,65.5,64.3,29.99,SE,146,2.0,3.0,96,0.00,,---,0.07,VWS V14.01,2013-09-21 06:40:00,
2013-09-21 02:41:00,65.5,64.3,29.99,SSE,150,0.0,0.0,96,0.00,,---,0.07,VWS V14.01,2013-09-21 06:41:00,
2013-09-21 02:42:00,65.5,64.3,29.99,SE,129,1.0,2.0,96,0.00,,---,0.07,VWS V14.01,2013-09-21 06:42:00,
2013-09-21 02:43:00,65.5,64.3,29.99,ESE,119,1.0,3.0,96,0.00,,---,0.07,VWS V14.01,2013-09-21 06:43:00,
2013-09-21 02:44:00,65.5,64.3,29.99,SE,128,1.0,3.0,96,0.00,,---,0.07,VWS V14.01,2013-09-21 06:44:00,
2013-09-21 02:45:00,65.5,64.3,29.99,SSE,166,3.0,3.0,96,0.00,,---,0.07,VWS V14.01,2013-09-21 06:45:00,
2013-09-21 02:46:00,65.5,64.3,29.99,ENE,74,0.0,1.0,96,0.00,,---,0.07,VWS V14.01,2013-09-21 06:46:00,
2013-09-21 02:47:00,65.5,64.0,29.99,ESE,113,2.0,2.0,95,0.00,,---,0.07,VWS V14.01,2013-09-21 06:47:00,
2013-09-21 02:48:00,65.5,64.3,29.99,ESE,113,1.0,2.0,96,0.00,,---,0.07,VWS V14.01,2013-09-21 06:48:00,
2013-09-21 02:49:00,65.5,64.3,29.99,SE,146,4.0,4.0,96,0.00,,---,0.07,VWS V14.01,2013-09-21 06:49:00,
2013-09-21 02:50:00,65.5,64.3,29.99,ESE,115,2.0,4.0,96,0.00,,---,0.07,VWS V14.01,2013-09-21 06:50:00,
2013-09-21 02:51:00,65.5,64.3,29.99,SE,132,2.0,2.0,96,0.00,,---,0.07,VWS V14.01,2013-09-21 06:51:00,
2013-09-21 02:52:00,65.5,64.3,29.99,ESE,111,2.0,3.0,96,0.00,,---,0.07,VWS V14.01,2013-09-21 06:52:00,
2013-09-21 02:53:00,65.5,64.3,29.99,ESE,109,3.0,3.0,96,0.00,,---,0.07,VWS V14.01,2013-09-21 06:53:00,
2013-09-21 02:54:00,65.5,64.3,29.99,ESE,107,1.0,3.0,96,0.00,,---,0.07,VWS V14.01,2013-09-21 06:54:00,
2013-09-21 02:55:00,65.5,64.3,29.99,ESE,107,1.0,1.0,96,0.00,,---,0.07,VWS V14.01,2013-09-21 06:55:00,
2013-09-21 02:56:00,65.5,64.3,29.99,SE,133,2.0,2.0,96,0.00,,---,0.07,VWS V14.01,2013-09-21 06:56:00,
2013-09-21 02:57:00,65.5,64.3,29.99,SE,124,0.0,2.0,96,0.00,,---,0.07,VWS V14.01,2013-09-21 06:57:00,
2013-09-21 02:58:00,65.5,64.3,29.99,ESE,123,0.0,1.0,96,0.00,,---,0.07,VWS V14.01,2013-09-21 06:58:00,
2013-09-21 02:59:00,65.5,64.3,29.99,SE,124,0.0,0.0,96,0.00,,---,0.07,VWS V14.01,2013-09-21 06:59:00,
2013-09-21 03:00:00,65.5,64.3,29.99,ESE,123,2.0,2.0,96,0.00,,---,0.07,VWS V14.01,2013-09-21 07:00:00,
2013-09-21 03:01:00,65.5,64.3,29.99,SSE,155,1.0,2.0,96,0.00,,---,0.07,VWS V14.01,2013-09-21 07:01:00,
2013-09-21 03:02:00,65.5,64.3,29.99,SSE,155,0.0,2.0,96,0.00,,---,0.07,VWS V14.01,2013-09-21 07:02:00,
2013-09-21 03:03:00,65.5,64.3,29.99,SSE,155,1.0,1.0,96,0.00,,---,0.07,VWS V14.01,2013-09-21 07:03:00,
2013-09-21 03:04:00,65.5,64.3,29.99,ESE,107,2.0,2.0,96,0.00,,---,0.07,VWS V14.01,2013-09-21 07:04:00,
2013-09-21 03:05:00,65.5,64.3,29.98,East,81,2.0,3.0,96,0.00,,---,0.07,VWS V14.01,2013-09-21 07:05:00,
2013-09-21 03:06:00,65.5,64.3,29.98,East,86,2.0,2.0,96,0.00,,---,0.07,VWS V14.01,2013-09-21 07:06:00,
2013-09-21 03:07:00,65.5,64.3,29.98,East,86,1.0,2.0,96,0.00,,---,0.07,VWS V14.01,2013-09-21 07:07:00,
2013-09-21 03:08:00,65.5,64.3,29.98,East,86,1.0,2.0,96,0.00,,---,0.07,VWS V14.01,2013-09-21 07:08:00,
2013-09-21 03:09:00,65.5,64.3,29.98,East,86,0.0,1.0,96,0.00,,---,0.07,VWS V14.01,2013-09-21 07:09:00,
2013-09-21 03:10:00,65.5,64.3,29.98,East,86,1.0,1.0,96,0.00,,---,0.07,VWS V14.01,2013-09-21 07:10:00,
2013-09-21 03:11:00,65.5,64.3,29.98,East,86,0.0,1.0,96,0.00,,---,0.07,VWS V14.01,2013-09-21 07:11:00,
2013-09-21 03:12:00,65.5,64.3,29.98,East,86,1.0,1.0,96,0.00,,---,0.07,VWS V14.01,2013-09-21 07:12:00,
2013-09-21 03:13:00,65.5,64.3,29.98,East,100,2.0,2.0,96,0.00,,---,0.07,VWS V14.01,2013-09-21 07:13:00,
2013-09-21 03:14:00,65.5,64.3,29.98,ESE,111,1.0,3.0,96,0.00,,---,0.07,VWS V14.01,2013-09-21 07:14:00,
2013-09-21 03:15:00,65.5,64.3,29.98,SE,136,2.0,2.0,96,0.00,,---,0.07,VWS V14.01,2013-09-21 07:15:00,
2013-09-21 03:16:00,65.5,64.3,29.98,East,89,2.0,2.0,96,0.00,,---,0.07,VWS V14.01,2013-09-21 07:16:00,
2013-09-21 03:17:00,65.5,64.3,29.98,ESE,107,1.0,2.0,96,0.00,,---,0.07,VWS V14.01,2013-09-21 07:17:00,
2013-09-21 03:18:00,65.5,64.3,29.98,ESE,107,1.0,1.0,96,0.00,,---,0.07,VWS V14.01,2013-09-21 07:18:00,
2013-09-21 03:19:00,65.5,64.3,29.98,East,91,2.0,2.0,96,0.00,,---,0.07,VWS V14.01,2013-09-21 07:19:00,
2013-09-21 03:20:00,65.6,64.4,29.98,SSE,159,0.0,2.0,96,0.00,,---,0.07,VWS V14.01,2013-09-21 07:20:00,
2013-09-21 03:21:00,65.5,64.3,29.98,SE,138,3.0,4.0,96,0.00,,---,0.07,VWS V14.01,2013-09-21 07:21:00,
2013-09-21 03:22:00,65.5,64.3,29.98,SE,140,1.0,4.0,96,0.00,,---,0.07,VWS V14.01,2013-09-21 07:22:00,
2013-09-21 03:23:00,65.5,64.3,29.98,SE,142,2.0,2.0,96,0.00,,---,0.07,VWS V14.01,2013-09-21 07:23:00,
2013-09-21 03:24:00,65.5,64.3,29.98,SE,146,2.0,2.0,96,0.00,,---,0.07,VWS V14.01,2013-09-21 07:24:00,
2013-09-21 03:25:00,65.5,64.3,29.98,SE,142,0.0,2.0,96,0.00,,---,0.07,VWS V14.01,2013-09-21 07:25:00,
2013-09-21 03:26:00,65.5,64.3,29.98,ESE,112,2.0,2.0,96,0.00,,---,0.07,VWS V14.01,2013-09-21 07:26:00,
2013-09-21 03:27:00,65.5,64.3,29.98,SE,128,2.0,2.0,96,0.00,,---,0.07,VWS V14.01,2013-09-21 07:27:00,
2013-09-21 03:28:00,65.5,64.3,29.98,SE,134,1.0,2.0,96,0.00,,---,0.07,VWS V14.01,2013-09-21 07:28:00,
2013-09-21 03:29:00,65.5,64.3,29.98,SSE,156,2.0,4.0,96,0.00,,---,0.07,VWS V14.01,2013-09-21 07:29:00,
2013-09-21 03:30:00,65.5,64.3,29.98,SSE,148,2.0,3.0,96,0.00,,---,0.07,VWS V14.01,2013-09-21 07:30:00,
2013-09-21 03:31:00,65.5,64.3,29.98,ESE,109,0.0,1.0,96,0.00,,---,0.07,VWS V14.01,2013-09-21 07:31:00,
2013-09-21 03:32:00,65.5,64.3,29.98,ESE,109,1.0,1.0,96,0.00,,---,0.07,VWS V14.01,2013-09-21 07:32:00,
2013-09-21 03:33:00,65.4,64.2,29.98,SE,146,0.0,2.0,96,0.00,,---,0.07,VWS V14.01,2013-09-21 07:33:00,
2013-09-21 03:34:00,65.5,64.3,29.98,SSE,163,0.0,1.0,96,0.00,,---,0.07,VWS V14.01,2013-09-21 07:34:00,
2013-09-21 03:35:00,65.5,64.3,29.98,SSE,161,1.0,1.0,96,0.00,,---,0.07,VWS V14.01,2013-09-21 07:35:00,
2013-09-21 03:36:00,65.4,64.2,29.98,ESE,108,1.0,1.0,96,0.00,,---,0.07,VWS V14.01,2013-09-21 07:36:00,
2013-09-21 03:37:00,65.5,64.3,29.98,ESE,109,0.0,1.0,96,0.00,,---,0.07,VWS V14.01,2013-09-21 07:37:00,
2013-09-21 03:38:00,65.4,64.2,29.98,SSE,160,3.0,3.0,96,0.00,,---,0.07,VWS V14.01,2013-09-21 07:38:00,
2013-09-21 03:39:00,65.4,64.2,29.98,SE,146,2.0,5.0,96,0.00,,---,0.07,VWS V14.01,2013-09-21 07:39:00,
2013-09-21 03:40:00,65.4,64.2,29.98,SE,132,1.0,2.0,96,0.00,,---,0.07,VWS V14.01,2013-09-21 07:40:00,
2013-09-21 03:41:00,65.4,64.2,29.98,East,96,1.0,2.0,96,0.00,,---,0.07,VWS V14.01,2013-09-21 07:41:00,
2013-09-21 03:42:00,65.4,64.2,29.98,East,96,1.0,2.0,96,0.00,,---,0.07,VWS V14.01,2013-09-21 07:42:00,
2013-09-21 03:43:00,65.4,64.2,29.98,South,171,1.0,3.0,96,0.00,,---,0.07,VWS V14.01,2013-09-21 07:43:00,
2013-09-21 03:44:00,65.4,64.2,29.98,South,171,0.0,1.0,96,0.00,,---,0.07,VWS V14.01,2013-09-21 07:44:00,
2013-09-21 03:45:00,65.4,64.2,29.98,SE,141,3.0,3.0,96,0.00,,---,0.07,VWS V14.01,2013-09-21 07:45:00,
2013-09-21 03:46:00,65.4,64.2,29.98,East,96,2.0,2.0,96,0.00,,---,0.07,VWS V14.01,2013-09-21 07:46:00,
2013-09-21 03:47:00,65.4,64.2,29.98,ESE,104,4.0,4.0,96,0.00,,---,0.07,VWS V14.01,2013-09-21 07:47:00,
2013-09-21 03:48:00,65.3,64.1,29.98,ESE,111,1.0,4.0,96,0.00,,---,0.07,VWS V14.01,2013-09-21 07:48:00,
2013-09-21 03:49:00,65.3,64.1,29.98,ESE,117,1.0,2.0,96,0.00,,---,0.07,VWS V14.01,2013-09-21 07:49:00,
2013-09-21 03:50:00,65.3,64.1,29.98,ESE,117,1.0,2.0,96,0.00,,---,0.07,VWS V14.01,2013-09-21 07:50:00,
2013-09-21 03:51:00,65.3,64.1,29.98,ESE,115,1.0,1.0,96,0.00,,---,0.07,VWS V14.01,2013-09-21 07:51:00,
2013-09-21 03:52:00,65.4,64.2,29.98,ESE,115,1.0,1.0,96,0.00,,---,0.07,VWS V14.01,2013-09-21 07:52:00,
2013-09-21 03:53:00,65.4,64.2,29.98,East,98,0.0,2.0,96,0.00,,---,0.07,VWS V14.01,2013-09-21 07:53:00,
2013-09-21 03:54:00,65.3,64.1,29.98,East,99,2.0,2.0,96,0.00,,---,0.07,VWS V14.01,2013-09-21 07:54:00,
2013-09-21 03:55:00,65.4,64.2,29.98,East,86,1.0,2.0,96,0.00,,---,0.07,VWS V14.01,2013-09-21 07:55:00,
2013-09-21 03:56:00,65.3,64.1,29.98,SE,137,1.0,2.0,96,0.00,,---,0.07,VWS V14.01,2013-09-21 07:56:00,
2013-09-21 03:57:00,65.3,64.1,29.98,SE,137,1.0,2.0,96,0.00,,---,0.07,VWS V14.01,2013-09-21 07:57:00,
2013-09-21 03:58:00,65.3,64.1,29.98,SE,139,3.0,4.0,96,0.00,,---,0.07,VWS V14.01,2013-09-21 07:58:00,
2013-09-21 03:59:00,65.3,64.1,29.98,SE,141,1.0,3.0,96,0.00,,---,0.07,VWS V14.01,2013-09-21 07:59:00,
2013-09-21 04:00:00,65.3,64.1,29.98,SSE,150,2.0,2.0,96,0.00,,---,0.07,VWS V14.01,2013-09-21 08:00:00,
2013-09-21 04:01:00,65.3,64.1,29.97,ESE,107,3.0,3.0,96,0.00,,---,0.07,VWS V14.01,2013-09-21 08:01:00,
2013-09-21 04:02:00,65.3,64.1,29.97,ESE,105,2.0,4.0,96,0.00,,---,0.07,VWS V14.01,2013-09-21 08:02:00,
2013-09-21 04:03:00,65.3,64.1,29.97,ESE,113,2.0,3.0,96,0.00,,---,0.07,VWS V14.01,2013-09-21 08:03:00,
2013-09-21 04:04:00,65.3,64.1,29.97,ESE,107,0.0,2.0,96,0.00,,---,0.07,VWS V14.01,2013-09-21 08:04:00,
2013-09-21 04:05:00,65.3,64.1,29.97,ESE,106,0.0,1.0,96,0.00,,---,0.07,VWS V14.01,2013-09-21 08:05:00,
2013-09-21 04:06:00,65.3,64.1,29.97,SE,124,2.0,2.0,96,0.00,,---,0.07,VWS V14.01,2013-09-21 08:06:00,
2013-09-21 04:07:00,65.3,64.1,29.97,SE,124,1.0,2.0,96,0.00,,---,0.07,VWS V14.01,2013-09-21 08:07:00,
2013-09-21 04:08:00,65.3,64.1,29.97,ESE,103,2.0,3.0,96,0.00,,---,0.07,VWS V14.01,2013-09-21 08:08:00,
2013-09-21 04:09:00,65.3,64.1,29.97,SE,126,2.0,3.0,96,0.00,,---,0.07,VWS V14.01,2013-09-21 08:09:00,
2013-09-21 04:10:00,65.2,64.0,29.97,ESE,107,1.0,2.0,96,0.00,,---,0.07,VWS V14.01,2013-09-21 08:10:00,
2013-09-21 04:11:00,65.3,64.1,29.97,SSE,155,2.0,2.0,96,0.00,,---,0.07,VWS V14.01,2013-09-21 08:11:00,
2013-09-21 04:12:00,65.3,64.1,29.97,SE,142,0.0,3.0,96,0.00,,---,0.07,VWS V14.01,2013-09-21 08:12:00,
2013-09-21 04:13:00,65.3,64.1,29.97,ESE,107,1.0,3.0,96,0.00,,---,0.07,VWS V14.01,2013-09-21 08:13:00,
2013-09-21 04:14:00,65.3,64.1,29.97,ESE,107,0.0,1.0,96,0.00,,---,0.07,VWS V14.01,2013-09-21 08:14:00,
2013-09-21 04:15:00,65.3,64.1,29.97,ESE,106,1.0,1.0,96,0.00,,---,0.07,VWS V14.01,2013-09-21 08:15:00,
2013-09-21 04:16:00,65.3,64.1,29.97,East,97,1.0,1.0,96,0.00,,---,0.07,VWS V14.01,2013-09-21 08:16:00,
2013-09-21 04:17:00,65.3,64.1,29.97,East,97,1.0,1.0,96,0.00,,---,0.07,VWS V14.01,2013-09-21 08:17:00,
2013-09-21 04:18:00,65.3,64.1,29.97,East,97,1.0,1.0,96,0.00,,---,0.07,VWS V14.01,2013-09-21 08:18:00,
2013-09-21 04:19:00,65.3,64.1,29.97,East,97,1.0,1.0,96,0.00,,---,0.07,VWS V14.01,2013-09-21 08:19:00,
2013-09-21 04:20:00,65.3,64.1,29.97,East,92,2.0,2.0,96,0.00,,---,0.07,VWS V14.01,2013-09-21 08:20:00,
2013-09-21 04:21:00,65.3,64.1,29.97,East,90,2.0,2.0,96,0.00,,---,0.07,VWS V14.01,2013-09-21 08:21:00,
2013-09-21 04:22:00,65.3,64.1,29.97,East,96,3.0,3.0,96,0.00,,---,0.07,VWS V14.01,2013-09-21 08:22:00,
2013-09-21 04:23:00,65.3,64.1,29.97,East,87,2.0,3.0,96,0.01,,---,0.08,VWS V14.01,2013-09-21 08:23:00,
2013-09-21 04:24:00,65.2,64.0,29.97,East,86,2.0,3.0,96,0.01,,---,0.08,VWS V14.01,2013-09-21 08:24:00,
2013-09-21 04:26:00,65.2,64.0,29.97,ENE,74,3.0,3.0,96,0.01,,---,0.08,VWS V14.01,2013-09-21 08:26:00,
2013-09-21 04:28:00,65.3,64.1,29.97,East,94,3.0,3.0,96,0.01,,---,0.08,VWS V14.01,2013-09-21 08:28:00,
2013-09-21 04:29:00,65.3,64.1,29.97,East,94,5.0,5.0,96,0.01,,---,0.08,VWS V14.01,2013-09-21 08:29:00,
2013-09-21 04:31:00,65.3,64.1,29.97,ESE,110,2.0,2.0,96,0.01,,---,0.08,VWS V14.01,2013-09-21 08:31:00,
2013-09-21 04:32:00,65.3,64.1,29.97,ESE,111,1.0,2.0,96,0.01,,---,0.08,VWS V14.01,2013-09-21 08:32:00,
2013-09-21 04:33:00,65.3,64.1,29.97,East,97,2.0,2.0,96,0.01,,---,0.08,VWS V14.01,2013-09-21 08:33:00,
2013-09-21 04:34:00,65.3,64.1,29.97,ESE,112,2.0,2.0,96,0.01,,---,0.08,VWS V14.01,2013-09-21 08:34:00,
2013-09-21 04:35:00,65.3,64.1,29.96,ESE,111,1.0,2.0,96,0.01,,---,0.08,VWS V14.01,2013-09-21 08:35:00,
2013-09-21 04:36:00,65.3,64.1,29.96,ESE,107,1.0,1.0,96,0.01,,---,0.08,VWS V14.01,2013-09-21 08:36:00,
2013-09-21 04:37:00,65.2,64.0,29.96,ESE,107,1.0,1.0,96,0.01,,---,0.08,VWS V14.01,2013-09-21 08:37:00,
2013-09-21 04:38:00,65.2,64.0,29.96,ESE,108,2.0,2.0,96,0.01,,---,0.08,VWS V14.01,2013-09-21 08:38:00,
2013-09-21 04:39:00,65.2,64.0,29.96,ESE,122,1.0,2.0,96,0.01,,---,0.08,VWS V14.01,2013-09-21 08:39:00,
2013-09-21 04:40:00,65.2,64.0,29.96,ESE,122,1.0,1.0,96,0.01,,---,0.08,VWS V14.01,2013-09-21 08:40:00,
2013-09-21 04:41:00,65.2,64.0,29.96,SSE,152,0.0,2.0,96,0.01,,---,0.08,VWS V14.01,2013-09-21 08:41:00,
2013-09-21 04:42:00,65.2,64.0,29.96,ESE,121,1.0,1.0,96,0.01,,---,0.08,VWS V14.01,2013-09-21 08:42:00,
2013-09-21 04:43:00,65.2,64.0,29.96,ESE,121,0.0,1.0,96,0.01,,---,0.08,VWS V14.01,2013-09-21 08:43:00,
2013-09-21 04:44:00,65.2,64.0,29.96,ESE,121,1.0,1.0,96,0.01,,---,0.08,VWS V14.01,2013-09-21 08:44:00,
2013-09-21 04:45:00,65.2,64.0,29.96,ESE,116,1.0,2.0,96,0.01,,---,0.08,VWS V14.01,2013-09-21 08:45:00,
2013-09-21 04:46:00,65.2,64.0,29.96,ESE,115,0.0,0.0,96,0.01,,---,0.08,VWS V14.01,2013-09-21 08:46:00,
2013-09-21 04:47:00,65.2,64.0,29.96,South,176,1.0,2.0,96,0.01,,---,0.08,VWS V14.01,2013-09-21 08:47:00,
2013-09-21 04:48:00,65.2,64.0,29.96,SE,126,2.0,2.0,96,0.01,,---,0.08,VWS V14.01,2013-09-21 08:48:00,
2013-09-21 04:49:00,65.2,64.0,29.96,SSE,159,1.0,2.0,96,0.01,,---,0.08,VWS V14.01,2013-09-21 08:49:00,
2013-09-21 04:50:00,65.2,64.0,29.96,SSE,156,1.0,1.0,96,0.01,,---,0.08,VWS V14.01,2013-09-21 08:50:00,
2013-09-21 04:51:00,65.2,64.0,29.96,SSE,157,2.0,2.0,96,0.01,,---,0.08,VWS V14.01,2013-09-21 08:51:00,
2013-09-21 04:52:00,65.3,64.1,29.96,SSE,155,1.0,3.0,96,0.01,,---,0.08,VWS V14.01,2013-09-21 08:52:00,
2013-09-21 04:53:00,65.2,64.0,29.96,South,176,0.0,3.0,96,0.01,,---,0.08,VWS V14.01,2013-09-21 08:53:00,
2013-09-21 04:54:00,65.2,64.0,29.96,SW,215,3.0,4.0,96,0.01,,---,0.08,VWS V14.01,2013-09-21 08:54:00,
2013-09-21 04:55:00,65.2,64.0,29.96,SE,133,1.0,3.0,96,0.01,,---,0.08,VWS V14.01,2013-09-21 08:55:00,
2013-09-21 04:56:00,65.2,64.0,29.96,SE,140,1.0,1.0,96,0.01,,---,0.08,VWS V14.01,2013-09-21 08:56:00,
2013-09-21 04:57:00,65.2,64.0,29.96,SSE,148,3.0,3.0,96,0.01,,---,0.08,VWS V14.01,2013-09-21 08:57:00,
2013-09-21 04:58:00,65.2,64.0,29.96,SE,128,1.0,3.0,96,0.01,,---,0.08,VWS V14.01,2013-09-21 08:58:00,
2013-09-21 04:59:00,65.2,64.0,29.96,SE,128,0.0,1.0,96,0.01,,---,0.08,VWS V14.01,2013-09-21 08:59:00,
2013-09-21 05:00:00,65.3,64.1,29.96,SE,128,1.0,1.0,96,0.01,,---,0.08,VWS V14.01,2013-09-21 09:00:00,
2013-09-21 05:01:00,65.3,64.1,29.96,SSE,153,2.0,2.0,96,0.01,,---,0.08,VWS V14.01,2013-09-21 09:01:00,
2013-09-21 05:02:00,65.3,64.1,29.96,ESE,121,2.0,3.0,96,0.01,,---,0.08,VWS V14.01,2013-09-21 09:02:00,
2013-09-21 05:03:00,65.3,64.1,29.96,SSE,157,3.0,4.0,96,0.01,,---,0.08,VWS V14.01,2013-09-21 09:03:00,
2013-09-21 05:04:00,65.3,64.1,29.96,South,169,0.0,3.0,96,0.01,,---,0.08,VWS V14.01,2013-09-21 09:04:00,
2013-09-21 05:05:00,65.3,64.1,29.96,SSE,164,0.0,0.0,96,0.01,,---,0.08,VWS V14.01,2013-09-21 09:05:00,
2013-09-21 05:06:00,65.3,64.1,29.96,SSE,159,0.0,0.0,96,0.01,,---,0.08,VWS V14.01,2013-09-21 09:06:00,
2013-09-21 05:07:00,65.3,64.1,29.96,SE,126,2.0,3.0,96,0.01,,---,0.08,VWS V14.01,2013-09-21 09:07:00,
2013-09-21 05:08:00,65.3,64.1,29.96,South,170,1.0,4.0,96,0.01,,---,0.08,VWS V14.01,2013-09-21 09:08:00,
2013-09-21 05:09:00,65.3,64.1,29.96,SE,141,1.0,1.0,96,0.01,,---,0.08,VWS V14.01,2013-09-21 09:09:00,
2013-09-21 05:10:00,65.3,64.1,29.95,SE,142,1.0,1.0,96,0.01,,---,0.08,VWS V14.01,2013-09-21 09:10:00,
2013-09-21 05:11:00,65.3,64.1,29.95,SE,146,4.0,4.0,96,0.01,,---,0.08,VWS V14.01,2013-09-21 09:11:00,
2013-09-21 05:12:00,65.3,64.1,29.95,SE,146,3.0,4.0,96,0.01,,---,0.08,VWS V14.01,2013-09-21 09:12:00,
2013-09-21 05:13:00,65.3,64.1,29.95,SSE,157,2.0,5.0,96,0.01,,---,0.08,VWS V14.01,2013-09-21 09:13:00,
2013-09-21 05:14:00,65.3,64.1,29.95,SSE,153,2.0,4.0,96,0.01,,---,0.08,VWS V14.01,2013-09-21 09:14:00,
2013-09-21 05:15:00,65.3,64.1,29.95,SE,146,2.0,3.0,96,0.01,,---,0.08,VWS V14.01,2013-09-21 09:15:00,
2013-09-21 05:16:00,65.3,64.1,29.95,East,94,2.0,2.0,96,0.01,,---,0.08,VWS V14.01,2013-09-21 09:16:00,
2013-09-21 05:17:00,65.3,64.1,29.95,East,97,3.0,3.0,96,0.01,,---,0.08,VWS V14.01,2013-09-21 09:17:00,
2013-09-21 05:18:00,65.3,64.1,29.95,ESE,118,1.0,3.0,96,0.01,,---,0.08,VWS V14.01,2013-09-21 09:18:00,
2013-09-21 05:19:00,65.3,64.1,29.95,SSE,165,3.0,3.0,96,0.01,,---,0.08,VWS V14.01,2013-09-21 09:19:00,
2013-09-21 05:20:00,65.3,64.1,29.95,SE,134,1.0,3.0,96,0.01,,---,0.08,VWS V14.01,2013-09-21 09:20:00,
2013-09-21 05:21:00,65.3,64.1,29.95,SSW,202,1.0,1.0,96,0.01,,---,0.08,VWS V14.01,2013-09-21 09:21:00,
2013-09-21 05:22:00,65.3,64.1,29.95,East,92,2.0,2.0,96,0.01,,---,0.08,VWS V14.01,2013-09-21 09:22:00,
2013-09-21 05:23:00,65.3,64.1,29.95,SSE,167,3.0,3.0,96,0.01,,---,0.08,VWS V14.01,2013-09-21 09:23:00,
2013-09-21 05:24:00,65.3,64.1,29.95,South,169,3.0,3.0,96,0.00,,---,0.08,VWS V14.01,2013-09-21 09:24:00,
2013-09-21 05:25:00,65.3,64.1,29.95,SSE,155,2.0,4.0,96,0.00,,---,0.08,VWS V14.01,2013-09-21 09:25:00,
2013-09-21 05:26:00,65.3,64.1,29.95,SSE,155,0.0,2.0,96,0.00,,---,0.08,VWS V14.01,2013-09-21 09:26:00,
2013-09-21 05:27:00,65.3,64.1,29.95,East,88,2.0,3.0,96,0.00,,---,0.08,VWS V14.01,2013-09-21 09:27:00,
2013-09-21 05:28:00,65.3,64.1,29.95,ESE,105,2.0,2.0,96,0.00,,---,0.08,VWS V14.01,2013-09-21 09:28:00,
2013-09-21 05:29:00,65.3,64.1,29.95,East,83,3.0,3.0,96,0.00,,---,0.08,VWS V14.01,2013-09-21 09:29:00,
2013-09-21 05:30:00,65.3,64.1,29.95,SSE,159,3.0,3.0,96,0.00,,---,0.08,VWS V14.01,2013-09-21 09:30:00,
2013-09-21 05:31:00,65.3,64.1,29.95,East,98,1.0,3.0,96,0.00,,---,0.08,VWS V14.01,2013-09-21 09:31:00,
2013-09-21 05:32:00,65.3,64.1,29.94,ESE,122,1.0,2.0,96,0.00,,---,0.08,VWS V14.01,2013-09-21 09:32:00,
2013-09-21 05:33:00,65.3,64.1,29.95,ESE,103,1.0,2.0,96,0.00,,---,0.08,VWS V14.01,2013-09-21 09:33:00,
2013-09-21 05:34:00,65.3,64.1,29.94,ESE,103,1.0,1.0,96,0.00,,---,0.08,VWS V14.01,2013-09-21 09:34:00,
2013-09-21 05:35:00,65.3,64.1,29.95,ESE,111,1.0,2.0,96,0.00,,---,0.08,VWS V14.01,2013-09-21 09:35:00,
2013-09-21 05:36:00,65.3,64.1,29.94,East,99,2.0,2.0,96,0.00,,---,0.08,VWS V14.01,2013-09-21 09:36:00,
2013-09-21 05:37:00,65.3,64.1,29.94,ESE,102,0.0,2.0,96,0.00,,---,0.08,VWS V14.01,2013-09-21 09:37:00,
2013-09-21 05:38:00,65.3,64.1,29.94,East,87,3.0,3.0,96,0.00,,---,0.08,VWS V14.01,2013-09-21 09:38:00,
2013-09-21 05:39:00,65.3,64.1,29.94,ESE,104,1.0,3.0,96,0.00,,---,0.08,VWS V14.01,2013-09-21 09:39:00,
2013-09-21 05:40:00,65.3,64.1,29.94,ESE,107,1.0,2.0,96,0.00,,---,0.08,VWS V14.01,2013-09-21 09:40:00,
2013-09-21 05:41:00,65.3,64.1,29.94,ESE,108,1.0,1.0,96,0.00,,---,0.08,VWS V14.01,2013-09-21 09:41:00,
2013-09-21 05:42:00,65.3,64.1,29.94,ESE,107,1.0,1.0,96,0.00,,---,0.08,VWS V14.01,2013-09-21 09:42:00,
2013-09-21 05:43:00,65.3,64.1,29.94,East,86,3.0,3.0,96,0.00,,---,0.08,VWS V14.01,2013-09-21 09:43:00,
2013-09-21 05:44:00,65.3,64.1,29.94,East,101,5.0,6.0,96,0.00,,---,0.08,VWS V14.01,2013-09-21 09:44:00,
2013-09-21 05:45:00,65.2,64.0,29.94,East,90,6.0,6.0,96,0.00,,---,0.08,VWS V14.01,2013-09-21 09:45:00,
2013-09-21 05:46:00,65.2,64.0,29.94,East,94,3.0,5.0,96,0.00,,---,0.08,VWS V14.01,2013-09-21 09:46:00,
2013-09-21 05:47:00,65.2,64.0,29.94,ESE,117,2.0,5.0,96,0.00,,---,0.08,VWS V14.01,2013-09-21 09:47:00,
2013-09-21 05:48:00,65.2,64.0,29.94,East,96,3.0,3.0,96,0.00,,---,0.08,VWS V14.01,2013-09-21 09:48:00,
2013-09-21 05:49:00,65.2,64.0,29.94,SSE,153,2.0,3.0,96,0.00,,---,0.08,VWS V14.01,2013-09-21 09:49:00,
2013-09-21 05:50:00,65.2,64.0,29.94,ESE,123,1.0,3.0,96,0.00,,---,0.08,VWS V14.01,2013-09-21 09:50:00,
2013-09-21 05:51:00,65.2,64.0,29.94,ENE,65,3.0,3.0,96,0.00,,---,0.08,VWS V14.01,2013-09-21 09:51:00,
2013-09-21 05:52:00,65.2,64.0,29.94,SSE,165,2.0,3.0,96,0.00,,---,0.08,VWS V14.01,2013-09-21 09:52:00,
2013-09-21 05:53:00,65.2,64.0,29.94,ESE,111,2.0,2.0,96,0.00,,---,0.08,VWS V14.01,2013-09-21 09:53:00,
2013-09-21 05:54:00,65.2,64.0,29.94,SE,141,2.0,2.0,96,0.00,,---,0.08,VWS V14.01,2013-09-21 09:54:00,
2013-09-21 05:55:00,65.2,64.0,29.94,SE,145,1.0,5.0,96,0.00,,---,0.08,VWS V14.01,2013-09-21 09:55:00,
2013-09-21 05:56:00,65.2,64.0,29.94,ENE,77,0.0,2.0,96,0.00,,---,0.08,VWS V14.01,2013-09-21 09:56:00,
2013-09-21 05:57:00,65.2,64.0,29.94,SE,142,0.0,1.0,96,0.00,,---,0.08,VWS V14.01,2013-09-21 09:57:00,
2013-09-21 05:58:00,65.2,64.0,29.94,SSE,152,1.0,1.0,96,0.00,,---,0.08,VWS V14.01,2013-09-21 09:58:00,
2013-09-21 05:59:00,65.2,64.0,29.94,ESE,102,0.0,1.0,96,0.00,,---,0.08,VWS V14.01,2013-09-21 09:59:00,
2013-09-21 06:00:00,65.2,64.0,29.94,SSE,159,0.0,3.0,96,0.00,,---,0.08,VWS V14.01,2013-09-21 10:00:00,
2013-09-21 06:01:00,65.2,64.0,29.94,South,176,3.0,3.0,96,0.00,,---,0.08,VWS V14.01,2013-09-21 10:01:00,
2013-09-21 06:02:00,65.2,64.0,29.94,SSE,159,1.0,3.0,96,0.00,,---,0.08,VWS V14.01,2013-09-21 10:02:00,
2013-09-21 06:03:00,65.2,64.0,29.94,ESE,121,1.0,2.0,96,0.00,,---,0.08,VWS V14.01,2013-09-21 10:03:00,
2013-09-21 06:04:00,65.2,64.0,29.94,SE,138,3.0,4.0,96,0.00,,---,0.08,VWS V14.01,2013-09-21 10:04:00,
2013-09-21 06:05:00,65.2,64.0,29.94,ESE,115,2.0,4.0,96,0.00,,---,0.08,VWS V14.01,2013-09-21 10:05:00,
2013-09-21 06:06:00,65.2,64.0,29.94,SSE,161,2.0,2.0,96,0.00,,---,0.08,VWS V14.01,2013-09-21 10:06:00,
2013-09-21 06:07:00,65.2,64.0,29.94,ESE,102,1.0,5.0,96,0.00,,---,0.08,VWS V14.01,2013-09-21 10:07:00,
2013-09-21 06:08:00,65.2,64.0,29.94,SSE,159,4.0,5.0,96,0.00,,---,0.08,VWS V14.01,2013-09-21 10:08:00,
2013-09-21 06:09:00,65.2,64.0,29.94,ESE,114,2.0,4.0,96,0.00,,---,0.08,VWS V14.01,2013-09-21 10:09:00,
2013-09-21 06:10:00,65.2,64.0,29.94,ESE,112,4.0,4.0,96,0.00,,---,0.08,VWS V14.01,2013-09-21 10:10:00,
2013-09-21 06:11:00,65.2,64.0,29.94,ESE,113,3.0,4.0,96,0.00,,---,0.08,VWS V14.01,2013-09-21 10:11:00,
2013-09-21 06:12:00,65.2,64.0,29.94,ESE,117,2.0,3.0,96,0.00,,---,0.08,VWS V14.01,2013-09-21 10:12:00,
2013-09-21 06:13:00,65.2,64.0,29.94,ESE,102,2.0,2.0,96,0.00,,---,0.08,VWS V14.01,2013-09-21 10:13:00,
2013-09-21 06:14:00,65.2,64.0,29.94,SE,126,2.0,2.0,96,0.00,,---,0.08,VWS V14.01,2013-09-21 10:14:00,
2013-09-21 06:15:00,65.2,64.0,29.94,East,90,2.0,3.0,96,0.00,,---,0.08,VWS V14.01,2013-09-21 10:15:00,
2013-09-21 06:16:00,65.2,64.0,29.94,SSW,196,2.0,2.0,96,0.00,,---,0.08,VWS V14.01,2013-09-21 10:16:00,
2013-09-21 06:17:00,65.2,64.0,29.94,South,180,5.0,5.0,96,0.00,,---,0.08,VWS V14.01,2013-09-21 10:17:00,
2013-09-21 06:18:00,65.2,64.0,29.94,South,171,2.0,5.0,96,0.00,,---,0.08,VWS V14.01,2013-09-21 10:18:00,
2013-09-21 06:19:00,65.2,64.0,29.94,SE,128,1.0,4.0,96,0.00,,---,0.08,VWS V14.01,2013-09-21 10:19:00,
2013-09-21 06:20:00,65.1,63.9,29.94,ESE,109,1.0,2.0,96,0.00,,---,0.08,VWS V14.01,2013-09-21 10:20:00,
2013-09-21 06:21:00,65.1,63.9,29.94,ESE,109,0.0,1.0,96,0.00,,---,0.08,VWS V14.01,2013-09-21 10:21:00,
2013-09-21 06:22:00,65.1,63.9,29.94,South,180,3.0,3.0,96,0.00,,---,0.08,VWS V14.01,2013-09-21 10:22:00,
2013-09-21 06:23:00,65.2,64.0,29.94,SW,233,1.0,4.0,96,0.00,,---,0.08,VWS V14.01,2013-09-21 10:23:00,
2013-09-21 06:24:00,65.2,64.0,29.94,SE,146,3.0,3.0,96,0.00,,---,0.08,VWS V14.01,2013-09-21 10:24:00,
2013-09-21 06:25:00,65.2,64.0,29.94,SSE,163,3.0,3.0,96,0.00,,---,0.08,VWS V14.01,2013-09-21 10:25:00,
2013-09-21 06:26:00,65.2,64.0,29.94,SW,217,2.0,3.0,96,0.00,,---,0.08,VWS V14.01,2013-09-21 10:26:00,
2013-09-21 06:27:00,65.2,64.0,29.94,South,178,3.0,3.0,96,0.00,,---,0.08,VWS V14.01,2013-09-21 10:27:00,
2013-09-21 06:29:00,65.2,64.0,29.93,ESE,117,1.0,2.0,96,0.00,,---,0.08,VWS V14.01,2013-09-21 10:29:00,
2013-09-21 06:30:00,65.2,64.0,29.94,SSE,161,4.0,4.0,96,0.00,,---,0.08,VWS V14.01,2013-09-21 10:30:00,
2013-09-21 06:31:00,65.2,64.0,29.93,SE,134,3.0,4.0,96,0.00,,---,0.08,VWS V14.01,2013-09-21 10:31:00,
2013-09-21 06:32:00,65.1,63.9,29.93,SE,134,2.0,4.0,96,0.00,,---,0.08,VWS V14.01,2013-09-21 10:32:00,
2013-09-21 06:33:00,65.2,64.0,29.93,SSE,150,2.0,6.0,96,0.00,,---,0.08,VWS V14.01,2013-09-21 10:33:00,
2013-09-21 06:34:00,65.2,64.0,29.93,South,186,3.0,3.0,96,0.00,,---,0.08,VWS V14.01,2013-09-21 10:34:00,
2013-09-21 06:35:00,65.2,64.0,29.93,East,101,2.0,3.0,96,0.00,,---,0.08,VWS V14.01,2013-09-21 10:35:00,
2013-09-21 06:36:00,65.2,64.0,29.93,ESE,102,2.0,3.0,96,0.00,,---,0.08,VWS V14.01,2013-09-21 10:36:00,
2013-09-21 06:37:00,65.2,64.0,29.93,ESE,103,2.0,5.0,96,0.00,,---,0.08,VWS V14.01,2013-09-21 10:37:00,
2013-09-21 06:38:00,65.1,63.9,29.93,SE,135,2.0,2.0,96,0.00,,---,0.08,VWS V14.01,2013-09-21 10:38:00,
2013-09-21 06:39:00,65.1,63.9,29.93,SE,133,1.0,4.0,96,0.00,,---,0.08,VWS V14.01,2013-09-21 10:39:00,
2013-09-21 06:40:00,65.2,64.0,29.93,ESE,111,1.0,3.0,96,0.00,,---,0.08,VWS V14.01,2013-09-21 10:40:00,
2013-09-21 06:41:00,65.2,64.0,29.93,ESE,111,1.0,3.0,96,0.00,,---,0.08,VWS V14.01,2013-09-21 10:41:00,
2013-09-21 06:42:00,65.2,64.0,29.93,SSE,155,4.0,4.0,96,0.00,,---,0.08,VWS V14.01,2013-09-21 10:42:00,
2013-09-21 06:43:00,65.1,63.9,29.93,SE,125,2.0,4.0,96,0.00,,---,0.08,VWS V14.01,2013-09-21 10:43:00,
2013-09-21 06:44:00,65.2,64.0,29.93,ESE,104,1.0,4.0,96,0.00,,---,0.08,VWS V14.01,2013-09-21 10:44:00,
2013-09-21 06:45:00,65.2,64.0,29.93,SE,130,1.0,2.0,96,0.00,,---,0.08,VWS V14.01,2013-09-21 10:45:00,
2013-09-21 06:46:00,65.2,64.0,29.93,SE,130,1.0,2.0,96,0.00,,---,0.08,VWS V14.01,2013-09-21 10:46:00,
2013-09-21 06:47:00,65.2,64.0,29.93,SE,139,3.0,3.0,96,0.00,,---,0.08,VWS V14.01,2013-09-21 10:47:00,
2013-09-21 06:48:00,65.2,64.0,29.93,SE,139,2.0,3.0,96,0.00,,---,0.08,VWS V14.01,2013-09-21 10:48:00,
2013-09-21 06:49:00,65.2,64.0,29.93,SW,215,3.0,3.0,96,0.00,,---,0.08,VWS V14.01,2013-09-21 10:49:00,
2013-09-21 06:50:00,65.2,64.0,29.93,SSE,161,2.0,6.0,96,0.00,,---,0.08,VWS V14.01,2013-09-21 10:50:00,
2013-09-21 06:51:00,65.2,64.0,29.93,SSE,164,2.0,6.0,96,0.00,,---,0.08,VWS V14.01,2013-09-21 10:51:00,
2013-09-21 06:52:00,65.2,64.0,29.93,SSE,165,2.0,3.0,96,0.00,,---,0.08,VWS V14.01,2013-09-21 10:52:00,
2013-09-21 06:53:00,65.2,64.0,29.93,SSE,165,2.0,2.0,96,0.00,,---,0.08,VWS V14.01,2013-09-21 10:53:00,
2013-09-21 06:54:00,65.2,64.0,29.93,SSE,159,1.0,3.0,96,0.00,,---,0.08,VWS V14.01,2013-09-21 10:54:00,
2013-09-21 06:55:00,65.2,64.0,29.93,SSE,155,2.0,3.0,96,0.00,,---,0.08,VWS V14.01,2013-09-21 10:55:00,
2013-09-21 06:56:00,65.2,64.0,29.93,SSE,155,1.0,3.0,96,0.00,,---,0.08,VWS V14.01,2013-09-21 10:56:00,
2013-09-21 06:57:00,65.2,64.0,29.93,SE,136,2.0,2.0,96,0.00,,---,0.08,VWS V14.01,2013-09-21 10:57:00,
2013-09-21 06:58:00,65.2,64.0,29.93,SSE,152,2.0,6.0,96,0.00,,---,0.08,VWS V14.01,2013-09-21 10:58:00,
2013-09-21 06:59:00,65.2,64.0,29.93,SSE,153,1.0,3.0,96,0.00,,---,0.08,VWS V14.01,2013-09-21 10:59:00,
2013-09-21 07:00:00,65.2,64.0,29.93,SSE,161,2.0,2.0,96,0.00,,---,0.08,VWS V14.01,2013-09-21 11:00:00,
2013-09-21 07:01:00,65.2,64.0,29.93,SW,222,2.0,2.0,96,0.00,,---,0.08,VWS V14.01,2013-09-21 11:01:00,
2013-09-21 07:02:00,65.2,64.0,29.93,SW,225,2.0,3.0,96,0.00,,---,0.08,VWS V14.01,2013-09-21 11:02:00,
2013-09-21 07:03:00,65.3,64.1,29.93,SSE,159,2.0,2.0,96,0.00,,---,0.08,VWS V14.01,2013-09-21 11:03:00,
2013-09-21 07:04:00,65.3,64.1,29.93,South,178,4.0,4.0,96,0.00,,---,0.08,VWS V14.01,2013-09-21 11:04:00,
2013-09-21 07:05:00,65.3,64.1,29.93,SE,145,2.0,3.0,96,0.00,,---,0.08,VWS V14.01,2013-09-21 11:05:00,
2013-09-21 07:06:00,65.3,64.1,29.93,SSE,159,3.0,3.0,96,0.00,,---,0.08,VWS V14.01,2013-09-21 11:06:00,
2013-09-21 07:07:00,65.3,64.1,29.93,SSE,165,0.0,4.0,96,0.00,,---,0.08,VWS V14.01,2013-09-21 11:07:00,
2013-09-21 07:08:00,65.3,64.1,29.93,SE,142,3.0,3.0,96,0.00,,---,0.08,VWS V14.01,2013-09-21 11:08:00,
2013-09-21 07:09:00,65.3,64.1,29.93,South,186,4.0,5.0,96,0.00,,---,0.08,VWS V14.01,2013-09-21 11:09:00,
2013-09-21 07:10:00,65.3,64.1,29.93,SE,130,2.0,3.0,96,0.00,,---,0.08,VWS V14.01,2013-09-21 11:10:00,
2013-09-21 07:11:00,65.3,64.1,29.93,ESE,111,2.0,3.0,96,0.00,,---,0.08,VWS V14.01,2013-09-21 11:11:00,
2013-09-21 07:12:00,65.3,64.1,29.93,SE,130,2.0,4.0,96,0.00,,---,0.08,VWS V14.01,2013-09-21 11:12:00,
2013-09-21 07:13:00,65.3,64.1,29.93,South,190,4.0,4.0,96,0.00,,---,0.08,VWS V14.01,2013-09-21 11:13:00,
2013-09-21 07:14:00,65.3,64.1,29.93,South,172,2.0,5.0,96,0.00,,---,0.08,VWS V14.01,2013-09-21 11:14:00,
2013-09-21 07:15:00,65.3,64.1,29.94,SSE,163,1.0,4.0,96,0.00,,---,0.08,VWS V14.01,2013-09-21 11:15:00,
2013-09-21 07:16:00,65.3,64.1,29.94,East,98,1.0,4.0,96,0.00,,---,0.08,VWS V14.01,2013-09-21 11:16:00,
2013-09-21 07:17:00,65.3,64.1,29.94,South,181,0.0,2.0,96,0.00,,---,0.08,VWS V14.01,2013-09-21 11:17:00,
2013-09-21 07:18:00,65.3,64.1,29.94,SSE,168,2.0,3.0,96,0.00,,---,0.08,VWS V14.01,2013-09-21 11:18:00,
2013-09-21 07:19:00,65.3,64.1,29.94,SE,146,3.0,4.0,96,0.00,,---,0.08,VWS V14.01,2013-09-21 11:19:00,
2013-09-21 07:20:00,65.3,64.1,29.94,SE,126,2.0,3.0,96,0.00,,---,0.08,VWS V14.01,2013-09-21 11:20:00,
2013-09-21 07:21:00,65.4,64.2,29.94,SSE,151,2.0,4.0,96,0.00,,---,0.08,VWS V14.01,2013-09-21 11:21:00,
2013-09-21 07:22:00,65.4,64.2,29.94,ESE,115,3.0,5.0,96,0.00,,---,0.08,VWS V14.01,2013-09-21 11:22:00,
2013-09-21 07:23:00,65.4,64.2,29.94,South,182,0.0,3.0,96,0.00,,---,0.08,VWS V14.01,2013-09-21 11:23:00,
2013-09-21 07:24:00,65.4,64.2,29.94,SE,137,1.0,2.0,96,0.00,,---,0.08,VWS V14.01,2013-09-21 11:24:00,
2013-09-21 07:25:00,65.4,64.2,29.94,East,96,3.0,3.0,96,0.00,,---,0.08,VWS V14.01,2013-09-21 11:25:00,
2013-09-21 07:26:00,65.4,64.2,29.94,SSE,156,1.0,3.0,96,0.00,,---,0.08,VWS V14.01,2013-09-21 11:26:00,
2013-09-21 07:27:00,65.4,64.2,29.94,SSE,157,3.0,4.0,96,0.00,,---,0.08,VWS V14.01,2013-09-21 11:27:00,
2013-09-21 07:28:00,65.4,64.2,29.94,East,94,1.0,3.0,96,0.00,,---,0.08,VWS V14.01,2013-09-21 11:28:00,
2013-09-21 07:29:00,65.4,64.2,29.93,East,82,2.0,4.0,96,0.00,,---,0.08,VWS V14.01,2013-09-21 11:29:00,
2013-09-21 07:30:00,65.4,64.2,29.93,WSW,238,1.0,5.0,96,0.00,,---,0.08,VWS V14.01,2013-09-21 11:30:00,
2013-09-21 07:31:00,65.4,64.2,29.93,WSW,238,1.0,5.0,96,0.00,,---,0.08,VWS V14.01,2013-09-21 11:31:00,
2013-09-21 07:32:00,65.4,64.2,29.93,ESE,111,1.0,2.0,96,0.00,,---,0.08,VWS V14.01,2013-09-21 11:32:00,
2013-09-21 07:33:00,65.4,64.2,29.93,SW,217,1.0,3.0,96,0.00,,---,0.08,VWS V14.01,2013-09-21 11:33:00,
2013-09-21 07:34:00,65.5,64.3,29.93,SSE,160,2.0,2.0,96,0.00,,---,0.08,VWS V14.01,2013-09-21 11:34:00,
2013-09-21 07:35:00,65.4,64.2,29.93,ESE,105,4.0,4.0,96,0.00,,---,0.08,VWS V14.01,2013-09-21 11:35:00,
2013-09-21 07:36:00,65.4,64.2,29.93,SE,146,2.0,4.0,96,0.00,,---,0.08,VWS V14.01,2013-09-21 11:36:00,
2013-09-21 07:37:00,65.4,64.2,29.94,SSE,149,1.0,2.0,96,0.00,,---,0.08,VWS V14.01,2013-09-21 11:37:00,
2013-09-21 07:38:00,65.5,64.3,29.93,SSE,155,1.0,3.0,96,0.00,,---,0.08,VWS V14.01,2013-09-21 11:38:00,
2013-09-21 07:39:00,65.5,64.3,29.93,South,184,3.0,3.0,96,0.00,,---,0.08,VWS V14.01,2013-09-21 11:39:00,
2013-09-21 07:40:00,65.5,64.3,29.93,SSE,164,2.0,3.0,96,0.00,,---,0.08,VWS V14.01,2013-09-21 11:40:00,
2013-09-21 07:41:00,65.5,64.3,29.93,ESE,122,4.0,4.0,96,0.00,,---,0.08,VWS V14.01,2013-09-21 11:41:00,
2013-09-21 07:42:00,65.5,64.3,29.93,SE,137,4.0,4.0,96,0.00,,---,0.08,VWS V14.01,2013-09-21 11:42:00,
2013-09-21 07:43:00,65.5,64.3,29.93,SE,135,3.0,4.0,96,0.00,,---,0.08,VWS V14.01,2013-09-21 11:43:00,
2013-09-21 07:44:00,65.5,64.3,29.94,South,176,2.0,3.0,96,0.00,,---,0.08,VWS V14.01,2013-09-21 11:44:00,
2013-09-21 07:45:00,65.5,64.3,29.93,South,178,4.0,4.0,96,0.00,,---,0.08,VWS V14.01,2013-09-21 11:45:00,
2013-09-21 07:46:00,65.5,64.3,29.93,ESE,118,3.0,6.0,96,0.00,,---,0.08,VWS V14.01,2013-09-21 11:46:00,
2013-09-21 07:47:00,65.6,64.4,29.93,SSE,156,1.0,7.0,96,0.00,,---,0.08,VWS V14.01,2013-09-21 11:47:00,
2013-09-21 07:48:00,65.6,64.4,29.93,SE,146,2.0,3.0,96,0.00,,---,0.08,VWS V14.01,2013-09-21 11:48:00,
2013-09-21 07:49:00,65.6,64.4,29.93,SE,146,0.0,2.0,96,0.00,,---,0.08,VWS V14.01,2013-09-21 11:49:00,
2013-09-21 07:50:00,65.6,64.4,29.93,SE,130,2.0,2.0,96,0.00,,---,0.08,VWS V14.01,2013-09-21 11:50:00,
2013-09-21 07:51:00,65.6,64.4,29.93,SE,138,5.0,6.0,96,0.00,,---,0.08,VWS V14.01,2013-09-21 11:51:00,
2013-09-21 07:52:00,65.6,64.4,29.93,South,183,3.0,5.0,96,0.00,,---,0.08,VWS V14.01,2013-09-21 11:52:00,
2013-09-21 07:53:00,65.6,64.4,29.93,SE,146,1.0,5.0,96,0.00,,---,0.08,VWS V14.01,2013-09-21 11:53:00,
2013-09-21 07:54:00,65.6,64.4,29.93,SE,142,1.0,4.0,96,0.00,,---,0.08,VWS V14.01,2013-09-21 11:54:00,
2013-09-21 07:55:00,65.7,64.5,29.93,SE,146,0.0,1.0,96,0.00,,---,0.08,VWS V14.01,2013-09-21 11:55:00,
2013-09-21 07:56:00,65.6,64.7,29.93,SSE,150,2.0,5.0,97,0.00,,---,0.08,VWS V14.01,2013-09-21 11:56:00,
2013-09-21 07:57:00,65.7,64.5,29.93,SSW,211,2.0,5.0,96,0.00,,---,0.08,VWS V14.01,2013-09-21 11:57:00,
2013-09-21 07:58:00,65.7,64.5,29.93,SE,141,1.0,4.0,96,0.00,,---,0.08,VWS V14.01,2013-09-21 11:58:00,
2013-09-21 07:59:00,65.7,64.5,29.93,SW,219,1.0,4.0,96,0.00,,---,0.08,VWS V14.01,2013-09-21 11:59:00,
2013-09-21 08:00:00,65.7,64.5,29.93,SSE,165,3.0,4.0,96,0.00,,---,0.08,VWS V14.01,2013-09-21 12:00:00,
2013-09-21 08:01:00,65.7,64.5,29.94,SE,130,5.0,5.0,96,0.00,,---,0.08,VWS V14.01,2013-09-21 12:01:00,
2013-09-21 08:02:00,65.7,64.5,29.93,SSE,159,2.0,5.0,96,0.00,,---,0.08,VWS V14.01,2013-09-21 12:02:00,
2013-09-21 08:03:00,65.8,64.6,29.93,SSE,164,2.0,2.0,96,0.00,,---,0.08,VWS V14.01,2013-09-21 12:03:00,
2013-09-21 08:04:00,65.7,64.5,29.93,SE,137,3.0,3.0,96,0.00,,---,0.08,VWS V14.01,2013-09-21 12:04:00,
2013-09-21 08:05:00,65.8,64.6,29.93,SSE,156,3.0,4.0,96,0.00,,---,0.08,VWS V14.01,2013-09-21 12:05:00,
2013-09-21 08:06:00,65.8,64.6,29.93,ESE,119,1.0,3.0,96,0.00,,---,0.08,VWS V14.01,2013-09-21 12:06:00,
2013-09-21 08:07:00,65.8,64.6,29.93,SE,144,2.0,2.0,96,0.00,,---,0.08,VWS V14.01,2013-09-21 12:07:00,
2013-09-21 08:08:00,65.8,64.6,29.93,East,98,3.0,4.0,96,0.00,,---,0.08,VWS V14.01,2013-09-21 12:08:00,
2013-09-21 08:09:00,65.8,64.6,29.93,SE,146,1.0,5.0,96,0.00,,---,0.08,VWS V14.01,2013-09-21 12:09:00,
2013-09-21 08:10:00,65.9,64.7,29.93,ESE,122,2.0,6.0,96,0.00,,---,0.08,VWS V14.01,2013-09-21 12:10:00,
2013-09-21 08:11:00,65.9,64.7,29.93,ESE,122,1.0,6.0,96,0.00,,---,0.08,VWS V14.01,2013-09-21 12:11:00,
2013-09-21 08:12:00,65.9,64.7,29.93,SSE,157,3.0,3.0,96,0.00,,---,0.08,VWS V14.01,2013-09-21 12:12:00,
2013-09-21 08:13:00,65.9,64.7,29.93,ESE,109,2.0,3.0,96,0.00,,---,0.08,VWS V14.01,2013-09-21 12:13:00,
2013-09-21 08:14:00,65.9,64.7,29.93,SSW,200,1.0,4.0,96,0.00,,---,0.08,VWS V14.01,2013-09-21 12:14:00,
2013-09-21 08:15:00,65.9,64.7,29.93,SE,134,2.0,2.0,96,0.00,,---,0.08,VWS V14.01,2013-09-21 12:15:00,
2013-09-21 08:16:00,66.0,64.8,29.93,SE,128,2.0,2.0,96,0.00,,---,0.08,VWS V14.01,2013-09-21 12:16:00,
2013-09-21 08:17:00,66.0,64.8,29.93,SSE,149,1.0,3.0,96,0.00,,---,0.08,VWS V14.01,2013-09-21 12:17:00,
2013-09-21 08:18:00,65.9,64.7,29.93,ESE,113,2.0,2.0,96,0.00,,---,0.08,VWS V14.01,2013-09-21 12:18:00,
2013-09-21 08:19:00,66.0,64.8,29.93,SE,135,3.0,5.0,96,0.00,,---,0.08,VWS V14.01,2013-09-21 12:19:00,
2013-09-21 08:20:00,66.0,64.8,29.93,ESE,121,3.0,3.0,96,0.00,,---,0.08,VWS V14.01,2013-09-21 12:20:00,
2013-09-21 08:21:00,66.0,64.8,29.93,ESE,117,3.0,3.0,96,0.00,,---,0.08,VWS V14.01,2013-09-21 12:21:00,
2013-09-21 08:22:00,66.0,64.8,29.93,ESE,115,1.0,3.0,96,0.00,,---,0.08,VWS V14.01,2013-09-21 12:22:00,
2013-09-21 08:23:00,66.0,64.8,29.93,ESE,113,1.0,4.0,96,0.00,,---,0.08,VWS V14.01,2013-09-21 12:23:00,
2013-09-21 08:24:00,66.0,64.8,29.93,SE,146,3.0,4.0,96,0.00,,---,0.08,VWS V14.01,2013-09-21 12:24:00,
2013-09-21 08:25:00,66.1,64.9,29.93,SE,137,2.0,3.0,96,0.00,,---,0.08,VWS V14.01,2013-09-21 12:25:00,
2013-09-21 08:26:00,66.1,64.9,29.93,SSW,205,6.0,6.0,96,0.00,,---,0.08,VWS V14.01,2013-09-21 12:26:00,
2013-09-21 08:27:00,66.1,64.9,29.93,SE,128,3.0,6.0,96,0.00,,---,0.08,VWS V14.01,2013-09-21 12:27:00,
2013-09-21 08:28:00,66.1,64.9,29.93,SSE,164,3.0,7.0,96,0.00,,---,0.08,VWS V14.01,2013-09-21 12:28:00,
2013-09-21 08:29:00,66.1,64.9,29.93,SSE,159,3.0,3.0,96,0.00,,---,0.08,VWS V14.01,2013-09-21 12:29:00,
2013-09-21 08:30:00,66.2,65.0,29.93,SE,134,2.0,3.0,96,0.00,,---,0.08,VWS V14.01,2013-09-21 12:30:00,
2013-09-21 08:31:00,66.2,65.0,29.93,SE,133,1.0,3.0,96,0.00,,---,0.08,VWS V14.01,2013-09-21 12:31:00,
2013-09-21 08:32:00,66.2,65.0,29.93,ESE,119,1.0,2.0,96,0.00,,---,0.08,VWS V14.01,2013-09-21 12:32:00,
2013-09-21 08:33:00,66.2,65.0,29.93,SSE,161,6.0,6.0,96,0.00,,---,0.08,VWS V14.01,2013-09-21 12:33:00,
2013-09-21 08:34:00,66.3,65.1,29.93,South,187,1.0,6.0,96,0.00,,---,0.08,VWS V14.01,2013-09-21 12:34:00,
2013-09-21 08:35:00,66.4,65.2,29.93,South,190,2.0,2.0,96,0.00,,---,0.08,VWS V14.01,2013-09-21 12:35:00,
2013-09-21 08:36:00,66.4,65.2,29.93,SW,221,3.0,3.0,96,0.00,,---,0.08,VWS V14.01,2013-09-21 12:36:00,
2013-09-21 08:37:00,66.4,65.2,29.93,SSW,196,1.0,3.0,96,0.00,,---,0.08,VWS V14.01,2013-09-21 12:37:00,
2013-09-21 08:38:00,66.5,65.3,29.93,SSW,205,3.0,3.0,96,0.00,,---,0.08,VWS V14.01,2013-09-21 12:38:00,
2013-09-21 08:39:00,66.4,65.2,29.93,SSW,210,6.0,6.0,96,0.00,,---,0.08,VWS V14.01,2013-09-21 12:39:00,
2013-09-21 08:40:00,66.5,65.3,29.93,SE,126,2.0,5.0,96,0.00,,---,0.08,VWS V14.01,2013-09-21 12:40:00,
2013-09-21 08:41:00,66.5,65.3,29.93,SE,146,4.0,5.0,96,0.00,,---,0.08,VWS V14.01,2013-09-21 12:41:00,
2013-09-21 08:42:00,66.5,65.3,29.93,ESE,121,2.0,8.0,96,0.00,,---,0.08,VWS V14.01,2013-09-21 12:42:00,
2013-09-21 08:43:00,66.5,65.3,29.93,South,187,3.0,4.0,96,0.00,,---,0.08,VWS V14.01,2013-09-21 12:43:00,
2013-09-21 08:44:00,66.5,65.3,29.93,SE,137,6.0,6.0,96,0.00,,---,0.08,VWS V14.01,2013-09-21 12:44:00,
2013-09-21 08:45:00,66.6,65.4,29.93,SE,126,5.0,5.0,96,0.00,,---,0.08,VWS V14.01,2013-09-21 12:45:00,
2013-09-21 08:46:00,66.6,65.4,29.93,SSE,155,6.0,6.0,96,0.00,,---,0.08,VWS V14.01,2013-09-21 12:46:00,
2013-09-21 08:47:00,66.6,65.4,29.93,SSE,168,6.0,7.0,96,0.00,,---,0.08,VWS V14.01,2013-09-21 12:47:00,
2013-09-21 08:48:00,66.6,65.4,29.93,SSE,163,2.0,6.0,96,0.00,,---,0.08,VWS V14.01,2013-09-21 12:48:00,
2013-09-21 08:49:00,66.6,65.4,29.93,SE,142,1.0,2.0,96,0.00,,---,0.08,VWS V14.01,2013-09-21 12:49:00,
2013-09-21 08:50:00,66.7,65.5,29.93,SE,146,2.0,3.0,96,0.00,,---,0.08,VWS V14.01,2013-09-21 12:50:00,
2013-09-21 08:51:00,66.7,65.5,29.93,SE,136,1.0,3.0,96,0.00,,---,0.08,VWS V14.01,2013-09-21 12:51:00,
2013-09-21 08:52:00,66.7,65.5,29.93,SSE,150,5.0,5.0,96,0.00,,---,0.08,VWS V14.01,2013-09-21 12:52:00,
2013-09-21 08:53:00,66.8,65.6,29.93,SSW,192,2.0,5.0,96,0.00,,---,0.08,VWS V14.01,2013-09-21 12:53:00,
2013-09-21 08:54:00,66.8,65.6,29.93,South,176,2.0,2.0,96,0.00,,---,0.08,VWS V14.01,2013-09-21 12:54:00,
2013-09-21 08:55:00,66.8,65.6,29.93,SE,136,1.0,3.0,96,0.00,,---,0.08,VWS V14.01,2013-09-21 12:55:00,
2013-09-21 08:56:00,66.8,65.6,29.93,SE,136,2.0,3.0,96,0.00,,---,0.08,VWS V14.01,2013-09-21 12:56:00,
2013-09-21 08:57:00,66.9,65.7,29.93,SE,140,2.0,4.0,96,0.00,,---,0.08,VWS V14.01,2013-09-21 12:57:00,
2013-09-21 08:58:00,66.9,65.7,29.93,SSE,167,3.0,4.0,96,0.00,,---,0.08,VWS V14.01,2013-09-21 12:58:00,
2013-09-21 08:59:00,66.9,65.7,29.93,ESE,111,0.0,3.0,96,0.00,,---,0.08,VWS V14.01,2013-09-21 12:59:00,
2013-09-21 09:00:00,67.1,65.9,29.93,South,176,1.0,2.0,96,0.00,,---,0.08,VWS V14.01,2013-09-21 13:00:00,
2013-09-21 09:01:00,67.1,65.9,29.93,SSE,167,1.0,2.0,96,0.00,,---,0.08,VWS V14.01,2013-09-21 13:01:00,
2013-09-21 09:02:00,67.1,65.9,29.93,SE,136,3.0,4.0,96,0.00,,---,0.08,VWS V14.01,2013-09-21 13:02:00,
2013-09-21 09:03:00,67.1,65.9,29.93,SE,133,1.0,3.0,96,0.00,,---,0.08,VWS V14.01,2013-09-21 13:03:00,
2013-09-21 09:04:00,67.1,65.9,29.93,SE,133,3.0,4.0,96,0.00,,---,0.08,VWS V14.01,2013-09-21 13:04:00,
2013-09-21 09:05:00,67.1,65.9,29.93,South,173,2.0,2.0,96,0.00,,---,0.08,VWS V14.01,2013-09-21 13:05:00,
2013-09-21 09:06:00,67.2,66.0,29.93,SSE,161,3.0,3.0,96,0.00,,---,0.08,VWS V14.01,2013-09-21 13:06:00,
2013-09-21 09:07:00,67.2,66.0,29.93,SSW,199,1.0,4.0,96,0.00,,---,0.08,VWS V14.01,2013-09-21 13:07:00,
2013-09-21 09:08:00,67.2,66.0,29.93,ESE,109,1.0,4.0,96,0.00,,---,0.08,VWS V14.01,2013-09-21 13:08:00,
2013-09-21 09:09:00,67.3,66.1,29.93,WSW,246,3.0,4.0,96,0.00,,---,0.08,VWS V14.01,2013-09-21 13:09:00,
2013-09-21 09:10:00,67.3,66.1,29.93,SE,140,4.0,4.0,96,0.00,,---,0.08,VWS V14.01,2013-09-21 13:10:00,
2013-09-21 09:11:00,67.3,66.1,29.93,South,176,4.0,5.0,96,0.00,,---,0.08,VWS V14.01,2013-09-21 13:11:00,
2013-09-21 09:12:00,67.3,66.1,29.93,SSE,149,2.0,5.0,96,0.00,,---,0.08,VWS V14.01,2013-09-21 13:12:00,
2013-09-21 09:13:00,67.3,66.1,29.93,SE,145,4.0,4.0,96,0.00,,---,0.08,VWS V14.01,2013-09-21 13:13:00,
2013-09-21 09:14:00,67.3,65.8,29.93,SE,137,3.0,5.0,95,0.00,,---,0.08,VWS V14.01,2013-09-21 13:14:00,
2013-09-21 09:15:00,67.3,66.1,29.93,South,169,2.0,5.0,96,0.00,,---,0.08,VWS V14.01,2013-09-21 13:15:00,
2013-09-21 09:16:00,67.3,66.1,29.93,South,172,1.0,5.0,96,0.00,,---,0.08,VWS V14.01,2013-09-21 13:16:00,
2013-09-21 09:17:00,67.3,65.8,29.94,South,171,1.0,1.0,95,0.00,,---,0.08,VWS V14.01,2013-09-21 13:17:00,
2013-09-21 09:18:00,67.4,66.2,29.94,SSE,157,1.0,1.0,96,0.00,,---,0.08,VWS V14.01,2013-09-21 13:18:00,
2013-09-21 09:19:00,67.4,66.2,29.94,SE,139,2.0,4.0,96,0.00,,---,0.08,VWS V14.01,2013-09-21 13:19:00,
2013-09-21 09:20:00,67.5,66.3,29.94,SSW,202,2.0,2.0,96,0.00,,---,0.08,VWS V14.01,2013-09-21 13:20:00,
2013-09-21 09:21:00,67.5,66.3,29.94,SSW,202,1.0,2.0,96,0.00,,---,0.08,VWS V14.01,2013-09-21 13:21:00,
2013-09-21 09:22:00,67.5,66.3,29.94,SE,128,0.0,1.0,96,0.00,,---,0.08,VWS V14.01,2013-09-21 13:22:00,
2013-09-21 09:23:00,67.6,66.4,29.94,SSW,200,1.0,1.0,96,0.00,,---,0.08,VWS V14.01,2013-09-21 13:23:00,
2013-09-21 09:24:00,67.6,66.4,29.94,SE,137,2.0,2.0,96,0.00,,---,0.08,VWS V14.01,2013-09-21 13:24:00,
2013-09-21 09:25:00,67.6,66.1,29.93,SSE,151,1.0,2.0,95,0.00,,---,0.08,VWS V14.01,2013-09-21 13:25:00,
2013-09-21 09:26:00,67.6,66.1,29.93,SE,146,1.0,2.0,95,0.00,,---,0.08,VWS V14.01,2013-09-21 13:26:00,
2013-09-21 09:27:00,67.6,66.1,29.93,SE,146,0.0,1.0,95,0.00,,---,0.08,VWS V14.01,2013-09-21 13:27:00,
2013-09-21 09:28:00,67.7,66.2,29.93,SE,146,0.0,0.0,95,0.00,,---,0.08,VWS V14.01,2013-09-21 13:28:00,
2013-09-21 09:29:00,67.8,66.6,29.93,SE,141,0.0,0.0,96,0.00,,---,0.08,VWS V14.01,2013-09-21 13:29:00,
2013-09-21 09:30:00,67.8,66.6,29.93,SW,219,1.0,1.0,96,0.00,,---,0.08,VWS V14.01,2013-09-21 13:30:00,
2013-09-21 09:31:00,67.9,66.4,29.93,ESE,114,2.0,2.0,95,0.00,,---,0.08,VWS V14.01,2013-09-21 13:31:00,
2013-09-21 09:32:00,67.9,66.4,29.93,ESE,120,0.0,3.0,95,0.00,,---,0.08,VWS V14.01,2013-09-21 13:32:00,
2013-09-21 09:33:00,67.9,66.4,29.93,ESE,119,1.0,1.0,95,0.00,,---,0.08,VWS V14.01,2013-09-21 13:33:00,
2013-09-21 09:35:00,68.1,66.6,29.93,SE,130,4.0,5.0,95,0.00,,---,0.08,VWS V14.01,2013-09-21 13:35:00,
2013-09-21 09:36:00,68.1,66.6,29.93,East,89,2.0,5.0,95,0.00,,---,0.08,VWS V14.01,2013-09-21 13:36:00,
2013-09-21 09:37:00,68.1,66.6,29.93,SE,141,5.0,5.0,95,0.00,,---,0.08,VWS V14.01,2013-09-21 13:37:00,
2013-09-21 09:38:00,68.1,66.6,29.93,East,80,5.0,6.0,95,0.00,,---,0.08,VWS V14.01,2013-09-21 13:38:00,
2013-09-21 09:39:00,68.1,66.6,29.93,SE,141,4.0,5.0,95,0.00,,---,0.08,VWS V14.01,2013-09-21 13:39:00,
2013-09-21 09:40:00,68.2,66.7,29.93,South,182,3.0,3.0,95,0.00,,---,0.08,VWS V14.01,2013-09-21 13:40:00,
2013-09-21 09:41:00,68.2,66.7,29.93,South,176,2.0,3.0,95,0.00,,---,0.08,VWS V14.01,2013-09-21 13:41:00,
2013-09-21 09:42:00,68.3,66.8,29.93,ESE,111,2.0,3.0,95,0.00,,---,0.08,VWS V14.01,2013-09-21 13:42:00,
2013-09-21 09:43:00,68.3,66.8,29.93,SE,142,2.0,3.0,95,0.00,,---,0.08,VWS V14.01,2013-09-21 13:43:00,
2013-09-21 09:44:00,68.3,66.8,29.93,SSW,197,0.0,2.0,95,0.00,,---,0.08,VWS V14.01,2013-09-21 13:44:00,
2013-09-21 09:45:00,68.5,67.0,29.93,ESE,113,0.0,1.0,95,0.00,,---,0.08,VWS V14.01,2013-09-21 13:45:00,
2013-09-21 09:46:00,68.5,67.0,29.93,ESE,113,0.0,1.0,95,0.00,,---,0.08,VWS V14.01,2013-09-21 13:46:00,
2013-09-21 09:47:00,68.6,67.1,29.93,ESE,113,1.0,1.0,95,0.00,,---,0.08,VWS V14.01,2013-09-21 13:47:00,
2013-09-21 09:48:00,68.6,67.1,29.93,SE,146,2.0,2.0,95,0.00,,---,0.08,VWS V14.01,2013-09-21 13:48:00,
2013-09-21 09:49:00,68.7,67.2,29.93,SE,138,1.0,3.0,95,0.00,,---,0.08,VWS V14.01,2013-09-21 13:49:00,
2013-09-21 09:50:00,68.8,67.0,29.93,SSE,152,2.0,5.0,94,0.00,,---,0.08,VWS V14.01,2013-09-21 13:50:00,
2013-09-21 09:51:00,68.8,67.0,29.93,SSE,148,0.0,5.0,94,0.00,,---,0.08,VWS V14.01,2013-09-21 13:51:00,
2013-09-21 09:52:00,68.9,67.4,29.93,SSE,161,1.0,2.0,95,0.00,,---,0.08,VWS V14.01,2013-09-21 13:52:00,
2013-09-21 09:53:00,68.9,67.1,29.93,SSE,159,3.0,4.0,94,0.00,,---,0.08,VWS V14.01,2013-09-21 13:53:00,
2013-09-21 09:54:00,69.0,67.2,29.93,SSE,155,1.0,3.0,94,0.00,,---,0.08,VWS V14.01,2013-09-21 13:54:00,
2013-09-21 09:55:00,69.1,67.3,29.93,South,169,1.0,1.0,94,0.00,,---,0.08,VWS V14.01,2013-09-21 13:55:00,
2013-09-21 09:56:00,69.1,67.3,29.93,South,173,1.0,2.0,94,0.00,,---,0.08,VWS V14.01,2013-09-21 13:56:00,
2013-09-21 09:57:00,69.2,67.4,29.93,South,187,3.0,4.0,94,0.00,,---,0.08,VWS V14.01,2013-09-21 13:57:00,
2013-09-21 09:58:00,69.1,67.3,29.93,SE,138,2.0,5.0,94,0.00,,---,0.08,VWS V14.01,2013-09-21 13:58:00,
2013-09-21 09:59:00,69.1,67.0,29.93,SSE,159,2.0,4.0,93,0.00,,---,0.08,VWS V14.01,2013-09-21 13:59:00,
2013-09-21 10:00:00,69.2,67.1,29.93,SW,221,2.0,3.0,93,0.00,,---,0.08,VWS V14.01,2013-09-21 14:00:00,
2013-09-21 10:01:00,69.2,67.1,29.93,SSW,211,1.0,4.0,93,0.00,,---,0.08,VWS V14.01,2013-09-21 14:01:00,
2013-09-21 10:02:00,69.2,67.1,29.93,WSW,249,1.0,4.0,93,0.00,,---,0.08,VWS V14.01,2013-09-21 14:02:00,
2013-09-21 10:03:00,69.2,67.1,29.93,SSE,166,0.0,3.0,93,0.00,,---,0.08,VWS V14.01,2013-09-21 14:03:00,
2013-09-21 10:04:00,69.3,67.2,29.93,SE,138,3.0,3.0,93,0.00,,---,0.08,VWS V14.01,2013-09-21 14:04:00,
2013-09-21 10:05:00,69.3,67.2,29.93,NNE,20,2.0,2.0,93,0.00,,---,0.08,VWS V14.01,2013-09-21 14:05:00,
2013-09-21 10:06:00,69.3,67.2,29.93,NNE,17,1.0,2.0,93,0.00,,---,0.08,VWS V14.01,2013-09-21 14:06:00,
2013-09-21 10:07:00,69.4,67.3,29.93,NW,321,1.0,2.0,93,0.00,,---,0.08,VWS V14.01,2013-09-21 14:07:00,
2013-09-21 10:08:00,69.4,67.3,29.93,South,180,4.0,4.0,93,0.00,,---,0.08,VWS V14.01,2013-09-21 14:08:00,
2013-09-21 10:09:00,69.4,67.3,29.93,SW,226,1.0,4.0,93,0.00,,---,0.08,VWS V14.01,2013-09-21 14:09:00,
2013-09-21 10:10:00,69.5,67.4,29.93,SE,128,1.0,1.0,93,0.00,,---,0.08,VWS V14.01,2013-09-21 14:10:00,
2013-09-21 10:11:00,69.5,67.4,29.93,South,172,1.0,1.0,93,0.00,,---,0.08,VWS V14.01,2013-09-21 14:11:00,
2013-09-21 10:12:00,69.6,67.5,29.93,North,355,0.0,1.0,93,0.00,,---,0.08,VWS V14.01,2013-09-21 14:12:00,
2013-09-21 10:13:00,69.7,67.6,29.93,SW,233,2.0,4.0,93,0.00,,---,0.08,VWS V14.01,2013-09-21 14:13:00,
2013-09-21 10:14:00,69.7,67.6,29.93,ESE,113,2.0,3.0,93,0.00,,---,0.08,VWS V14.01,2013-09-21 14:14:00,
2013-09-21 10:15:00,69.7,67.3,29.93,SSE,157,2.0,5.0,92,0.00,,---,0.08,VWS V14.01,2013-09-21 14:15:00,
2013-09-21 10:16:00,69.8,67.4,29.93,SSW,196,1.0,5.0,92,0.00,,---,0.08,VWS V14.01,2013-09-21 14:16:00,
2013-09-21 10:17:00,69.8,67.4,29.93,SSW,195,0.0,1.0,92,0.00,,---,0.08,VWS V14.01,2013-09-21 14:17:00,
2013-09-21 10:18:00,69.9,67.5,29.93,SE,128,0.0,1.0,92,0.00,,---,0.08,VWS V14.01,2013-09-21 14:18:00,
2013-09-21 10:19:00,70.0,67.6,29.93,WNW,286,1.0,2.0,92,0.00,,---,0.08,VWS V14.01,2013-09-21 14:19:00,
2013-09-21 10:20:00,70.1,67.7,29.93,WSW,242,1.0,2.0,92,0.00,,---,0.08,VWS V14.01,2013-09-21 14:20:00,
2013-09-21 10:21:00,70.2,67.8,29.93,South,169,6.0,6.0,92,0.00,,---,0.08,VWS V14.01,2013-09-21 14:21:00,
2013-09-21 10:22:00,70.2,67.4,29.94,SSE,155,1.0,10.0,91,0.00,,---,0.08,VWS V14.01,2013-09-21 14:22:00,
2013-09-21 10:23:00,70.2,67.8,29.93,SSW,211,0.0,2.0,92,0.00,,---,0.08,VWS V14.01,2013-09-21 14:23:00,
2013-09-21 10:24:00,70.3,67.9,29.93,SSW,211,1.0,1.0,92,0.00,,---,0.08,VWS V14.01,2013-09-21 14:24:00,
2013-09-21 10:25:00,70.5,68.1,29.93,SE,132,4.0,7.0,92,0.00,,---,0.08,VWS V14.01,2013-09-21 14:25:00,
2013-09-21 10:26:00,70.5,68.1,29.93,SSW,210,3.0,7.0,92,0.00,,---,0.08,VWS V14.01,2013-09-21 14:26:00,
2013-09-21 10:27:00,70.6,67.8,29.93,ESE,116,3.0,4.0,91,0.00,,---,0.08,VWS V14.01,2013-09-21 14:27:00,
2013-09-21 10:28:00,70.6,67.8,29.93,West,264,6.0,6.0,91,0.00,,---,0.08,VWS V14.01,2013-09-21 14:28:00,
2013-09-21 10:29:00,70.7,67.9,29.93,South,191,2.0,6.0,91,0.00,,---,0.08,VWS V14.01,2013-09-21 14:29:00,
2013-09-21 10:30:00,70.7,67.9,29.93,WNW,287,2.0,6.0,91,0.00,,---,0.08,VWS V14.01,2013-09-21 14:30:00,
2013-09-21 10:31:00,70.7,67.9,29.93,ENE,78,1.0,6.0,91,0.00,,---,0.08,VWS V14.01,2013-09-21 14:31:00,
2013-09-21 10:32:00,70.7,67.9,29.93,WNW,291,3.0,7.0,91,0.00,,---,0.08,VWS V14.01,2013-09-21 14:32:00,
2013-09-21 10:33:00,70.8,67.7,29.93,WSW,248,0.0,3.0,90,0.00,,---,0.08,VWS V14.01,2013-09-21 14:33:00,
2013-09-21 10:34:00,70.8,68.1,29.93,South,179,3.0,4.0,91,0.00,,---,0.08,VWS V14.01,2013-09-21 14:34:00,
2013-09-21 10:35:00,70.9,67.8,29.93,WSW,245,2.0,4.0,90,0.00,,---,0.08,VWS V14.01,2013-09-21 14:35:00,
2013-09-21 10:36:00,70.9,67.8,29.93,South,169,1.0,4.0,90,0.00,,---,0.08,VWS V14.01,2013-09-21 14:36:00,
2013-09-21 10:37:00,70.9,67.8,29.93,SE,128,3.0,6.0,90,0.00,,---,0.08,VWS V14.01,2013-09-21 14:37:00,
2013-09-21 10:38:00,70.9,67.8,29.93,SW,221,4.0,7.0,90,0.00,,---,0.08,VWS V14.01,2013-09-21 14:38:00,
2013-09-21 10:39:00,70.9,67.8,29.93,WSW,245,3.0,7.0,90,0.00,,---,0.08,VWS V14.01,2013-09-21 14:39:00,
2013-09-21 10:40:00,70.9,67.8,29.93,SW,218,2.0,5.0,90,0.00,,---,0.08,VWS V14.01,2013-09-21 14:40:00,
2013-09-21 10:41:00,70.8,67.7,29.93,SE,129,3.0,5.0,90,0.00,,---,0.08,VWS V14.01,2013-09-21 14:41:00,
2013-09-21 10:42:00,70.9,67.8,29.93,SE,134,1.0,3.0,90,0.00,,---,0.08,VWS V14.01,2013-09-21 14:42:00,
2013-09-21 10:43:00,70.9,67.8,29.93,SE,132,0.0,1.0,90,0.00,,---,0.08,VWS V14.01,2013-09-21 14:43:00,
2013-09-21 10:44:00,71.0,67.9,29.93,SW,223,0.0,0.0,90,0.00,,---,0.08,VWS V14.01,2013-09-21 14:44:00,
2013-09-21 10:45:00,71.2,68.1,29.93,SSE,150,1.0,2.0,90,0.00,,---,0.08,VWS V14.01,2013-09-21 14:45:00,
2013-09-21 10:46:00,71.2,68.1,29.93,SSE,152,4.0,4.0,90,0.00,,---,0.08,VWS V14.01,2013-09-21 14:46:00,
2013-09-21 10:47:00,71.2,68.1,29.93,South,175,0.0,4.0,90,0.00,,---,0.08,VWS V14.01,2013-09-21 14:47:00,
2013-09-21 10:48:00,71.3,68.2,29.93,SSE,159,1.0,1.0,90,0.00,,---,0.08,VWS V14.01,2013-09-21 14:48:00,
2013-09-21 10:49:00,71.4,68.3,29.93,WNW,297,3.0,3.0,90,0.00,,---,0.08,VWS V14.01,2013-09-21 14:49:00,
2013-09-21 10:50:00,71.5,68.4,29.93,WNW,284,0.0,1.0,90,0.00,,---,0.08,VWS V14.01,2013-09-21 14:50:00,
2013-09-21 10:51:00,71.6,68.5,29.93,South,179,0.0,1.0,90,0.00,,---,0.08,VWS V14.01,2013-09-21 14:51:00,
2013-09-21 10:52:00,71.6,68.2,29.93,WSW,250,2.0,5.0,89,0.00,,---,0.08,VWS V14.01,2013-09-21 14:52:00,
2013-09-21 10:53:00,71.6,68.5,29.93,SE,126,2.0,2.0,90,0.00,,---,0.08,VWS V14.01,2013-09-21 14:53:00,
2013-09-21 10:54:00,71.6,68.2,29.93,South,182,2.0,2.0,89,0.00,,---,0.08,VWS V14.01,2013-09-21 14:54:00,
2013-09-21 10:55:00,71.7,68.3,29.92,WSW,246,1.0,3.0,89,0.00,,---,0.08,VWS V14.01,2013-09-21 14:55:00,
2013-09-21 10:56:00,71.6,68.2,29.92,WSW,245,0.0,3.0,89,0.00,,---,0.08,VWS V14.01,2013-09-21 14:56:00,
2013-09-21 10:57:00,71.6,68.2,29.92,SSW,192,2.0,2.0,89,0.00,,---,0.08,VWS V14.01,2013-09-21 14:57:00,
2013-09-21 10:58:00,71.6,68.2,29.92,South,176,2.0,4.0,89,0.00,,---,0.08,VWS V14.01,2013-09-21 14:58:00,
2013-09-21 10:59:00,71.6,68.2,29.92,South,186,0.0,2.0,89,0.00,,---,0.08,VWS V14.01,2013-09-21 14:59:00,
2013-09-21 11:00:00,71.6,68.2,29.92,SW,232,1.0,2.0,89,0.00,,---,0.08,VWS V14.01,2013-09-21 15:00:00,
2013-09-21 11:02:00,71.6,68.2,29.92,SW,232,1.0,2.0,89,0.00,,---,0.08,VWS V14.01,2013-09-21 15:02:00,
2013-09-21 11:03:00,71.6,68.2,29.92,South,188,2.0,3.0,89,0.00,,---,0.08,VWS V14.01,2013-09-21 15:03:00,
2013-09-21 11:04:00,71.7,68.3,29.92,ESE,102,2.0,4.0,89,0.00,,---,0.08,VWS V14.01,2013-09-21 15:04:00,
2013-09-21 11:05:00,71.7,68.3,29.92,East,92,1.0,3.0,89,0.00,,---,0.08,VWS V14.01,2013-09-21 15:05:00,
2013-09-21 11:06:00,71.7,68.3,29.92,SSE,153,1.0,2.0,89,0.00,,---,0.08,VWS V14.01,2013-09-21 15:06:00,
2013-09-21 11:07:00,71.7,68.3,29.92,SSE,160,2.0,2.0,89,0.00,,---,0.08,VWS V14.01,2013-09-21 15:07:00,
2013-09-21 11:08:00,71.7,68.3,29.92,SSE,149,2.0,4.0,89,0.00,,---,0.08,VWS V14.01,2013-09-21 15:08:00,
2013-09-21 11:09:00,71.7,68.3,29.92,SE,145,5.0,5.0,89,0.00,,---,0.08,VWS V14.01,2013-09-21 15:09:00,
2013-09-21 11:10:00,71.7,68.0,29.92,SSE,150,1.0,3.0,88,0.00,,---,0.08,VWS V14.01,2013-09-21 15:10:00,
2013-09-21 11:11:00,71.7,68.0,29.92,ESE,117,5.0,5.0,88,0.00,,---,0.08,VWS V14.01,2013-09-21 15:11:00,
2013-09-21 11:12:00,71.6,67.9,29.92,ESE,105,2.0,6.0,88,0.00,,---,0.08,VWS V14.01,2013-09-21 15:12:00,
2013-09-21 11:13:00,71.6,68.2,29.92,WSW,243,2.0,3.0,89,0.00,,---,0.08,VWS V14.01,2013-09-21 15:13:00,
2013-09-21 11:14:00,71.6,67.9,29.92,South,190,2.0,2.0,88,0.00,,---,0.08,VWS V14.01,2013-09-21 15:14:00,
2013-09-21 11:15:00,71.5,67.8,29.92,SSE,157,2.0,3.0,88,0.00,,---,0.08,VWS V14.01,2013-09-21 15:15:00,
2013-09-21 11:16:00,71.5,67.8,29.92,SSE,159,2.0,3.0,88,0.00,,---,0.08,VWS V14.01,2013-09-21 15:16:00,
2013-09-21 11:17:00,71.5,67.8,29.92,SSW,209,4.0,4.0,88,0.00,,---,0.08,VWS V14.01,2013-09-21 15:17:00,
2013-09-21 11:18:00,71.5,68.1,29.92,ESE,105,0.0,4.0,89,0.00,,---,0.08,VWS V14.01,2013-09-21 15:18:00,
2013-09-21 11:19:00,71.6,68.2,29.92,East,101,2.0,4.0,89,0.00,,---,0.08,VWS V14.01,2013-09-21 15:19:00,
2013-09-21 11:20:00,71.6,67.9,29.92,SW,215,4.0,5.0,88,0.00,,---,0.08,VWS V14.01,2013-09-21 15:20:00,
2013-09-21 11:21:00,71.6,67.9,29.92,SSW,199,1.0,5.0,88,0.00,,---,0.08,VWS V14.01,2013-09-21 15:21:00,
2013-09-21 11:22:00,71.6,68.2,29.92,SW,215,0.0,1.0,89,0.00,,---,0.08,VWS V14.01,2013-09-21 15:22:00,
2013-09-21 11:23:00,71.7,68.3,29.92,SW,216,0.0,0.0,89,0.00,,---,0.08,VWS V14.01,2013-09-21 15:23:00,
2013-09-21 11:24:00,71.8,68.4,29.91,SSW,205,3.0,3.0,89,0.00,,---,0.08,VWS V14.01,2013-09-21 15:24:00,
2013-09-21 11:25:00,71.9,68.2,29.92,West,275,1.0,1.0,88,0.00,,---,0.08,VWS V14.01,2013-09-21 15:25:00,
2013-09-21 11:26:00,71.9,68.2,29.92,WSW,246,1.0,3.0,88,0.00,,---,0.08,VWS V14.01,2013-09-21 15:26:00,
2013-09-21 11:27:00,71.9,68.2,29.91,West,269,1.0,3.0,88,0.00,,---,0.08,VWS V14.01,2013-09-21 15:27:00,
2013-09-21 11:28:00,71.9,68.2,29.91,SSW,206,0.0,3.0,88,0.00,,---,0.08,VWS V14.01,2013-09-21 15:28:00,
2013-09-21 11:29:00,72.0,68.3,29.91,South,188,2.0,6.0,88,0.00,,---,0.08,VWS V14.01,2013-09-21 15:29:00,
2013-09-21 11:30:00,72.0,68.3,29.91,West,271,2.0,2.0,88,0.00,,---,0.08,VWS V14.01,2013-09-21 15:30:00,
2013-09-21 11:31:00,72.1,68.3,29.91,WSW,252,0.0,2.0,88,0.00,,---,0.08,VWS V14.01,2013-09-21 15:31:00,
2013-09-21 11:32:00,72.2,68.4,29.91,South,172,3.0,3.0,88,0.00,,---,0.08,VWS V14.01,2013-09-21 15:32:00,
2013-09-21 11:33:00,72.3,68.6,29.91,SE,125,2.0,3.0,88,0.00,,---,0.08,VWS V14.01,2013-09-21 15:33:00,
2013-09-21 11:34:00,72.3,68.6,29.91,SW,219,0.0,2.0,88,0.00,,---,0.08,VWS V14.01,2013-09-21 15:34:00,
2013-09-21 11:35:00,72.4,68.7,29.91,SSW,205,1.0,3.0,88,0.00,,---,0.08,VWS V14.01,2013-09-21 15:35:00,
2013-09-21 11:36:00,72.4,68.7,29.91,SE,132,3.0,4.0,88,0.00,,---,0.08,VWS V14.01,2013-09-21 15:36:00,
2013-09-21 11:37:00,72.4,68.3,29.91,SE,135,5.0,5.0,87,0.00,,---,0.08,VWS V14.01,2013-09-21 15:37:00,
2013-09-21 11:38:00,72.5,68.4,29.91,SSE,159,4.0,6.0,87,0.00,,---,0.08,VWS V14.01,2013-09-21 15:38:00,
2013-09-21 11:39:00,72.5,68.4,29.91,SSE,150,5.0,5.0,87,0.00,,---,0.08,VWS V14.01,2013-09-21 15:39:00,
2013-09-21 11:40:00,72.5,68.4,29.91,ESE,108,3.0,4.0,87,0.00,,---,0.08,VWS V14.01,2013-09-21 15:40:00,
2013-09-21 11:41:00,72.5,68.4,29.91,SSE,150,3.0,4.0,87,0.00,,---,0.08,VWS V14.01,2013-09-21 15:41:00,
2013-09-21 11:42:00,72.6,68.5,29.90,East,84,1.0,3.0,87,0.00,,---,0.08,VWS V14.01,2013-09-21 15:42:00,
2013-09-21 11:43:00,72.6,68.5,29.90,SSE,163,2.0,2.0,87,0.00,,---,0.08,VWS V14.01,2013-09-21 15:43:00,
2013-09-21 11:44:00,72.7,68.6,29.90,SSE,167,7.0,7.0,87,0.00,,---,0.08,VWS V14.01,2013-09-21 15:44:00,
2013-09-21 11:45:00,72.8,68.4,29.90,East,87,1.0,3.0,86,0.00,,---,0.08,VWS V14.01,2013-09-21 15:45:00,
2013-09-21 11:46:00,72.8,68.4,29.90,SSE,154,1.0,3.0,86,0.00,,---,0.08,VWS V14.01,2013-09-21 15:46:00,
2013-09-21 11:47:00,72.9,68.5,29.90,WNW,295,2.0,2.0,86,0.00,,---,0.08,VWS V14.01,2013-09-21 15:47:00,
2013-09-21 11:48:00,72.9,68.5,29.90,WSW,252,2.0,3.0,86,0.00,,---,0.08,VWS V14.01,2013-09-21 15:48:00,
2013-09-21 11:49:00,73.0,68.6,29.90,South,178,1.0,2.0,86,0.00,,---,0.08,VWS V14.01,2013-09-21 15:49:00,
2013-09-21 11:50:00,73.1,68.7,29.90,ENE,77,1.0,3.0,86,0.00,,---,0.08,VWS V14.01,2013-09-21 15:50:00,
2013-09-21 11:51:00,73.1,68.7,29.90,ENE,76,0.0,3.0,86,0.00,,---,0.08,VWS V14.01,2013-09-21 15:51:00,
2013-09-21 11:52:00,73.2,68.8,29.90,West,273,1.0,1.0,86,0.00,,---,0.08,VWS V14.01,2013-09-21 15:52:00,
2013-09-21 11:53:00,73.3,68.9,29.90,WSW,250,1.0,2.0,86,0.00,,---,0.08,VWS V14.01,2013-09-21 15:53:00,
2013-09-21 11:54:00,73.5,69.1,29.90,West,280,1.0,2.0,86,0.00,,---,0.08,VWS V14.01,2013-09-21 15:54:00,
2013-09-21 11:55:00,73.5,68.7,29.90,SW,217,7.0,7.0,85,0.00,,---,0.08,VWS V14.01,2013-09-21 15:55:00,
2013-09-21 11:56:00,73.5,68.4,29.90,SSW,208,5.0,7.0,84,0.00,,---,0.08,VWS V14.01,2013-09-21 15:56:00,
2013-09-21 11:57:00,73.5,68.7,29.90,West,280,2.0,5.0,85,0.00,,---,0.08,VWS V14.01,2013-09-21 15:57:00,
2013-09-21 11:58:00,73.4,68.3,29.90,WSW,242,2.0,3.0,84,0.00,,---,0.08,VWS V14.01,2013-09-21 15:58:00,
2013-09-21 11:59:00,73.5,68.7,29.90,WSW,242,6.0,6.0,85,0.00,,---,0.08,VWS V14.01,2013-09-21 15:59:00,
2013-09-21 12:00:00,73.4,68.3,29.89,South,169,2.0,3.0,84,0.00,,---,0.08,VWS V14.01,2013-09-21 16:00:00,
2013-09-21 12:01:00,73.4,68.3,29.89,WSW,246,3.0,3.0,84,0.00,,---,0.08,VWS V14.01,2013-09-21 16:01:00,
2013-09-21 12:02:00,73.5,68.7,29.90,West,263,2.0,4.0,85,0.00,,---,0.08,VWS V14.01,2013-09-21 16:02:00,
2013-09-21 12:03:00,73.5,68.7,29.90,WSW,254,1.0,5.0,85,0.00,,---,0.08,VWS V14.01,2013-09-21 16:03:00,
2013-09-21 12:04:00,73.6,68.5,29.89,WSW,245,3.0,3.0,84,0.00,,---,0.08,VWS V14.01,2013-09-21 16:04:00,
2013-09-21 12:05:00,73.7,68.9,29.89,West,276,4.0,4.0,85,0.00,,---,0.08,VWS V14.01,2013-09-21 16:05:00,
2013-09-21 12:06:00,73.8,69.0,29.89,SE,129,1.0,4.0,85,0.00,,---,0.08,VWS V14.01,2013-09-21 16:06:00,
2013-09-21 12:07:00,74.0,69.2,29.89,SW,232,0.0,2.0,85,0.00,,---,0.08,VWS V14.01,2013-09-21 16:07:00,
2013-09-21 12:08:00,74.2,69.1,29.89,WNW,286,2.0,5.0,84,0.00,,---,0.08,VWS V14.01,2013-09-21 16:08:00,
2013-09-21 12:09:00,74.4,69.2,29.89,WSW,245,1.0,2.0,84,0.00,,---,0.08,VWS V14.01,2013-09-21 16:09:00,
2013-09-21 12:10:00,74.7,69.2,29.89,WSW,245,0.0,1.0,83,0.00,,---,0.08,VWS V14.01,2013-09-21 16:10:00,
2013-09-21 12:11:00,74.8,69.3,29.89,WSW,250,3.0,3.0,83,0.00,,---,0.08,VWS V14.01,2013-09-21 16:11:00,
2013-09-21 12:12:00,75.0,69.1,29.89,WSW,242,1.0,4.0,82,0.00,,---,0.08,VWS V14.01,2013-09-21 16:12:00,
2013-09-21 12:13:00,75.0,69.1,29.89,WNW,298,1.0,4.0,82,0.00,,---,0.08,VWS V14.01,2013-09-21 16:13:00,
2013-09-21 12:14:00,75.1,69.2,29.89,ESE,122,2.0,2.0,82,0.00,,---,0.08,VWS V14.01,2013-09-21 16:14:00,
2013-09-21 12:15:00,75.3,69.4,29.89,West,281,0.0,1.0,82,0.00,,---,0.08,VWS V14.01,2013-09-21 16:15:00,
2013-09-21 12:16:00,75.3,69.4,29.89,West,265,2.0,2.0,82,0.00,,---,0.08,VWS V14.01,2013-09-21 16:16:00,
2013-09-21 12:17:00,75.5,69.3,29.89,WSW,240,1.0,3.0,81,0.00,,---,0.08,VWS V14.01,2013-09-21 16:17:00,
2013-09-21 12:18:00,75.6,69.7,29.89,WNW,291,0.0,1.0,82,0.00,,---,0.08,VWS V14.01,2013-09-21 16:18:00,
2013-09-21 12:19:00,75.7,69.5,29.89,SE,144,2.0,2.0,81,0.00,,---,0.08,VWS V14.01,2013-09-21 16:19:00,
2013-09-21 12:20:00,75.9,70.0,29.89,NNW,331,0.0,1.0,82,0.00,,---,0.08,VWS V14.01,2013-09-21 16:20:00,
2013-09-21 12:21:00,76.0,69.8,29.89,NNW,331,0.0,1.0,81,0.00,,---,0.08,VWS V14.01,2013-09-21 16:21:00,
2013-09-21 12:22:00,76.2,69.9,29.89,South,182,6.0,6.0,81,0.00,,---,0.08,VWS V14.01,2013-09-21 16:22:00,
2013-09-21 12:23:00,76.3,69.7,29.89,South,175,1.0,6.0,80,0.00,,---,0.08,VWS V14.01,2013-09-21 16:23:00,
2013-09-21 12:24:00,76.4,69.8,29.89,SSE,167,1.0,2.0,80,0.00,,---,0.08,VWS V14.01,2013-09-21 16:24:00,
2013-09-21 12:25:00,76.6,70.0,29.89,SSE,161,3.0,4.0,80,0.00,,---,0.08,VWS V14.01,2013-09-21 16:25:00,
2013-09-21 12:26:00,76.7,70.1,29.89,ESE,111,1.0,4.0,80,0.00,,---,0.08,VWS V14.01,2013-09-21 16:26:00,
2013-09-21 12:27:00,76.8,70.2,29.89,East,96,8.0,8.0,80,0.00,,---,0.08,VWS V14.01,2013-09-21 16:27:00,
2013-09-21 12:28:00,76.9,69.9,29.88,South,169,3.0,8.0,79,0.00,,---,0.08,VWS V14.01,2013-09-21 16:28:00,
2013-09-21 12:29:00,77.0,70.0,29.89,SSE,164,4.0,5.0,79,0.00,,---,0.08,VWS V14.01,2013-09-21 16:29:00,
2013-09-21 12:30:00,77.0,69.6,29.89,South,169,5.0,5.0,78,0.00,,---,0.08,VWS V14.01,2013-09-21 16:30:00,
2013-09-21 12:31:00,77.0,69.6,29.89,SE,138,5.0,5.0,78,0.00,,---,0.08,VWS V14.01,2013-09-21 16:31:00,
2013-09-21 12:32:00,76.9,69.5,29.88,SSW,194,5.0,5.0,78,0.00,,---,0.08,VWS V14.01,2013-09-21 16:32:00,
2013-09-21 12:33:00,76.8,69.4,29.88,SW,215,2.0,5.0,78,0.00,,---,0.08,VWS V14.01,2013-09-21 16:33:00,
2013-09-21 12:34:00,76.8,69.8,29.88,SSE,161,4.0,4.0,79,0.00,,---,0.08,VWS V14.01,2013-09-21 16:34:00,
2013-09-21 12:35:00,76.7,69.7,29.88,East,90,3.0,5.0,79,0.00,,---,0.08,VWS V14.01,2013-09-21 16:35:00,
2013-09-21 12:36:00,76.7,69.7,29.88,ESE,119,4.0,5.0,79,0.00,,---,0.08,VWS V14.01,2013-09-21 16:36:00,
2013-09-21 12:37:00,76.6,70.0,29.88,ENE,61,0.0,4.0,80,0.00,,---,0.08,VWS V14.01,2013-09-21 16:37:00,
2013-09-21 12:38:00,76.6,70.0,29.88,East,98,3.0,3.0,80,0.00,,---,0.08,VWS V14.01,2013-09-21 16:38:00,
2013-09-21 12:39:00,76.5,69.9,29.88,ENE,74,2.0,4.0,80,0.00,,---,0.08,VWS V14.01,2013-09-21 16:39:00,
2013-09-21 12:40:00,76.4,69.8,29.88,SSW,210,1.0,2.0,80,0.00,,---,0.08,VWS V14.01,2013-09-21 16:40:00,
2013-09-21 12:41:00,76.4,69.8,29.88,SSE,167,2.0,2.0,80,0.00,,---,0.08,VWS V14.01,2013-09-21 16:41:00,
2013-09-21 12:42:00,76.3,70.1,29.88,SE,133,0.0,3.0,81,0.00,,---,0.08,VWS V14.01,2013-09-21 16:42:00,
2013-09-21 12:43:00,76.3,69.7,29.88,SW,229,2.0,3.0,80,0.00,,---,0.08,VWS V14.01,2013-09-21 16:43:00,
2013-09-21 12:44:00,76.3,69.7,29.88,SW,233,3.0,4.0,80,0.00,,---,0.08,VWS V14.01,2013-09-21 16:44:00,
2013-09-21 12:45:00,76.2,69.6,29.88,SSW,206,0.0,2.0,80,0.00,,---,0.08,VWS V14.01,2013-09-21 16:45:00,
2013-09-21 12:46:00,76.2,69.6,29.88,SSW,200,0.0,2.0,80,0.00,,---,0.08,VWS V14.01,2013-09-21 16:46:00,
2013-09-21 12:47:00,76.2,69.6,29.88,SSE,164,5.0,5.0,80,0.00,,---,0.08,VWS V14.01,2013-09-21 16:47:00,
2013-09-21 12:48:00,76.3,69.7,29.88,SE,136,2.0,7.0,80,0.00,,---,0.08,VWS V14.01,2013-09-21 16:48:00,
2013-09-21 12:49:00,76.3,69.7,29.88,ENE,65,2.0,3.0,80,0.00,,---,0.08,VWS V14.01,2013-09-21 16:49:00,
2013-09-21 12:50:00,76.4,69.8,29.88,ENE,74,3.0,3.0,80,0.00,,---,0.08,VWS V14.01,2013-09-21 16:50:00,
2013-09-21 12:51:00,76.4,69.8,29.88,East,100,2.0,3.0,80,0.00,,---,0.08,VWS V14.01,2013-09-21 16:51:00,
2013-09-21 12:52:00,76.5,70.2,29.88,East,96,0.0,2.0,81,0.00,,---,0.08,VWS V14.01,2013-09-21 16:52:00,
2013-09-21 12:53:00,76.5,70.2,29.88,East,101,1.0,5.0,81,0.00,,---,0.08,VWS V14.01,2013-09-21 16:53:00,
2013-09-21 12:54:00,76.6,70.7,29.88,SSW,195,1.0,1.0,82,0.00,,---,0.08,VWS V14.01,2013-09-21 16:54:00,
2013-09-21 12:55:00,76.7,70.1,29.88,WSW,248,3.0,4.0,80,0.00,,---,0.08,VWS V14.01,2013-09-21 16:55:00,
2013-09-21 12:56:00,76.7,70.1,29.88,WSW,238,4.0,5.0,80,0.00,,---,0.08,VWS V14.01,2013-09-21 16:56:00,
2013-09-21 12:57:00,76.7,69.7,29.88,SE,141,0.0,4.0,79,0.00,,---,0.08,VWS V14.01,2013-09-21 16:57:00,
2013-09-21 12:58:00,76.7,70.1,29.88,South,169,3.0,3.0,80,0.00,,---,0.08,VWS V14.01,2013-09-21 16:58:00,
2013-09-21 12:59:00,76.8,70.2,29.88,ESE,123,3.0,5.0,80,0.00,,---,0.08,VWS V14.01,2013-09-21 16:59:00,
2013-09-21 13:00:00,76.9,70.3,29.88,ESE,105,4.0,7.0,80,0.00,,---,0.08,VWS V14.01,2013-09-21 17:00:00,
2013-09-21 13:01:00,76.8,70.2,29.88,SSW,206,1.0,7.0,80,0.00,,---,0.08,VWS V14.01,2013-09-21 17:01:00,
2013-09-21 13:02:00,76.9,70.3,29.88,NNW,340,0.0,1.0,80,0.00,,---,0.08,VWS V14.01,2013-09-21 17:02:00,
2013-09-21 13:03:00,76.9,70.3,29.88,SE,143,2.0,2.0,80,0.00,,---,0.08,VWS V14.01,2013-09-21 17:03:00,
2013-09-21 13:04:00,77.0,70.4,29.87,East,82,0.0,3.0,80,0.00,,---,0.08,VWS V14.01,2013-09-21 17:04:00,
2013-09-21 13:05:00,77.2,70.6,29.87,SSW,206,2.0,5.0,80,0.00,,---,0.08,VWS V14.01,2013-09-21 17:05:00,
2013-09-21 13:06:00,77.2,70.6,29.87,SSW,206,4.0,5.0,80,0.00,,---,0.08,VWS V14.01,2013-09-21 17:06:00,
2013-09-21 13:07:00,77.3,70.3,29.87,SSE,148,3.0,4.0,79,0.00,,---,0.08,VWS V14.01,2013-09-21 17:07:00,
2013-09-21 13:08:00,77.4,70.4,29.87,South,179,2.0,4.0,79,0.00,,---,0.08,VWS V14.01,2013-09-21 17:08:00,
2013-09-21 13:09:00,77.5,70.5,29.87,SSE,160,2.0,4.0,79,0.00,,---,0.08,VWS V14.01,2013-09-21 17:09:00,
2013-09-21 13:10:00,77.7,70.7,29.87,West,275,2.0,2.0,79,0.00,,---,0.08,VWS V14.01,2013-09-21 17:10:00,
2013-09-21 13:11:00,77.7,70.7,29.87,West,275,0.0,2.0,79,0.00,,---,0.08,VWS V14.01,2013-09-21 17:11:00,
2013-09-21 13:12:00,77.9,70.9,29.87,SSE,155,2.0,2.0,79,0.00,,---,0.08,VWS V14.01,2013-09-21 17:12:00,
2013-09-21 13:13:00,78.1,70.7,29.87,SW,221,3.0,3.0,78,0.00,,---,0.08,VWS V14.01,2013-09-21 17:13:00,
2013-09-21 13:14:00,78.1,70.7,29.87,SW,234,0.0,3.0,78,0.00,,---,0.08,VWS V14.01,2013-09-21 17:14:00,
2013-09-21 13:15:00,78.3,70.5,29.87,East,86,2.0,3.0,77,0.00,,---,0.08,VWS V14.01,2013-09-21 17:15:00,
2013-09-21 13:16:00,78.3,70.5,29.87,East,91,0.0,3.0,77,0.00,,---,0.08,VWS V14.01,2013-09-21 17:16:00,
2013-09-21 13:17:00,78.3,70.5,29.87,South,173,4.0,6.0,77,0.00,,---,0.08,VWS V14.01,2013-09-21 17:17:00,
2013-09-21 13:18:00,78.3,70.5,29.87,South,187,4.0,4.0,77,0.00,,---,0.08,VWS V14.01,2013-09-21 17:18:00,
2013-09-21 13:19:00,78.2,70.4,29.87,SSE,156,2.0,6.0,77,0.00,,---,0.08,VWS V14.01,2013-09-21 17:19:00,
2013-09-21 13:20:00,78.1,70.3,29.87,SSE,165,6.0,6.0,77,0.00,,---,0.08,VWS V14.01,2013-09-21 17:20:00,
2013-09-21 13:21:00,77.9,70.1,29.87,ESE,119,5.0,6.0,77,0.00,,---,0.08,VWS V14.01,2013-09-21 17:21:00,
2013-09-21 13:22:00,77.7,69.9,29.86,ESE,115,3.0,5.0,77,0.00,,---,0.08,VWS V14.01,2013-09-21 17:22:00,
2013-09-21 13:23:00,77.6,70.2,29.86,SSE,167,2.0,3.0,78,0.00,,---,0.08,VWS V14.01,2013-09-21 17:23:00,
2013-09-21 13:24:00,77.5,70.5,29.86,SW,223,2.0,2.0,79,0.00,,---,0.08,VWS V14.01,2013-09-21 17:24:00,
2013-09-21 13:25:00,77.5,70.5,29.86,South,172,3.0,6.0,79,0.00,,---,0.08,VWS V14.01,2013-09-21 17:25:00,
2013-09-21 13:26:00,77.4,70.0,29.86,SSW,213,8.0,8.0,78,0.00,,---,0.08,VWS V14.01,2013-09-21 17:26:00,
2013-09-21 13:27:00,77.5,70.5,29.86,WNW,293,1.0,8.0,79,0.00,,---,0.08,VWS V14.01,2013-09-21 17:27:00,
2013-09-21 13:28:00,77.6,70.6,29.86,South,179,7.0,7.0,79,0.00,,---,0.08,VWS V14.01,2013-09-21 17:28:00,
2013-09-21 13:29:00,77.6,70.2,29.86,WSW,241,5.0,7.0,78,0.00,,---,0.08,VWS V14.01,2013-09-21 17:29:00,
2013-09-21 13:30:00,77.6,70.6,29.86,East,84,2.0,5.0,79,0.00,,---,0.08,VWS V14.01,2013-09-21 17:30:00,
2013-09-21 13:31:00,77.6,70.2,29.86,ESE,111,4.0,8.0,78,0.00,,---,0.08,VWS V14.01,2013-09-21 17:31:00,
2013-09-21 13:32:00,77.5,70.1,29.86,South,173,5.0,8.0,78,0.00,,---,0.08,VWS V14.01,2013-09-21 17:32:00,
2013-09-21 13:33:00,77.4,70.0,29.86,SSW,194,3.0,7.0,78,0.00,,---,0.08,VWS V14.01,2013-09-21 17:33:00,
2013-09-21 13:34:00,77.4,70.4,29.86,ESE,115,3.0,5.0,79,0.00,,---,0.08,VWS V14.01,2013-09-21 17:34:00,
2013-09-21 13:35:00,77.4,70.4,29.85,SE,133,2.0,3.0,79,0.00,,---,0.08,VWS V14.01,2013-09-21 17:35:00,
2013-09-21 13:36:00,77.3,70.3,29.85,East,98,3.0,3.0,79,0.00,,---,0.08,VWS V14.01,2013-09-21 17:36:00,
2013-09-21 13:37:00,77.2,70.2,29.85,ESE,121,3.0,4.0,79,0.00,,---,0.08,VWS V14.01,2013-09-21 17:37:00,
2013-09-21 13:38:00,77.2,70.2,29.85,East,99,6.0,7.0,79,0.00,,---,0.08,VWS V14.01,2013-09-21 17:38:00,
2013-09-21 13:39:00,77.1,70.1,29.85,SSE,163,4.0,7.0,79,0.00,,---,0.08,VWS V14.01,2013-09-21 17:39:00,
2013-09-21 13:40:00,77.0,70.4,29.85,NNE,30,0.0,2.0,80,0.00,,---,0.08,VWS V14.01,2013-09-21 17:40:00,
2013-09-21 13:41:00,77.0,70.4,29.85,East,98,5.0,5.0,80,0.00,,---,0.08,VWS V14.01,2013-09-21 17:41:00,
2013-09-21 13:42:00,77.0,70.4,29.85,ESE,115,4.0,5.0,80,0.00,,---,0.08,VWS V14.01,2013-09-21 17:42:00,
2013-09-21 13:43:00,77.0,70.4,29.85,SE,138,2.0,4.0,80,0.00,,---,0.08,VWS V14.01,2013-09-21 17:43:00,
2013-09-21 13:44:00,77.1,70.5,29.85,West,274,2.0,3.0,80,0.00,,---,0.08,VWS V14.01,2013-09-21 17:44:00,
2013-09-21 13:45:00,77.3,70.7,29.85,SSE,159,4.0,4.0,80,0.00,,---,0.08,VWS V14.01,2013-09-21 17:45:00,
2013-09-21 13:46:00,77.4,70.8,29.85,SE,130,4.0,4.0,80,0.00,,---,0.08,VWS V14.01,2013-09-21 17:46:00,
2013-09-21 13:48:00,77.8,71.1,29.85,SE,136,3.0,3.0,80,0.00,,---,0.08,VWS V14.01,2013-09-21 17:48:00,
2013-09-21 13:49:00,78.0,71.3,29.85,East,96,2.0,3.0,80,0.00,,---,0.08,VWS V14.01,2013-09-21 17:49:00,
2013-09-21 13:50:00,78.4,71.3,29.84,WSW,244,3.0,3.0,79,0.00,,---,0.08,VWS V14.01,2013-09-21 17:50:00,
2013-09-21 13:51:00,78.6,71.6,29.84,NW,306,0.0,3.0,79,0.00,,---,0.08,VWS V14.01,2013-09-21 17:51:00,
2013-09-21 13:52:00,78.8,72.1,29.84,SSE,148,1.0,3.0,80,0.00,,---,0.08,VWS V14.01,2013-09-21 17:52:00,
2013-09-21 13:53:00,79.0,71.2,29.84,ESE,109,2.0,5.0,77,0.00,,---,0.08,VWS V14.01,2013-09-21 17:53:00,
2013-09-21 13:54:00,79.2,71.4,29.84,East,84,2.0,2.0,77,0.00,,---,0.08,VWS V14.01,2013-09-21 17:54:00,
2013-09-21 13:55:00,79.5,71.7,29.84,SE,135,3.0,3.0,77,0.00,,---,0.08,VWS V14.01,2013-09-21 17:55:00,
2013-09-21 13:56:00,79.6,71.4,29.84,South,186,4.0,5.0,76,0.00,,---,0.08,VWS V14.01,2013-09-21 17:56:00,
2013-09-21 13:57:00,79.7,71.1,29.84,SE,141,3.0,5.0,75,0.00,,---,0.08,VWS V14.01,2013-09-21 17:57:00,
2013-09-21 13:58:00,79.7,71.1,29.84,SE,138,0.0,3.0,75,0.00,,---,0.08,VWS V14.01,2013-09-21 17:58:00,
2013-09-21 13:59:00,79.7,71.1,29.84,SSE,160,1.0,5.0,75,0.00,,---,0.08,VWS V14.01,2013-09-21 17:59:00,
2013-09-21 14:00:00,79.8,70.8,29.84,South,171,2.0,3.0,74,0.00,,---,0.08,VWS V14.01,2013-09-21 18:00:00,
2013-09-21 14:01:00,79.8,70.8,29.84,SSE,164,3.0,4.0,74,0.00,,---,0.08,VWS V14.01,2013-09-21 18:01:00,
2013-09-21 14:02:00,79.7,70.7,29.84,WSW,256,4.0,6.0,74,0.00,,---,0.08,VWS V14.01,2013-09-21 18:02:00,
2013-09-21 14:03:00,79.5,70.5,29.84,SSW,203,3.0,4.0,74,0.00,,---,0.08,VWS V14.01,2013-09-21 18:03:00,
2013-09-21 14:04:00,79.4,70.8,29.84,WNW,291,3.0,3.0,75,0.00,,---,0.08,VWS V14.01,2013-09-21 18:04:00,
2013-09-21 14:05:00,79.4,71.2,29.84,NW,307,0.0,1.0,76,0.00,,---,0.08,VWS V14.01,2013-09-21 18:05:00,
2013-09-21 14:06:00,79.4,71.2,29.84,South,176,7.0,7.0,76,0.00,,---,0.08,VWS V14.01,2013-09-21 18:06:00,
2013-09-21 14:07:00,79.4,70.8,29.84,South,171,2.0,8.0,75,0.00,,---,0.08,VWS V14.01,2013-09-21 18:07:00,
2013-09-21 14:08:00,79.3,70.7,29.84,ESE,119,3.0,3.0,75,0.00,,---,0.08,VWS V14.01,2013-09-21 18:08:00,
2013-09-21 14:09:00,79.3,70.7,29.84,West,261,3.0,4.0,75,0.00,,---,0.08,VWS V14.01,2013-09-21 18:09:00,
2013-09-21 14:10:00,79.1,70.5,29.84,SSE,156,1.0,3.0,75,0.00,,---,0.08,VWS V14.01,2013-09-21 18:10:00,
2013-09-21 14:11:00,79.1,70.9,29.84,SE,128,2.0,3.0,76,0.00,,---,0.08,VWS V14.01,2013-09-21 18:11:00,
2013-09-21 14:12:00,79.2,71.0,29.83,SW,225,2.0,2.0,76,0.00,,---,0.08,VWS V14.01,2013-09-21 18:12:00,
2013-09-21 14:13:00,79.2,71.0,29.83,SSE,165,5.0,5.0,76,0.00,,---,0.08,VWS V14.01,2013-09-21 18:13:00,
2013-09-21 14:14:00,79.2,71.0,29.83,SE,128,2.0,5.0,76,0.00,,---,0.08,VWS V14.01,2013-09-21 18:14:00,
2013-09-21 14:15:00,79.3,70.7,29.83,SSE,159,3.0,5.0,75,0.00,,---,0.08,VWS V14.01,2013-09-21 18:15:00,
2013-09-21 14:16:00,79.2,70.6,29.83,South,190,3.0,8.0,75,0.00,,---,0.08,VWS V14.01,2013-09-21 18:16:00,
2013-09-21 14:17:00,79.1,70.5,29.83,South,176,1.0,4.0,75,0.00,,---,0.08,VWS V14.01,2013-09-21 18:17:00,
2013-09-21 14:18:00,79.0,70.4,29.83,SSE,157,3.0,6.0,75,0.00,,---,0.08,VWS V14.01,2013-09-21 18:18:00,
2013-09-21 14:19:00,78.9,70.3,29.83,SE,143,3.0,5.0,75,0.00,,---,0.08,VWS V14.01,2013-09-21 18:19:00,
2013-09-21 14:20:00,78.8,70.2,29.83,SSW,203,4.0,6.0,75,0.00,,---,0.08,VWS V14.01,2013-09-21 18:20:00,
2013-09-21 14:21:00,78.6,70.0,29.83,SSE,159,1.0,6.0,75,0.00,,---,0.08,VWS V14.01,2013-09-21 18:21:00,
2013-09-21 14:22:00,78.5,70.3,29.83,SE,144,1.0,2.0,76,0.00,,---,0.08,VWS V14.01,2013-09-21 18:22:00,
2013-09-21 14:23:00,78.5,70.7,29.83,SW,236,1.0,3.0,77,0.00,,---,0.08,VWS V14.01,2013-09-21 18:23:00,
2013-09-21 14:24:00,78.4,70.6,29.83,SSE,150,2.0,5.0,77,0.00,,---,0.08,VWS V14.01,2013-09-21 18:24:00,
2013-09-21 14:25:00,78.4,70.6,29.83,SE,138,1.0,3.0,77,0.00,,---,0.08,VWS V14.01,2013-09-21 18:25:00,
2013-09-21 14:26:00,78.4,70.6,29.83,ESE,111,3.0,3.0,77,0.00,,---,0.08,VWS V14.01,2013-09-21 18:26:00,
2013-09-21 14:27:00,78.4,70.2,29.83,SSE,163,3.0,5.0,76,0.00,,---,0.08,VWS V14.01,2013-09-21 18:27:00,
2013-09-21 14:28:00,78.3,70.5,29.83,SE,138,4.0,4.0,77,0.00,,---,0.08,VWS V14.01,2013-09-21 18:28:00,
2013-09-21 14:29:00,78.3,70.1,29.83,South,184,4.0,10.0,76,0.00,,---,0.08,VWS V14.01,2013-09-21 18:29:00,
2013-09-21 14:30:00,78.1,70.3,29.83,East,101,3.0,5.0,77,0.00,,---,0.08,VWS V14.01,2013-09-21 18:30:00,
2013-09-21 14:31:00,78.0,70.2,29.83,SSW,192,6.0,6.0,77,0.00,,---,0.08,VWS V14.01,2013-09-21 18:31:00,
2013-09-21 14:32:00,77.9,70.1,29.83,West,261,4.0,6.0,77,0.00,,---,0.08,VWS V14.01,2013-09-21 18:32:00,
2013-09-21 14:33:00,77.7,69.9,29.83,SE,135,0.0,4.0,77,0.00,,---,0.08,VWS V14.01,2013-09-21 18:33:00,
2013-09-21 14:34:00,77.6,70.2,29.83,SSE,150,3.0,6.0,78,0.00,,---,0.08,VWS V14.01,2013-09-21 18:34:00,
2013-09-21 14:35:00,77.5,70.1,29.83,ESE,115,4.0,5.0,78,0.00,,---,0.08,VWS V14.01,2013-09-21 18:35:00,
2013-09-21 14:36:00,77.5,70.1,29.83,South,171,2.0,5.0,78,0.00,,---,0.08,VWS V14.01,2013-09-21 18:36:00,
2013-09-21 14:37:00,77.5,70.1,29.83,SSW,192,0.0,5.0,78,0.00,,---,0.08,VWS V14.01,2013-09-21 18:37:00,
2013-09-21 14:38:00,77.5,70.1,29.83,WSW,237,0.0,1.0,78,0.00,,---,0.08,VWS V14.01,2013-09-21 18:38:00,
2013-09-21 14:39:00,77.5,70.5,29.83,South,187,0.0,1.0,79,0.00,,---,0.08,VWS V14.01,2013-09-21 18:39:00,
2013-09-21 14:40:00,77.6,70.6,29.83,SSE,156,1.0,2.0,79,0.00,,---,0.08,VWS V14.01,2013-09-21 18:40:00,
2013-09-21 14:41:00,77.7,70.7,29.83,SSE,156,0.0,2.0,79,0.00,,---,0.08,VWS V14.01,2013-09-21 18:41:00,
2013-09-21 14:42:00,77.9,70.9,29.82,SSE,157,2.0,2.0,79,0.00,,---,0.08,VWS V14.01,2013-09-21 18:42:00,
2013-09-21 14:43:00,78.0,70.6,29.82,South,178,4.0,4.0,78,0.00,,---,0.08,VWS V14.01,2013-09-21 18:43:00,
2013-09-21 14:44:00,78.0,70.2,29.82,SSE,153,4.0,8.0,77,0.00,,---,0.08,VWS V14.01,2013-09-21 18:44:00,
2013-09-21 14:45:00,78.0,70.2,29.82,SE,139,2.0,2.0,77,0.00,,---,0.08,VWS V14.01,2013-09-21 18:45:00,
2013-09-21 14:46:00,78.0,70.2,29.82,South,188,4.0,5.0,77,0.00,,---,0.08,VWS V14.01,2013-09-21 18:46:00,
2013-09-21 14:47:00,78.0,70.6,29.82,SSW,194,2.0,4.0,78,0.00,,---,0.08,VWS V14.01,2013-09-21 18:47:00,
2013-09-21 14:48:00,78.1,70.7,29.82,ESE,111,4.0,5.0,78,0.00,,---,0.08,VWS V14.01,2013-09-21 18:48:00,
2013-09-21 14:49:00,78.1,70.7,29.82,ESE,102,1.0,5.0,78,0.00,,---,0.08,VWS V14.01,2013-09-21 18:49:00,
2013-09-21 14:50:00,78.2,70.8,29.82,ENE,64,2.0,2.0,78,0.00,,---,0.08,VWS V14.01,2013-09-21 18:50:00,
2013-09-21 14:51:00,78.2,70.8,29.82,ESE,106,3.0,3.0,78,0.00,,---,0.08,VWS V14.01,2013-09-21 18:51:00,
2013-09-21 14:52:00,78.2,70.8,29.82,WSW,240,2.0,4.0,78,0.00,,---,0.08,VWS V14.01,2013-09-21 18:52:00,
2013-09-21 14:53:00,78.2,70.8,29.82,ESE,121,1.0,2.0,78,0.00,,---,0.08,VWS V14.01,2013-09-21 18:53:00,
2013-09-21 14:54:00,78.3,70.9,29.82,WNW,286,3.0,3.0,78,0.00,,---,0.08,VWS V14.01,2013-09-21 18:54:00,
2013-09-21 14:55:00,78.4,71.0,29.82,SSE,161,4.0,4.0,78,0.00,,---,0.08,VWS V14.01,2013-09-21 18:55:00,
2013-09-21 14:56:00,78.4,70.6,29.82,SW,219,1.0,5.0,77,0.00,,---,0.08,VWS V14.01,2013-09-21 18:56:00,
2013-09-21 14:57:00,78.4,70.6,29.81,SE,138,3.0,4.0,77,0.00,,---,0.08,VWS V14.01,2013-09-21 18:57:00,
2013-09-21 14:58:00,78.4,71.0,29.81,SSE,167,5.0,5.0,78,0.00,,---,0.08,VWS V14.01,2013-09-21 18:58:00,
2013-09-21 14:59:00,78.4,70.6,29.81,ESE,111,2.0,7.0,77,0.00,,---,0.08,VWS V14.01,2013-09-21 18:59:00,
2013-09-21 15:00:00,78.3,70.5,29.81,ENE,78,2.0,2.0,77,0.00,,---,0.08,VWS V14.01,2013-09-21 19:00:00,
2013-09-21 15:01:00,78.3,70.5,29.81,ESE,110,3.0,5.0,77,0.00,,---,0.08,VWS V14.01,2013-09-21 19:01:00,
2013-09-21 15:02:00,78.2,70.4,29.81,South,190,2.0,4.0,77,0.00,,---,0.08,VWS V14.01,2013-09-21 19:02:00,
2013-09-21 15:03:00,78.1,70.7,29.81,South,169,5.0,5.0,78,0.00,,---,0.08,VWS V14.01,2013-09-21 19:03:00,
2013-09-21 15:04:00,78.1,70.7,29.81,WSW,256,5.0,6.0,78,0.00,,---,0.08,VWS V14.01,2013-09-21 19:04:00,
2013-09-21 15:05:00,78.0,70.2,29.81,SE,134,3.0,3.0,77,0.00,,---,0.08,VWS V14.01,2013-09-21 19:05:00,
2013-09-21 15:06:00,77.9,70.1,29.81,SE,136,3.0,5.0,77,0.00,,---,0.08,VWS V14.01,2013-09-21 19:06:00,
2013-09-21 15:07:00,77.9,70.5,29.81,SW,219,0.0,3.0,78,0.00,,---,0.08,VWS V14.01,2013-09-21 19:07:00,
2013-09-21 15:08:00,77.9,70.5,29.81,SW,226,1.0,1.0,78,0.00,,---,0.08,VWS V14.01,2013-09-21 19:08:00,
2013-09-21 15:09:00,77.9,70.5,29.81,South,182,0.0,3.0,78,0.00,,---,0.08,VWS V14.01,2013-09-21 19:09:00,
2013-09-21 15:10:00,78.0,70.6,29.81,ENE,74,4.0,4.0,78,0.00,,---,0.08,VWS V14.01,2013-09-21 19:10:00,
2013-09-21 15:11:00,78.1,70.7,29.81,SW,223,1.0,4.0,78,0.00,,---,0.08,VWS V14.01,2013-09-21 19:11:00,
2013-09-21 15:12:00,78.1,70.7,29.81,West,269,1.0,5.0,78,0.00,,---,0.08,VWS V14.01,2013-09-21 19:12:00,
2013-09-21 15:13:00,78.1,70.7,29.81,ESE,118,1.0,5.0,78,0.00,,---,0.08,VWS V14.01,2013-09-21 19:13:00,
2013-09-21 15:14:00,78.1,70.7,29.81,SSE,156,3.0,8.0,78,0.00,,---,0.08,VWS V14.01,2013-09-21 19:14:00,
2013-09-21 15:15:00,78.1,70.7,29.81,South,175,3.0,4.0,78,0.00,,---,0.08,VWS V14.01,2013-09-21 19:15:00,
2013-09-21 15:16:00,78.0,70.6,29.81,SE,145,2.0,4.0,78,0.00,,---,0.08,VWS V14.01,2013-09-21 19:16:00,
2013-09-21 15:17:00,78.0,70.6,29.81,South,179,1.0,3.0,78,0.00,,---,0.08,VWS V14.01,2013-09-21 19:17:00,
2013-09-21 15:18:00,78.1,70.7,29.81,SSW,212,0.0,3.0,78,0.00,,---,0.08,VWS V14.01,2013-09-21 19:18:00,
2013-09-21 15:19:00,78.1,71.1,29.81,SSE,161,3.0,3.0,79,0.00,,---,0.08,VWS V14.01,2013-09-21 19:19:00,
2013-09-21 15:20:00,78.1,70.7,29.81,South,174,2.0,2.0,78,0.00,,---,0.08,VWS V14.01,2013-09-21 19:20:00,
2013-09-21 15:21:00,78.2,70.8,29.81,South,169,2.0,6.0,78,0.00,,---,0.08,VWS V14.01,2013-09-21 19:21:00,
2013-09-21 15:22:00,78.1,70.7,29.81,ESE,115,4.0,6.0,78,0.00,,---,0.08,VWS V14.01,2013-09-21 19:22:00,
2013-09-21 15:23:00,78.1,70.7,29.80,SSW,211,2.0,4.0,78,0.00,,---,0.08,VWS V14.01,2013-09-21 19:23:00,
2013-09-21 15:24:00,78.0,70.6,29.80,SSW,211,2.0,4.0,78,0.00,,---,0.08,VWS V14.01,2013-09-21 19:24:00,
2013-09-21 15:25:00,78.0,70.6,29.80,SSE,165,4.0,4.0,78,0.00,,---,0.08,VWS V14.01,2013-09-21 19:25:00,
2013-09-21 15:26:00,77.9,70.5,29.80,SSE,156,4.0,4.0,78,0.00,,---,0.08,VWS V14.01,2013-09-21 19:26:00,
2013-09-21 15:27:00,77.9,70.5,29.80,SSE,153,4.0,8.0,78,0.00,,---,0.08,VWS V14.01,2013-09-21 19:27:00,
2013-09-21 15:28:00,77.9,70.5,29.80,SSE,162,1.0,4.0,78,0.00,,---,0.08,VWS V14.01,2013-09-21 19:28:00,
2013-09-21 15:29:00,77.8,70.8,29.80,ESE,107,2.0,2.0,79,0.00,,---,0.08,VWS V14.01,2013-09-21 19:29:00,
2013-09-21 15:30:00,77.8,70.8,29.80,SE,133,2.0,4.0,79,0.00,,---,0.08,VWS V14.01,2013-09-21 19:30:00,
2013-09-21 15:31:00,77.8,70.8,29.80,SSW,206,2.0,5.0,79,0.00,,---,0.08,VWS V14.01,2013-09-21 19:31:00,
2013-09-21 15:32:00,77.8,70.8,29.80,SSE,158,3.0,3.0,79,0.00,,---,0.08,VWS V14.01,2013-09-21 19:32:00,
2013-09-21 15:33:00,77.8,70.8,29.80,SSE,152,3.0,3.0,79,0.00,,---,0.08,VWS V14.01,2013-09-21 19:33:00,
2013-09-21 15:34:00,77.9,70.5,29.80,SSW,193,3.0,5.0,78,0.00,,---,0.08,VWS V14.01,2013-09-21 19:34:00,
2013-09-21 15:35:00,77.8,70.4,29.80,SE,130,6.0,8.0,78,0.00,,---,0.08,VWS V14.01,2013-09-21 19:35:00,
2013-09-21 15:36:00,77.8,70.4,29.80,SSE,159,5.0,9.0,78,0.00,,---,0.08,VWS V14.01,2013-09-21 19:36:00,
2013-09-21 15:37:00,77.7,70.3,29.80,SSE,165,1.0,5.0,78,0.00,,---,0.08,VWS V14.01,2013-09-21 19:37:00,
2013-09-21 15:38:00,77.7,70.7,29.80,ESE,120,2.0,6.0,79,0.00,,---,0.08,VWS V14.01,2013-09-21 19:38:00,
2013-09-21 15:39:00,77.6,70.6,29.80,SSW,194,5.0,5.0,79,0.00,,---,0.08,VWS V14.01,2013-09-21 19:39:00,
2013-09-21 15:40:00,77.6,70.6,29.80,SSE,156,3.0,7.0,79,0.00,,---,0.08,VWS V14.01,2013-09-21 19:40:00,
2013-09-21 15:41:00,77.6,70.6,29.80,SSE,158,2.0,3.0,79,0.00,,---,0.08,VWS V14.01,2013-09-21 19:41:00,
2013-09-21 15:42:00,77.5,70.5,29.80,WSW,246,1.0,3.0,79,0.00,,---,0.08,VWS V14.01,2013-09-21 19:42:00,
2013-09-21 15:43:00,77.6,70.6,29.79,South,190,4.0,4.0,79,0.00,,---,0.08,VWS V14.01,2013-09-21 19:43:00,
2013-09-21 15:44:00,77.6,70.6,29.79,SSE,163,3.0,4.0,79,0.00,,---,0.08,VWS V14.01,2013-09-21 19:44:00,
2013-09-21 15:45:00,77.6,70.6,29.79,SE,126,0.0,0.0,79,0.00,,---,0.08,VWS V14.01,2013-09-21 19:45:00,
2013-09-21 15:46:00,77.6,70.6,29.79,SE,141,3.0,3.0,79,0.00,,---,0.08,VWS V14.01,2013-09-21 19:46:00,
2013-09-21 15:47:00,77.6,70.6,29.79,SE,146,0.0,5.0,79,0.00,,---,0.08,VWS V14.01,2013-09-21 19:47:00,
2013-09-21 15:48:00,77.7,70.7,29.80,East,92,2.0,2.0,79,0.00,,---,0.08,VWS V14.01,2013-09-21 19:48:00,
2013-09-21 15:49:00,77.7,70.7,29.80,SE,141,2.0,3.0,79,0.00,,---,0.08,VWS V14.01,2013-09-21 19:49:00,
2013-09-21 15:50:00,77.7,70.7,29.79,ESE,121,2.0,3.0,79,0.00,,---,0.08,VWS V14.01,2013-09-21 19:50:00,
2013-09-21 15:51:00,77.8,70.8,29.80,ENE,75,0.0,3.0,79,0.00,,---,0.08,VWS V14.01,2013-09-21 19:51:00,
2013-09-21 15:52:00,77.8,70.8,29.79,SSE,167,0.0,1.0,79,0.00,,---,0.08,VWS V14.01,2013-09-21 19:52:00,
2013-09-21 15:53:00,77.8,70.8,29.79,South,180,0.0,0.0,79,0.00,,---,0.08,VWS V14.01,2013-09-21 19:53:00,
2013-09-21 15:54:00,77.8,70.8,29.79,South,176,2.0,3.0,79,0.00,,---,0.08,VWS V14.01,2013-09-21 19:54:00,
2013-09-21 15:55:00,77.9,70.9,29.79,ESE,115,0.0,0.0,79,0.00,,---,0.08,VWS V14.01,2013-09-21 19:55:00,
2013-09-21 15:56:00,77.8,70.8,29.79,ESE,115,0.0,0.0,79,0.00,,---,0.08,VWS V14.01,2013-09-21 19:56:00,
2013-09-21 15:57:00,77.9,70.9,29.79,East,96,0.0,1.0,79,0.00,,---,0.08,VWS V14.01,2013-09-21 19:57:00,
2013-09-21 15:58:00,77.9,70.9,29.79,SSW,200,0.0,1.0,79,0.00,,---,0.08,VWS V14.01,2013-09-21 19:58:00,
2013-09-21 15:59:00,77.9,70.9,29.79,South,175,0.0,0.0,79,0.00,,---,0.08,VWS V14.01,2013-09-21 19:59:00,
2013-09-21 16:00:00,78.0,71.0,29.79,SE,140,1.0,2.0,79,0.00,,---,0.08,VWS V14.01,2013-09-21 20:00:00,
2013-09-21 16:01:00,78.0,71.0,29.79,SE,140,0.0,2.0,79,0.00,,---,0.08,VWS V14.01,2013-09-21 20:01:00,
2013-09-21 16:02:00,78.0,71.0,29.79,South,172,2.0,2.0,79,0.00,,---,0.08,VWS V14.01,2013-09-21 20:02:00,
2013-09-21 16:03:00,78.0,71.0,29.79,ESE,115,2.0,3.0,79,0.00,,---,0.08,VWS V14.01,2013-09-21 20:03:00,
2013-09-21 16:04:00,78.0,71.0,29.79,SSE,163,2.0,2.0,79,0.00,,---,0.08,VWS V14.01,2013-09-21 20:04:00,
2013-09-21 16:05:00,78.0,71.0,29.79,SE,128,1.0,1.0,79,0.00,,---,0.08,VWS V14.01,2013-09-21 20:05:00,
2013-09-21 16:06:00,78.0,71.0,29.79,ESE,115,2.0,6.0,79,0.00,,---,0.08,VWS V14.01,2013-09-21 20:06:00,
2013-09-21 16:07:00,78.0,71.0,29.78,SSE,155,5.0,5.0,79,0.00,,---,0.08,VWS V14.01,2013-09-21 20:07:00,
2013-09-21 16:08:00,77.9,70.9,29.78,SE,138,0.0,6.0,79,0.00,,---,0.08,VWS V14.01,2013-09-21 20:08:00,
2013-09-21 16:09:00,77.9,70.9,29.78,South,178,3.0,3.0,79,0.00,,---,0.08,VWS V14.01,2013-09-21 20:09:00,
2013-09-21 16:10:00,77.8,70.8,29.78,South,179,2.0,4.0,79,0.00,,---,0.08,VWS V14.01,2013-09-21 20:10:00,
2013-09-21 16:11:00,77.8,70.8,29.78,SSW,199,0.0,4.0,79,0.00,,---,0.08,VWS V14.01,2013-09-21 20:11:00,
2013-09-21 16:12:00,77.7,70.7,29.78,SSE,165,3.0,3.0,79,0.00,,---,0.08,VWS V14.01,2013-09-21 20:12:00,
2013-09-21 16:13:00,77.7,70.7,29.78,East,93,5.0,5.0,79,0.00,,---,0.08,VWS V14.01,2013-09-21 20:13:00,
2013-09-21 16:14:00,77.7,70.7,29.78,South,173,3.0,5.0,79,0.00,,---,0.08,VWS V14.01,2013-09-21 20:14:00,
2013-09-21 16:15:00,77.7,70.7,29.78,SW,215,2.0,3.0,79,0.00,,---,0.08,VWS V14.01,2013-09-21 20:15:00,
2013-09-21 16:16:00,77.7,70.7,29.78,SE,140,1.0,3.0,79,0.00,,---,0.08,VWS V14.01,2013-09-21 20:16:00,
2013-09-21 16:17:00,77.7,70.7,29.78,SE,144,4.0,4.0,79,0.00,,---,0.08,VWS V14.01,2013-09-21 20:17:00,
2013-09-21 16:18:00,77.6,70.6,29.78,East,90,1.0,4.0,79,0.00,,---,0.08,VWS V14.01,2013-09-21 20:18:00,
2013-09-21 16:19:00,77.6,70.6,29.78,SE,136,1.0,2.0,79,0.00,,---,0.08,VWS V14.01,2013-09-21 20:19:00,
2013-09-21 16:20:00,77.6,70.6,29.78,SE,141,1.0,2.0,79,0.00,,---,0.08,VWS V14.01,2013-09-21 20:20:00,
2013-09-21 16:21:00,77.6,70.6,29.78,East,96,5.0,5.0,79,0.00,,---,0.08,VWS V14.01,2013-09-21 20:21:00,
2013-09-21 16:22:00,77.6,70.6,29.78,SE,128,3.0,5.0,79,0.00,,---,0.08,VWS V14.01,2013-09-21 20:22:00,
2013-09-21 16:23:00,77.5,70.5,29.78,ESE,105,0.0,3.0,79,0.00,,---,0.08,VWS V14.01,2013-09-21 20:23:00,
2013-09-21 16:24:00,77.5,70.5,29.78,South,184,5.0,5.0,79,0.00,,---,0.08,VWS V14.01,2013-09-21 20:24:00,
2013-09-21 16:25:00,77.5,70.8,29.78,SSE,160,0.0,5.0,80,0.00,,---,0.08,VWS V14.01,2013-09-21 20:25:00,
2013-09-21 16:26:00,77.5,70.8,29.78,SSE,159,0.0,1.0,80,0.00,,---,0.08,VWS V14.01,2013-09-21 20:26:00,
2013-09-21 16:27:00,77.5,70.8,29.78,SSE,159,0.0,0.0,80,0.00,,---,0.08,VWS V14.01,2013-09-21 20:27:00,
2013-09-21 16:28:00,77.5,70.8,29.78,SSE,150,4.0,4.0,80,0.00,,---,0.08,VWS V14.01,2013-09-21 20:28:00,
2013-09-21 16:29:00,77.5,70.5,29.78,SSW,192,1.0,7.0,79,0.00,,---,0.08,VWS V14.01,2013-09-21 20:29:00,
2013-09-21 16:30:00,77.5,70.8,29.78,West,263,0.0,1.0,80,0.00,,---,0.08,VWS V14.01,2013-09-21 20:30:00,
2013-09-21 16:31:00,77.5,70.5,29.78,ESE,106,1.0,3.0,79,0.00,,---,0.08,VWS V14.01,2013-09-21 20:31:00,
2013-09-21 16:32:00,77.4,70.4,29.78,SSE,164,2.0,9.0,79,0.00,,---,0.08,VWS V14.01,2013-09-21 20:32:00,
2013-09-21 16:34:00,77.4,70.8,29.78,SE,140,0.0,2.0,80,0.00,,---,0.08,VWS V14.01,2013-09-21 20:34:00,
2013-09-21 16:35:00,77.4,70.8,29.78,SSE,152,0.0,0.0,80,0.00,,---,0.08,VWS V14.01,2013-09-21 20:35:00,
2013-09-21 16:36:00,77.4,70.8,29.78,SE,146,0.0,1.0,80,0.00,,---,0.08,VWS V14.01,2013-09-21 20:36:00,
2013-09-21 16:37:00,77.4,70.8,29.78,SSE,163,2.0,3.0,80,0.00,,---,0.08,VWS V14.01,2013-09-21 20:37:00,
2013-09-21 16:38:00,77.3,70.7,29.78,SSW,200,3.0,4.0,80,0.00,,---,0.08,VWS V14.01,2013-09-21 20:38:00,
2013-09-21 16:39:00,77.3,70.7,29.78,ESE,123,2.0,3.0,80,0.00,,---,0.08,VWS V14.01,2013-09-21 20:39:00,
2013-09-21 16:40:00,77.3,70.7,29.78,South,171,2.0,2.0,80,0.00,,---,0.08,VWS V14.01,2013-09-21 20:40:00,
2013-09-21 16:41:00,77.2,70.6,29.78,SE,133,7.0,7.0,80,0.00,,---,0.08,VWS V14.01,2013-09-21 20:41:00,
2013-09-21 16:42:00,77.2,70.6,29.78,SE,128,1.0,7.0,80,0.00,,---,0.08,VWS V14.01,2013-09-21 20:42:00,
2013-09-21 16:43:00,77.2,70.6,29.78,South,191,1.0,2.0,80,0.00,,---,0.08,VWS V14.01,2013-09-21 20:43:00,
2013-09-21 16:44:00,77.2,70.6,29.78,South,169,2.0,4.0,80,0.00,,---,0.08,VWS V14.01,2013-09-21 20:44:00,
2013-09-21 16:45:00,77.1,70.5,29.78,South,169,1.0,4.0,80,0.00,,---,0.08,VWS V14.01,2013-09-21 20:45:00,
2013-09-21 16:46:00,77.1,70.5,29.78,South,169,0.0,1.0,80,0.00,,---,0.08,VWS V14.01,2013-09-21 20:46:00,
2013-09-21 16:47:00,77.1,70.5,29.78,SSE,168,0.0,0.0,80,0.00,,---,0.08,VWS V14.01,2013-09-21 20:47:00,
2013-09-21 16:48:00,77.2,70.9,29.78,SSE,159,0.0,2.0,81,0.00,,---,0.08,VWS V14.01,2013-09-21 20:48:00,
2013-09-21 16:49:00,77.2,70.9,29.77,ESE,121,0.0,1.0,81,0.00,,---,0.08,VWS V14.01,2013-09-21 20:49:00,
2013-09-21 16:50:00,77.2,70.9,29.77,SSE,157,1.0,3.0,81,0.00,,---,0.08,VWS V14.01,2013-09-21 20:50:00,
2013-09-21 16:51:00,77.2,70.6,29.78,South,179,3.0,3.0,80,0.00,,---,0.08,VWS V14.01,2013-09-21 20:51:00,
2013-09-21 16:52:00,77.1,70.5,29.78,SSW,195,1.0,3.0,80,0.00,,---,0.08,VWS V14.01,2013-09-21 20:52:00,
2013-09-21 16:53:00,77.1,70.8,29.78,WSW,242,3.0,4.0,81,0.00,,---,0.08,VWS V14.01,2013-09-21 20:53:00,
2013-09-21 16:54:00,77.1,70.8,29.78,West,271,1.0,3.0,81,0.00,,---,0.08,VWS V14.01,2013-09-21 20:54:00,
2013-09-21 16:55:00,77.0,71.1,29.78,SW,232,0.0,1.0,82,0.00,,---,0.08,VWS V14.01,2013-09-21 20:55:00,
2013-09-21 16:56:00,77.0,71.1,29.78,SW,232,0.0,1.0,82,0.00,,---,0.08,VWS V14.01,2013-09-21 20:56:00,
2013-09-21 16:57:00,77.0,71.1,29.78,SE,139,1.0,1.0,82,0.00,,---,0.08,VWS V14.01,2013-09-21 20:57:00,
2013-09-21 16:58:00,77.0,71.1,29.78,ESE,105,0.0,1.0,82,0.00,,---,0.08,VWS V14.01,2013-09-21 20:58:00,
2013-09-21 16:59:00,77.0,71.1,29.78,ESE,105,0.0,0.0,82,0.00,,---,0.08,VWS V14.01,2013-09-21 20:59:00,
2013-09-21 17:00:00,76.9,71.3,29.78,ESE,107,0.0,0.0,83,0.00,,---,0.08,VWS V14.01,2013-09-21 21:00:00,
2013-09-21 17:01:00,76.8,71.2,29.78,ESE,107,0.0,0.0,83,0.00,,---,0.08,VWS V14.01,2013-09-21 21:01:00,
2013-09-21 17:02:00,76.7,71.2,29.78,ESE,109,0.0,1.0,83,0.00,,---,0.08,VWS V14.01,2013-09-21 21:02:00,
2013-09-21 17:03:00,76.6,71.4,29.78,ESE,109,0.0,1.0,84,0.00,,---,0.08,VWS V14.01,2013-09-21 21:03:00,
2013-09-21 17:04:00,76.6,71.4,29.78,ESE,109,0.0,0.0,84,0.00,,---,0.08,VWS V14.01,2013-09-21 21:04:00,
2013-09-21 17:05:00,76.4,71.2,29.78,West,263,1.0,1.0,84,0.00,,---,0.08,VWS V14.01,2013-09-21 21:05:00,
2013-09-21 17:06:00,76.4,71.6,29.78,WSW,242,0.0,1.0,85,0.00,,---,0.08,VWS V14.01,2013-09-21 21:06:00,
2013-09-21 17:07:00,76.3,71.5,29.78,WSW,242,0.0,0.0,85,0.00,,---,0.08,VWS V14.01,2013-09-21 21:07:00,
2013-09-21 17:08:00,76.2,71.4,29.78,WSW,242,0.0,0.0,85,0.00,,---,0.08,VWS V14.01,2013-09-21 21:08:00,
2013-09-21 17:09:00,76.2,71.7,29.78,WSW,242,0.0,0.0,86,0.00,,---,0.08,VWS V14.01,2013-09-21 21:09:00,
2013-09-21 17:10:00,76.2,71.7,29.78,WSW,242,0.0,0.0,86,0.00,,---,0.08,VWS V14.01,2013-09-21 21:10:00,
2013-09-21 17:11:00,76.1,71.6,29.78,SE,136,0.0,1.0,86,0.00,,---,0.08,VWS V14.01,2013-09-21 21:11:00,
2013-09-21 17:12:00,76.0,71.5,29.78,SE,136,0.0,0.0,86,0.00,,---,0.08,VWS V14.01,2013-09-21 21:12:00,
2013-09-21 17:13:00,76.0,71.5,29.77,SE,136,0.0,0.0,86,0.00,,---,0.08,VWS V14.01,2013-09-21 21:13:00,
2013-09-21 17:14:00,75.9,71.4,29.77,SE,136,1.0,1.0,86,0.00,,---,0.08,VWS V14.01,2013-09-21 21:14:00,
2013-09-21 17:15:00,75.9,71.4,29.78,ESE,120,0.0,1.0,86,0.00,,---,0.08,VWS V14.01,2013-09-21 21:15:00,
2013-09-21 17:16:00,75.9,71.8,29.77,SE,134,1.0,1.0,87,0.00,,---,0.08,VWS V14.01,2013-09-21 21:16:00,
2013-09-21 17:17:00,75.8,71.3,29.78,SE,134,0.0,1.0,86,0.00,,---,0.08,VWS V14.01,2013-09-21 21:17:00,
2013-09-21 17:18:00,75.8,71.3,29.78,SSE,152,2.0,2.0,86,0.00,,---,0.08,VWS V14.01,2013-09-21 21:18:00,
2013-09-21 17:19:00,75.7,71.2,29.78,SSE,153,0.0,2.0,86,0.00,,---,0.08,VWS V14.01,2013-09-21 21:19:00,
2013-09-21 17:20:00,75.7,71.6,29.78,SSE,153,0.0,0.0,87,0.00,,---,0.08,VWS V14.01,2013-09-21 21:20:00,
2013-09-21 17:21:00,75.6,71.5,29.77,ESE,111,1.0,2.0,87,0.00,,---,0.08,VWS V14.01,2013-09-21 21:21:00,
2013-09-21 17:22:00,75.6,71.5,29.77,ESE,118,1.0,1.0,87,0.00,,---,0.08,VWS V14.01,2013-09-21 21:22:00,
2013-09-21 17:23:00,75.6,71.5,29.77,ESE,118,0.0,1.0,87,0.00,,---,0.08,VWS V14.01,2013-09-21 21:23:00,
2013-09-21 17:24:00,75.5,71.4,29.77,SE,136,1.0,2.0,87,0.00,,---,0.08,VWS V14.01,2013-09-21 21:24:00,
2013-09-21 17:25:00,75.5,71.4,29.77,ESE,114,1.0,1.0,87,0.00,,---,0.08,VWS V14.01,2013-09-21 21:25:00,
2013-09-21 17:26:00,75.5,71.4,29.77,ESE,114,0.0,1.0,87,0.00,,---,0.08,VWS V14.01,2013-09-21 21:26:00,
2013-09-21 17:27:00,75.5,71.4,29.77,SSE,155,0.0,1.0,87,0.00,,---,0.08,VWS V14.01,2013-09-21 21:27:00,
2013-09-21 17:28:00,75.4,71.3,29.77,SSE,157,0.0,0.0,87,0.00,,---,0.08,VWS V14.01,2013-09-21 21:28:00,
2013-09-21 17:29:00,75.4,71.3,29.77,SE,135,0.0,1.0,87,0.00,,---,0.08,VWS V14.01,2013-09-21 21:29:00,
2013-09-21 17:30:00,75.4,71.3,29.77,SE,134,0.0,0.0,87,0.01,,---,0.09,VWS V14.01,2013-09-21 21:30:00,
2013-09-21 17:31:00,75.4,71.3,29.78,SE,135,0.0,0.0,87,0.01,,---,0.09,VWS V14.01,2013-09-21 21:31:00,
2013-09-21 17:32:00,75.4,71.3,29.77,SE,135,0.0,0.0,87,0.01,,---,0.09,VWS V14.01,2013-09-21 21:32:00,
2013-09-21 17:33:00,75.4,71.3,29.78,SSW,206,1.0,1.0,87,0.01,,---,0.09,VWS V14.01,2013-09-21 21:33:00,
2013-09-21 17:34:00,75.3,71.5,29.78,WSW,256,1.0,1.0,88,0.01,,---,0.09,VWS V14.01,2013-09-21 21:34:00,
2013-09-21 17:35:00,75.3,71.5,29.78,West,271,1.0,2.0,88,0.01,,---,0.09,VWS V14.01,2013-09-21 21:35:00,
2013-09-21 17:36:00,75.2,71.4,29.78,WSW,257,2.0,3.0,88,0.01,,---,0.09,VWS V14.01,2013-09-21 21:36:00,
2013-09-21 17:37:00,75.2,71.4,29.78,WSW,257,1.0,2.0,88,0.01,,---,0.09,VWS V14.01,2013-09-21 21:37:00,
2013-09-21 17:38:00,75.1,71.6,29.78,WSW,245,1.0,1.0,89,0.01,,---,0.09,VWS V14.01,2013-09-21 21:38:00,
2013-09-21 17:39:00,75.1,71.3,29.78,SW,236,1.0,1.0,88,0.01,,---,0.09,VWS V14.01,2013-09-21 21:39:00,
2013-09-21 17:40:00,75.0,71.5,29.78,SW,236,0.0,1.0,89,0.01,,---,0.09,VWS V14.01,2013-09-21 21:40:00,
2013-09-21 17:41:00,74.9,71.4,29.78,SW,236,0.0,0.0,89,0.01,,---,0.09,VWS V14.01,2013-09-21 21:41:00,
2013-09-21 17:42:00,74.9,71.4,29.78,SW,236,0.0,0.0,89,0.01,,---,0.09,VWS V14.01,2013-09-21 21:42:00,
2013-09-21 17:43:00,74.9,71.4,29.78,SW,227,0.0,0.0,89,0.01,,---,0.09,VWS V14.01,2013-09-21 21:43:00,
2013-09-21 17:44:00,74.8,71.3,29.78,SW,227,3.0,3.0,89,0.01,,---,0.09,VWS V14.01,2013-09-21 21:44:00,
2013-09-21 17:45:00,74.8,71.3,29.78,SSW,203,3.0,4.0,89,0.01,,---,0.09,VWS V14.01,2013-09-21 21:45:00,
2013-09-21 17:46:00,74.7,71.2,29.78,South,181,0.0,3.0,89,0.01,,---,0.09,VWS V14.01,2013-09-21 21:46:00,
2013-09-21 17:47:00,74.6,71.2,29.78,South,175,1.0,2.0,89,0.01,,---,0.09,VWS V14.01,2013-09-21 21:47:00,
2013-09-21 17:48:00,74.6,71.2,29.78,SSW,211,2.0,2.0,89,0.01,,---,0.09,VWS V14.01,2013-09-21 21:48:00,
2013-09-21 17:49:00,74.6,71.2,29.78,WSW,244,1.0,2.0,89,0.01,,---,0.09,VWS V14.01,2013-09-21 21:49:00,
2013-09-21 17:50:00,74.6,71.2,29.78,West,275,1.0,1.0,89,0.01,,---,0.09,VWS V14.01,2013-09-21 21:50:00,
2013-09-21 17:51:00,74.5,71.1,29.78,SE,133,1.0,2.0,89,0.01,,---,0.09,VWS V14.01,2013-09-21 21:51:00,
2013-09-21 17:52:00,74.5,71.1,29.78,SE,135,1.0,1.0,89,0.01,,---,0.09,VWS V14.01,2013-09-21 21:52:00,
2013-09-21 17:53:00,74.5,71.1,29.78,SE,143,1.0,1.0,89,0.01,,---,0.09,VWS V14.01,2013-09-21 21:53:00,
2013-09-21 17:54:00,74.5,71.1,29.78,SE,146,2.0,2.0,89,0.01,,---,0.09,VWS V14.01,2013-09-21 21:54:00,
2013-09-21 17:55:00,74.5,71.1,29.78,SE,136,1.0,3.0,89,0.01,,---,0.09,VWS V14.01,2013-09-21 21:55:00,
2013-09-21 17:56:00,74.5,71.1,29.78,SSE,160,0.0,1.0,89,0.01,,---,0.09,VWS V14.01,2013-09-21 21:56:00,
2013-09-21 17:57:00,74.5,71.1,29.78,South,187,1.0,2.0,89,0.01,,---,0.09,VWS V14.01,2013-09-21 21:57:00,
2013-09-21 17:58:00,74.4,70.9,29.78,South,174,1.0,1.0,89,0.01,,---,0.09,VWS V14.01,2013-09-21 21:58:00,
2013-09-21 17:59:00,74.4,71.3,29.78,East,86,1.0,2.0,90,0.01,,---,0.09,VWS V14.01,2013-09-21 21:59:00,
2013-09-21 18:00:00,74.4,71.3,29.78,East,86,2.0,2.0,90,0.01,,---,0.09,VWS V14.01,2013-09-21 22:00:00,
2013-09-21 18:01:00,74.4,71.3,29.78,SSE,168,1.0,3.0,90,0.01,,---,0.09,VWS V14.01,2013-09-21 22:01:00,
2013-09-21 18:02:00,74.3,71.2,29.78,SSW,213,0.0,2.0,90,0.01,,---,0.09,VWS V14.01,2013-09-21 22:02:00,
2013-09-21 18:03:00,74.3,71.2,29.78,SW,217,0.0,1.0,90,0.01,,---,0.09,VWS V14.01,2013-09-21 22:03:00,
2013-09-21 18:04:00,74.2,71.1,29.78,SSW,199,0.0,0.0,90,0.01,,---,0.09,VWS V14.01,2013-09-21 22:04:00,
2013-09-21 18:05:00,74.2,71.1,29.78,SSW,198,0.0,0.0,90,0.01,,---,0.09,VWS V14.01,2013-09-21 22:05:00,
2013-09-21 18:06:00,74.2,71.1,29.78,SSW,198,0.0,0.0,90,0.01,,---,0.09,VWS V14.01,2013-09-21 22:06:00,
2013-09-21 18:07:00,74.2,71.1,29.78,SE,134,1.0,1.0,90,0.01,,---,0.09,VWS V14.01,2013-09-21 22:07:00,
2013-09-21 18:08:00,74.2,71.1,29.78,SW,218,2.0,3.0,90,0.01,,---,0.09,VWS V14.01,2013-09-21 22:08:00,
2013-09-21 18:09:00,74.1,71.0,29.78,SSW,211,1.0,2.0,90,0.01,,---,0.09,VWS V14.01,2013-09-21 22:09:00,
2013-09-21 18:10:00,74.1,71.0,29.78,SW,222,0.0,1.0,90,0.01,,---,0.09,VWS V14.01,2013-09-21 22:10:00,
2013-09-21 18:11:00,74.1,71.0,29.78,SSW,195,0.0,1.0,90,0.01,,---,0.09,VWS V14.01,2013-09-21 22:11:00,
2013-09-21 18:12:00,74.0,70.9,29.78,South,188,1.0,2.0,90,0.01,,---,0.09,VWS V14.01,2013-09-21 22:12:00,
2013-09-21 18:13:00,74.0,70.9,29.77,South,188,0.0,1.0,90,0.01,,---,0.09,VWS V14.01,2013-09-21 22:13:00,
2013-09-21 18:14:00,74.0,70.9,29.78,South,188,0.0,0.0,90,0.01,,---,0.09,VWS V14.01,2013-09-21 22:14:00,
2013-09-21 18:15:00,74.0,70.9,29.78,South,188,0.0,0.0,90,0.01,,---,0.09,VWS V14.01,2013-09-21 22:15:00,
2013-09-21 18:16:00,74.0,71.2,29.78,South,188,0.0,0.0,91,0.01,,---,0.09,VWS V14.01,2013-09-21 22:16:00,
2013-09-21 18:17:00,74.0,71.2,29.78,SE,137,1.0,1.0,91,0.01,,---,0.09,VWS V14.01,2013-09-21 22:17:00,
2013-09-21 18:18:00,73.9,70.8,29.78,SSE,150,2.0,2.0,90,0.01,,---,0.09,VWS V14.01,2013-09-21 22:18:00,
2013-09-21 18:19:00,73.8,70.7,29.77,SSE,163,2.0,3.0,90,0.01,,---,0.09,VWS V14.01,2013-09-21 22:19:00,
2013-09-21 18:20:00,73.8,70.7,29.77,SW,219,2.0,3.0,90,0.01,,---,0.09,VWS V14.01,2013-09-21 22:20:00,
2013-09-21 18:21:00,73.7,70.6,29.77,SE,142,1.0,2.0,90,0.02,,---,0.10,VWS V14.01,2013-09-21 22:21:00,
2013-09-21 18:22:00,73.7,70.6,29.77,ESE,107,2.0,5.0,90,0.02,,---,0.10,VWS V14.01,2013-09-21 22:22:00,
2013-09-21 18:23:00,73.6,70.8,29.77,SSE,155,1.0,3.0,91,0.02,,---,0.10,VWS V14.01,2013-09-21 22:23:00,
2013-09-21 18:24:00,73.6,70.8,29.77,SE,138,1.0,2.0,91,0.02,,---,0.10,VWS V14.01,2013-09-21 22:24:00,
2013-09-21 18:25:00,73.6,70.8,29.77,SE,139,3.0,3.0,91,0.02,,---,0.10,VWS V14.01,2013-09-21 22:25:00,
2013-09-21 18:26:00,73.5,70.7,29.77,South,190,1.0,3.0,91,0.02,,---,0.10,VWS V14.01,2013-09-21 22:26:00,
2013-09-21 18:27:00,73.5,70.7,29.77,SE,126,1.0,2.0,91,0.02,,---,0.10,VWS V14.01,2013-09-21 22:27:00,
2013-09-21 18:28:00,73.4,70.6,29.77,South,187,1.0,2.0,91,0.02,,---,0.10,VWS V14.01,2013-09-21 22:28:00,
2013-09-21 18:29:00,73.3,70.5,29.77,SSW,207,1.0,2.0,91,0.02,,---,0.10,VWS V14.01,2013-09-21 22:29:00,
2013-09-21 18:30:00,73.3,70.5,29.77,SSW,202,2.0,2.0,91,0.02,,---,0.10,VWS V14.01,2013-09-21 22:30:00,
2013-09-21 18:31:00,73.3,70.5,29.77,SSW,199,0.0,2.0,91,0.01,,---,0.10,VWS V14.01,2013-09-21 22:31:00,
2013-09-21 18:32:00,73.3,70.5,29.77,SSW,199,0.0,0.0,91,0.01,,---,0.10,VWS V14.01,2013-09-21 22:32:00,
2013-09-21 18:33:00,73.3,70.5,29.77,South,191,1.0,2.0,91,0.01,,---,0.10,VWS V14.01,2013-09-21 22:33:00,
2013-09-21 18:34:00,73.3,70.8,29.77,WSW,245,1.0,1.0,92,0.01,,---,0.10,VWS V14.01,2013-09-21 22:34:00,
2013-09-21 18:35:00,73.3,70.8,29.77,WSW,245,1.0,1.0,92,0.01,,---,0.10,VWS V14.01,2013-09-21 22:35:00,
2013-09-21 18:36:00,73.2,70.7,29.77,WSW,238,0.0,1.0,92,0.01,,---,0.10,VWS V14.01,2013-09-21 22:36:00,
2013-09-21 18:37:00,73.2,70.7,29.77,South,176,1.0,1.0,92,0.01,,---,0.10,VWS V14.01,2013-09-21 22:37:00,
2013-09-21 18:38:00,73.2,70.7,29.77,South,176,0.0,1.0,92,0.01,,---,0.10,VWS V14.01,2013-09-21 22:38:00,
2013-09-21 18:39:00,73.1,70.6,29.77,SSW,202,0.0,0.0,92,0.01,,---,0.10,VWS V14.01,2013-09-21 22:39:00,
2013-09-21 18:40:00,73.1,70.6,29.77,SSW,202,0.0,0.0,92,0.01,,---,0.10,VWS V14.01,2013-09-21 22:40:00,
2013-09-21 18:41:00,73.1,70.6,29.77,SSW,202,0.0,0.0,92,0.01,,---,0.10,VWS V14.01,2013-09-21 22:41:00,
2013-09-21 18:42:00,73.1,70.6,29.77,West,275,2.0,2.0,92,0.01,,---,0.10,VWS V14.01,2013-09-21 22:42:00,
2013-09-21 18:43:00,73.1,70.6,29.77,WSW,240,0.0,2.0,92,0.01,,---,0.10,VWS V14.01,2013-09-21 22:43:00,
2013-09-21 18:44:00,73.0,70.5,29.77,WSW,242,1.0,1.0,92,0.01,,---,0.10,VWS V14.01,2013-09-21 22:44:00,
2013-09-21 18:45:00,73.0,70.5,29.77,WSW,242,0.0,1.0,92,0.01,,---,0.10,VWS V14.01,2013-09-21 22:45:00,
2013-09-21 18:46:00,73.0,70.5,29.77,WSW,240,1.0,1.0,92,0.01,,---,0.10,VWS V14.01,2013-09-21 22:46:00,
2013-09-21 18:47:00,72.9,70.4,29.77,SW,229,1.0,2.0,92,0.01,,---,0.10,VWS V14.01,2013-09-21 22:47:00,
2013-09-21 18:48:00,72.9,70.4,29.77,SW,229,0.0,1.0,92,0.01,,---,0.10,VWS V14.01,2013-09-21 22:48:00,
2013-09-21 18:49:00,72.9,70.4,29.77,SSW,199,0.0,2.0,92,0.01,,---,0.10,VWS V14.01,2013-09-21 22:49:00,
2013-09-21 18:50:00,72.9,70.4,29.77,SW,215,1.0,2.0,92,0.01,,---,0.10,VWS V14.01,2013-09-21 22:50:00,
2013-09-21 18:51:00,72.9,70.4,29.77,SW,217,0.0,1.0,92,0.01,,---,0.10,VWS V14.01,2013-09-21 22:51:00,
2013-09-21 18:52:00,72.8,70.7,29.77,SSW,200,0.0,1.0,93,0.01,,---,0.10,VWS V14.01,2013-09-21 22:52:00,
2013-09-21 18:53:00,72.8,70.7,29.77,West,275,0.0,2.0,93,0.01,,---,0.10,VWS V14.01,2013-09-21 22:53:00,
2013-09-21 18:54:00,72.8,70.7,29.77,West,269,1.0,1.0,93,0.01,,---,0.10,VWS V14.01,2013-09-21 22:54:00,
2013-09-21 18:55:00,72.8,70.7,29.77,West,269,0.0,1.0,93,0.01,,---,0.10,VWS V14.01,2013-09-21 22:55:00,
2013-09-21 18:56:00,72.8,70.7,29.77,West,269,0.0,0.0,93,0.01,,---,0.10,VWS V14.01,2013-09-21 22:56:00,
2013-09-21 18:57:00,72.8,70.7,29.77,WSW,254,1.0,2.0,93,0.01,,---,0.10,VWS V14.01,2013-09-21 22:57:00,
2013-09-21 18:58:00,72.7,70.6,29.77,WSW,241,2.0,2.0,93,0.01,,---,0.10,VWS V14.01,2013-09-21 22:58:00,
2013-09-21 18:59:00,72.7,70.6,29.77,SW,227,3.0,3.0,93,0.02,,---,0.11,VWS V14.01,2013-09-21 22:59:00,
2013-09-21 19:00:00,72.7,70.6,29.77,SW,219,2.0,3.0,93,0.02,,---,0.11,VWS V14.01,2013-09-21 23:00:00,
2013-09-21 19:01:00,72.6,70.5,29.77,WSW,240,1.0,2.0,93,0.02,,---,0.11,VWS V14.01,2013-09-21 23:01:00,
2013-09-21 19:02:00,72.6,70.5,29.77,SSW,210,1.0,1.0,93,0.02,,---,0.11,VWS V14.01,2013-09-21 23:02:00,
2013-09-21 19:03:00,72.6,70.5,29.77,SW,221,0.0,3.0,93,0.02,,---,0.11,VWS V14.01,2013-09-21 23:03:00,
2013-09-21 19:04:00,72.6,70.5,29.77,SW,221,0.0,0.0,93,0.02,,---,0.11,VWS V14.01,2013-09-21 23:04:00,
2013-09-21 19:05:00,72.6,70.5,29.77,SW,221,0.0,0.0,93,0.02,,---,0.11,VWS V14.01,2013-09-21 23:05:00,
2013-09-21 19:06:00,72.6,70.5,29.77,SW,221,0.0,0.0,93,0.02,,---,0.11,VWS V14.01,2013-09-21 23:06:00,
2013-09-21 19:07:00,72.5,70.4,29.77,West,267,0.0,0.0,93,0.02,,---,0.11,VWS V14.01,2013-09-21 23:07:00,
2013-09-21 19:08:00,72.5,70.4,29.77,WSW,254,1.0,1.0,93,0.02,,---,0.11,VWS V14.01,2013-09-21 23:08:00,
2013-09-21 19:09:00,72.5,70.4,29.77,West,260,1.0,1.0,93,0.02,,---,0.11,VWS V14.01,2013-09-21 23:09:00,
2013-09-21 19:10:00,72.5,70.4,29.77,West,260,0.0,1.0,93,0.02,,---,0.11,VWS V14.01,2013-09-21 23:10:00,
2013-09-21 19:11:00,72.5,70.4,29.77,West,263,1.0,2.0,93,0.02,,---,0.11,VWS V14.01,2013-09-21 23:11:00,
2013-09-21 19:12:00,72.4,70.3,29.77,SSW,209,0.0,2.0,93,0.02,,---,0.11,VWS V14.01,2013-09-21 23:12:00,
2013-09-21 19:13:00,72.4,70.3,29.77,WSW,238,0.0,1.0,93,0.02,,---,0.11,VWS V14.01,2013-09-21 23:13:00,
2013-09-21 19:14:00,72.4,70.6,29.77,WSW,238,0.0,0.0,94,0.02,,---,0.11,VWS V14.01,2013-09-21 23:14:00,
2013-09-21 19:15:00,72.4,70.6,29.77,WSW,238,0.0,0.0,94,0.02,,---,0.11,VWS V14.01,2013-09-21 23:15:00,
2013-09-21 19:16:00,72.4,70.6,29.77,SSW,195,1.0,1.0,94,0.02,,---,0.11,VWS V14.01,2013-09-21 23:16:00,
2013-09-21 19:17:00,72.4,70.6,29.77,SW,223,2.0,2.0,94,0.02,,---,0.11,VWS V14.01,2013-09-21 23:17:00,
2013-09-21 19:18:00,72.3,70.5,29.77,SSW,211,1.0,2.0,94,0.02,,---,0.11,VWS V14.01,2013-09-21 23:18:00,
2013-09-21 19:19:00,72.3,70.5,29.77,SW,226,1.0,2.0,94,0.02,,---,0.11,VWS V14.01,2013-09-21 23:19:00,
2013-09-21 19:20:00,72.3,70.5,29.77,SW,226,0.0,2.0,94,0.02,,---,0.11,VWS V14.01,2013-09-21 23:20:00,
2013-09-21 19:21:00,72.3,70.5,29.77,SW,226,0.0,0.0,94,0.02,,---,0.11,VWS V14.01,2013-09-21 23:21:00,
2013-09-21 19:22:00,72.3,70.5,29.77,West,268,0.0,2.0,94,0.01,,---,0.11,VWS V14.01,2013-09-21 23:22:00,
2013-09-21 19:23:00,72.3,70.5,29.77,SW,236,2.0,2.0,94,0.01,,---,0.11,VWS V14.01,2013-09-21 23:23:00,
2013-09-21 19:24:00,72.3,70.5,29.77,SW,236,0.0,0.0,94,0.01,,---,0.11,VWS V14.01,2013-09-21 23:24:00,
2013-09-21 19:25:00,72.3,70.5,29.77,SW,236,0.0,0.0,94,0.01,,---,0.11,VWS V14.01,2013-09-21 23:25:00,
2013-09-21 19:26:00,72.3,70.5,29.77,SW,236,0.0,0.0,94,0.01,,---,0.11,VWS V14.01,2013-09-21 23:26:00,
2013-09-21 19:27:00,72.2,70.4,29.77,SW,236,0.0,0.0,94,0.01,,---,0.11,VWS V14.01,2013-09-21 23:27:00,
2013-09-21 19:28:00,72.3,70.5,29.76,SSE,156,0.0,0.0,94,0.01,,---,0.11,VWS V14.01,2013-09-21 23:28:00,
2013-09-21 19:29:00,72.2,70.4,29.76,ESE,123,1.0,2.0,94,0.01,,---,0.11,VWS V14.01,2013-09-21 23:29:00,
2013-09-21 19:30:00,72.2,70.4,29.76,SE,124,1.0,2.0,94,0.01,,---,0.11,VWS V14.01,2013-09-21 23:30:00,
2013-09-21 19:31:00,72.2,70.4,29.76,SSE,167,2.0,2.0,94,0.01,,---,0.11,VWS V14.01,2013-09-21 23:31:00,
2013-09-21 19:32:00,72.2,70.4,29.76,SSE,149,1.0,2.0,94,0.01,,---,0.11,VWS V14.01,2013-09-21 23:32:00,
2013-09-21 19:33:00,72.2,70.4,29.76,SSE,150,1.0,1.0,94,0.01,,---,0.11,VWS V14.01,2013-09-21 23:33:00,
2013-09-21 19:34:00,72.2,70.4,29.76,SE,136,1.0,2.0,94,0.01,,---,0.11,VWS V14.01,2013-09-21 23:34:00,
2013-09-21 19:35:00,72.2,70.4,29.76,SE,136,1.0,2.0,94,0.01,,---,0.11,VWS V14.01,2013-09-21 23:35:00,
2013-09-21 19:36:00,72.2,70.4,29.76,SSE,156,2.0,2.0,94,0.01,,---,0.11,VWS V14.01,2013-09-21 23:36:00,
2013-09-21 19:37:00,72.2,70.4,29.76,South,178,0.0,2.0,94,0.01,,---,0.11,VWS V14.01,2013-09-21 23:37:00,
2013-09-21 19:38:00,72.2,70.4,29.76,South,178,0.0,0.0,94,0.01,,---,0.11,VWS V14.01,2013-09-21 23:38:00,
2013-09-21 19:39:00,72.2,70.4,29.76,South,186,0.0,0.0,94,0.01,,---,0.11,VWS V14.01,2013-09-21 23:39:00,
2013-09-21 19:40:00,72.2,70.4,29.76,South,186,0.0,0.0,94,0.01,,---,0.11,VWS V14.01,2013-09-21 23:40:00,
2013-09-21 19:41:00,72.2,70.4,29.77,South,186,0.0,1.0,94,0.01,,---,0.11,VWS V14.01,2013-09-21 23:41:00,
2013-09-21 19:42:00,72.2,70.4,29.77,SSE,156,0.0,1.0,94,0.01,,---,0.11,VWS V14.01,2013-09-21 23:42:00,
2013-09-21 19:43:00,72.2,70.4,29.76,WSW,242,1.0,1.0,94,0.01,,---,0.11,VWS V14.01,2013-09-21 23:43:00,
2013-09-21 19:44:00,72.2,70.4,29.77,WSW,245,0.0,0.0,94,0.01,,---,0.11,VWS V14.01,2013-09-21 23:44:00,
2013-09-21 19:45:00,72.2,70.4,29.77,WSW,245,0.0,0.0,94,0.01,,---,0.11,VWS V14.01,2013-09-21 23:45:00,
2013-09-21 19:46:00,72.2,70.4,29.77,WSW,245,0.0,0.0,94,0.01,,---,0.11,VWS V14.01,2013-09-21 23:46:00,
2013-09-21 19:47:00,72.2,70.4,29.77,WSW,245,0.0,0.0,94,0.01,,---,0.11,VWS V14.01,2013-09-21 23:47:00,
2013-09-21 19:48:00,72.2,70.4,29.77,WSW,245,0.0,0.0,94,0.01,,---,0.11,VWS V14.01,2013-09-21 23:48:00,
2013-09-21 19:49:00,72.2,70.4,29.77,SW,230,0.0,1.0,94,0.01,,---,0.11,VWS V14.01,2013-09-21 23:49:00,
2013-09-21 19:50:00,72.2,70.4,29.77,SW,230,0.0,1.0,94,0.01,,---,0.11,VWS V14.01,2013-09-21 23:50:00,
2013-09-21 19:51:00,72.2,70.4,29.77,SW,231,0.0,0.0,94,0.01,,---,0.11,VWS V14.01,2013-09-21 23:51:00,
2013-09-21 19:52:00,72.2,70.4,29.77,SW,230,0.0,0.0,94,0.01,,---,0.11,VWS V14.01,2013-09-21 23:52:00,
2013-09-21 19:53:00,72.2,70.4,29.77,SW,230,1.0,1.0,94,0.01,,---,0.11,VWS V14.01,2013-09-21 23:53:00,
2013-09-21 19:54:00,72.2,70.4,29.77,SW,230,0.0,0.0,94,0.01,,---,0.11,VWS V14.01,2013-09-21 23:54:00,
2013-09-21 19:55:00,72.2,70.4,29.77,SW,230,0.0,0.0,94,0.01,,---,0.11,VWS V14.01,2013-09-21 23:55:00,
2013-09-21 19:56:00,72.1,70.3,29.77,SW,230,0.0,0.0,94,0.01,,---,0.11,VWS V14.01,2013-09-21 23:56:00,
2013-09-21 19:57:00,72.2,70.4,29.77,SW,230,0.0,0.0,94,0.01,,---,0.11,VWS V14.01,2013-09-21 23:57:00,
2013-09-21 19:58:00,72.2,70.4,29.77,SE,132,2.0,2.0,94,0.01,,---,0.11,VWS V14.01,2013-09-21 23:58:00,
2013-09-21 19:59:00,72.1,70.6,29.77,SE,136,0.0,1.0,95,0.01,,---,0.11,VWS V14.01,2013-09-21 23:59:00,
2013-09-21 20:00:00,72.1,70.6,29.77,SE,136,0.0,1.0,95,0.01,,---,0.11,VWS V14.01,2013-09-22 00:00:00,
2013-09-21 20:01:00,72.1,70.6,29.77,SW,226,0.0,1.0,95,0.00,,---,0.11,VWS V14.01,2013-09-22 00:01:00,
2013-09-21 20:02:00,72.1,70.3,29.77,ESE,107,1.0,2.0,94,0.00,,---,0.11,VWS V14.01,2013-09-22 00:02:00,
2013-09-21 20:03:00,72.1,70.3,29.77,NW,319,0.0,2.0,94,0.00,,---,0.11,VWS V14.01,2013-09-22 00:03:00,
2013-09-21 20:04:00,72.1,70.3,29.77,NW,319,0.0,1.0,94,0.00,,---,0.11,VWS V14.01,2013-09-22 00:04:00,
2013-09-21 20:05:00,72.1,70.3,29.77,NW,319,0.0,1.0,94,0.00,,---,0.11,VWS V14.01,2013-09-22 00:05:00,
2013-09-21 20:06:00,72.1,70.6,29.77,SSW,202,1.0,2.0,95,0.00,,---,0.11,VWS V14.01,2013-09-22 00:06:00,
2013-09-21 20:07:00,72.1,70.3,29.77,SSW,202,0.0,1.0,94,0.00,,---,0.11,VWS V14.01,2013-09-22 00:07:00,
2013-09-21 20:08:00,72.1,70.6,29.77,SSW,202,0.0,0.0,95,0.00,,---,0.11,VWS V14.01,2013-09-22 00:08:00,
2013-09-21 20:09:00,72.1,70.3,29.77,SSE,156,0.0,0.0,94,0.00,,---,0.11,VWS V14.01,2013-09-22 00:09:00,
2013-09-21 20:10:00,72.1,70.3,29.77,SSE,156,0.0,0.0,94,0.00,,---,0.11,VWS V14.01,2013-09-22 00:10:00,
2013-09-21 20:11:00,72.1,70.3,29.77,SSE,156,0.0,0.0,94,0.00,,---,0.11,VWS V14.01,2013-09-22 00:11:00,
2013-09-21 20:12:00,72.1,70.6,29.77,SSE,156,0.0,0.0,95,0.00,,---,0.11,VWS V14.01,2013-09-22 00:12:00,
2013-09-21 20:13:00,72.1,70.6,29.77,SSE,156,0.0,0.0,95,0.00,,---,0.11,VWS V14.01,2013-09-22 00:13:00,
2013-09-21 20:14:00,72.1,70.6,29.77,SW,234,0.0,0.0,95,0.00,,---,0.11,VWS V14.01,2013-09-22 00:14:00,
2013-09-21 20:15:00,72.1,70.6,29.77,SW,234,0.0,0.0,95,0.00,,---,0.11,VWS V14.01,2013-09-22 00:15:00,
2013-09-21 20:16:00,72.1,70.3,29.77,WSW,252,1.0,1.0,94,0.00,,---,0.11,VWS V14.01,2013-09-22 00:16:00,
2013-09-21 20:17:00,72.0,70.2,29.77,WSW,252,1.0,1.0,94,0.00,,---,0.11,VWS V14.01,2013-09-22 00:17:00,
2013-09-21 20:18:00,72.0,70.2,29.77,WSW,252,0.0,1.0,94,0.00,,---,0.11,VWS V14.01,2013-09-22 00:18:00,
2013-09-21 20:19:00,72.0,70.5,29.77,WSW,246,0.0,1.0,95,0.00,,---,0.11,VWS V14.01,2013-09-22 00:19:00,
2013-09-21 20:20:00,72.0,70.2,29.77,WSW,245,0.0,1.0,94,0.00,,---,0.11,VWS V14.01,2013-09-22 00:20:00,
2013-09-21 20:21:00,72.0,70.2,29.77,WSW,245,0.0,0.0,94,0.00,,---,0.11,VWS V14.01,2013-09-22 00:21:00,
2013-09-21 20:22:00,72.0,70.5,29.77,WSW,245,0.0,1.0,95,0.00,,---,0.11,VWS V14.01,2013-09-22 00:22:00,
2013-09-21 20:23:00,72.0,70.5,29.77,WSW,245,0.0,0.0,95,0.00,,---,0.11,VWS V14.01,2013-09-22 00:23:00,
2013-09-21 20:24:00,72.0,70.5,29.77,West,262,0.0,0.0,95,0.00,,---,0.11,VWS V14.01,2013-09-22 00:24:00,
2013-09-21 20:25:00,72.0,70.5,29.77,West,263,0.0,0.0,95,0.00,,---,0.11,VWS V14.01,2013-09-22 00:25:00,
2013-09-21 20:26:00,72.0,70.5,29.77,West,263,0.0,0.0,95,0.00,,---,0.11,VWS V14.01,2013-09-22 00:26:00,
2013-09-21 20:27:00,72.0,70.5,29.77,West,260,0.0,0.0,95,0.00,,---,0.11,VWS V14.01,2013-09-22 00:27:00,
2013-09-21 20:28:00,72.0,70.5,29.77,West,260,0.0,0.0,95,0.00,,---,0.11,VWS V14.01,2013-09-22 00:28:00,
2013-09-21 20:29:00,72.0,70.5,29.78,West,261,0.0,0.0,95,0.00,,---,0.11,VWS V14.01,2013-09-22 00:29:00,
2013-09-21 20:30:00,72.0,70.5,29.78,West,260,0.0,0.0,95,0.00,,---,0.11,VWS V14.01,2013-09-22 00:30:00,
2013-09-21 20:31:00,72.0,70.5,29.77,West,260,0.0,0.0,95,0.00,,---,0.11,VWS V14.01,2013-09-22 00:31:00,
2013-09-21 20:32:00,72.0,70.5,29.77,West,260,0.0,0.0,95,0.00,,---,0.11,VWS V14.01,2013-09-22 00:32:00,
2013-09-21 20:33:00,72.0,70.5,29.77,WNW,298,0.0,0.0,95,0.00,,---,0.11,VWS V14.01,2013-09-22 00:33:00,
2013-09-21 20:34:00,72.0,70.5,29.77,WNW,298,0.0,0.0,95,0.00,,---,0.11,VWS V14.01,2013-09-22 00:34:00,
2013-09-21 20:35:00,72.0,70.5,29.77,WNW,298,0.0,0.0,95,0.00,,---,0.11,VWS V14.01,2013-09-22 00:35:00,
2013-09-21 20:36:00,72.0,70.5,29.78,WNW,297,0.0,0.0,95,0.00,,---,0.11,VWS V14.01,2013-09-22 00:36:00,
2013-09-21 20:37:00,72.0,70.5,29.77,WNW,298,0.0,0.0,95,0.00,,---,0.11,VWS V14.01,2013-09-22 00:37:00,
2013-09-21 20:38:00,72.0,70.5,29.77,SE,142,1.0,1.0,95,0.00,,---,0.11,VWS V14.01,2013-09-22 00:38:00,
2013-09-21 20:39:00,72.0,70.5,29.77,SW,223,0.0,0.0,95,0.00,,---,0.11,VWS V14.01,2013-09-22 00:39:00,
2013-09-21 20:40:00,72.0,70.5,29.77,SW,223,0.0,0.0,95,0.00,,---,0.11,VWS V14.01,2013-09-22 00:40:00,
2013-09-21 20:41:00,72.0,70.5,29.77,SSE,163,0.0,3.0,95,0.00,,---,0.11,VWS V14.01,2013-09-22 00:41:00,
2013-09-21 20:42:00,71.9,70.4,29.78,NNE,16,1.0,1.0,95,0.00,,---,0.11,VWS V14.01,2013-09-22 00:42:00,
2013-09-21 20:43:00,71.9,70.4,29.77,WSW,242,1.0,2.0,95,0.00,,---,0.11,VWS V14.01,2013-09-22 00:43:00,
2013-09-21 20:44:00,71.9,70.4,29.78,WSW,242,0.0,0.0,95,0.00,,---,0.11,VWS V14.01,2013-09-22 00:44:00,
2013-09-21 20:45:00,71.9,70.4,29.78,WSW,242,0.0,0.0,95,0.00,,---,0.11,VWS V14.01,2013-09-22 00:45:00,
2013-09-21 20:46:00,71.9,70.4,29.78,WSW,245,0.0,3.0,95,0.00,,---,0.11,VWS V14.01,2013-09-22 00:46:00,
2013-09-21 20:47:00,71.9,70.4,29.78,SW,225,1.0,1.0,95,0.00,,---,0.11,VWS V14.01,2013-09-22 00:47:00,
2013-09-21 20:48:00,71.9,70.4,29.78,SW,225,1.0,1.0,95,0.00,,---,0.11,VWS V14.01,2013-09-22 00:48:00,
2013-09-21 20:49:00,71.9,70.4,29.78,NNW,335,0.0,1.0,95,0.00,,---,0.11,VWS V14.01,2013-09-22 00:49:00,
2013-09-21 20:50:00,71.9,70.4,29.78,NNW,335,1.0,1.0,95,0.00,,---,0.11,VWS V14.01,2013-09-22 00:50:00,
2013-09-21 20:51:00,71.9,70.4,29.78,WSW,244,1.0,1.0,95,0.00,,---,0.11,VWS V14.01,2013-09-22 00:51:00,
2013-09-21 20:52:00,71.9,70.4,29.78,SE,128,0.0,1.0,95,0.00,,---,0.11,VWS V14.01,2013-09-22 00:52:00,
2013-09-21 20:53:00,71.9,70.4,29.78,SSW,209,1.0,2.0,95,0.00,,---,0.11,VWS V14.01,2013-09-22 00:53:00,
2013-09-21 20:54:00,71.9,70.4,29.78,SSW,207,2.0,2.0,95,0.00,,---,0.11,VWS V14.01,2013-09-22 00:54:00,
2013-09-21 20:55:00,71.9,70.4,29.78,SW,225,1.0,2.0,95,0.00,,---,0.11,VWS V14.01,2013-09-22 00:55:00,
2013-09-21 20:56:00,71.9,70.4,29.78,SW,225,0.0,1.0,95,0.00,,---,0.11,VWS V14.01,2013-09-22 00:56:00,
2013-09-21 20:57:00,71.9,70.4,29.78,SW,225,0.0,0.0,95,0.00,,---,0.11,VWS V14.01,2013-09-22 00:57:00,
2013-09-21 20:58:00,71.9,70.4,29.78,SW,225,0.0,0.0,95,0.00,,---,0.11,VWS V14.01,2013-09-22 00:58:00,
2013-09-21 20:59:00,71.9,70.4,29.78,SW,225,0.0,0.0,95,0.00,,---,0.11,VWS V14.01,2013-09-22 00:59:00,
2013-09-21 21:00:00,71.9,70.4,29.78,SW,225,0.0,0.0,95,0.00,,---,0.11,VWS V14.01,2013-09-22 01:00:00,
2013-09-21 21:01:00,71.8,70.3,29.78,WSW,249,3.0,3.0,95,0.00,,---,0.11,VWS V14.01,2013-09-22 01:01:00,
2013-09-21 21:02:00,71.8,70.3,29.78,SSW,209,0.0,3.0,95,0.00,,---,0.11,VWS V14.01,2013-09-22 01:02:00,
2013-09-21 21:03:00,71.8,70.3,29.78,SSW,209,0.0,1.0,95,0.00,,---,0.11,VWS V14.01,2013-09-22 01:03:00,
2013-09-21 21:04:00,71.8,70.3,29.78,West,265,0.0,1.0,95,0.00,,---,0.11,VWS V14.01,2013-09-22 01:04:00,
2013-09-21 21:05:00,71.8,70.3,29.78,West,265,0.0,1.0,95,0.00,,---,0.11,VWS V14.01,2013-09-22 01:05:00,
2013-09-21 21:06:00,71.8,70.3,29.78,West,277,1.0,2.0,95,0.00,,---,0.11,VWS V14.01,2013-09-22 01:06:00,
2013-09-21 21:07:00,71.8,70.3,29.78,WSW,242,1.0,2.0,95,0.00,,---,0.11,VWS V14.01,2013-09-22 01:07:00,
2013-09-21 21:08:00,71.8,70.3,29.78,WSW,240,1.0,1.0,95,0.00,,---,0.11,VWS V14.01,2013-09-22 01:08:00,
2013-09-21 21:09:00,71.8,70.3,29.78,SW,224,2.0,3.0,95,0.00,,---,0.11,VWS V14.01,2013-09-22 01:09:00,
2013-09-21 21:10:00,71.8,70.3,29.78,SW,226,1.0,3.0,95,0.00,,---,0.11,VWS V14.01,2013-09-22 01:10:00,
2013-09-21 21:11:00,71.7,70.2,29.78,WSW,253,1.0,1.0,95,0.00,,---,0.11,VWS V14.01,2013-09-22 01:11:00,
2013-09-21 21:12:00,71.7,70.2,29.78,West,259,1.0,1.0,95,0.00,,---,0.11,VWS V14.01,2013-09-22 01:12:00,
2013-09-21 21:13:00,71.7,70.2,29.78,South,184,2.0,2.0,95,0.00,,---,0.11,VWS V14.01,2013-09-22 01:13:00,
2013-09-21 21:14:00,71.7,70.2,29.78,SW,217,1.0,2.0,95,0.00,,---,0.11,VWS V14.01,2013-09-22 01:14:00,
2013-09-21 21:15:00,71.7,70.2,29.78,SW,217,0.0,2.0,95,0.00,,---,0.11,VWS V14.01,2013-09-22 01:15:00,
2013-09-21 21:16:00,71.7,70.2,29.78,SSW,198,1.0,1.0,95,0.01,,---,0.12,VWS V14.01,2013-09-22 01:16:00,
2013-09-21 21:17:00,71.7,70.2,29.78,SW,217,0.0,3.0,95,0.01,,---,0.12,VWS V14.01,2013-09-22 01:17:00,
2013-09-21 21:18:00,71.7,70.2,29.78,SW,217,0.0,1.0,95,0.01,,---,0.12,VWS V14.01,2013-09-22 01:18:00,
2013-09-21 21:19:00,71.6,70.1,29.78,SW,217,0.0,1.0,95,0.01,,---,0.12,VWS V14.01,2013-09-22 01:19:00,
2013-09-21 21:20:00,71.6,70.1,29.78,SW,217,0.0,1.0,95,0.01,,---,0.12,VWS V14.01,2013-09-22 01:20:00,
2013-09-21 21:21:00,71.6,70.1,29.78,SW,217,1.0,1.0,95,0.01,,---,0.12,VWS V14.01,2013-09-22 01:21:00,
2013-09-21 21:22:00,71.6,70.1,29.78,SSW,192,0.0,1.0,95,0.02,,---,0.13,VWS V14.01,2013-09-22 01:22:00,
2013-09-21 21:23:00,71.6,70.1,29.78,South,186,0.0,0.0,95,0.02,,---,0.13,VWS V14.01,2013-09-22 01:23:00,
2013-09-21 21:24:00,71.6,70.1,29.78,South,179,1.0,1.0,95,0.02,,---,0.13,VWS V14.01,2013-09-22 01:24:00,
2013-09-21 21:25:00,71.6,70.1,29.78,SE,128,1.0,1.0,95,0.02,,---,0.13,VWS V14.01,2013-09-22 01:25:00,
2013-09-21 21:26:00,71.6,70.1,29.78,SE,141,0.0,1.0,95,0.02,,---,0.13,VWS V14.01,2013-09-22 01:26:00,
2013-09-21 21:27:00,71.6,70.1,29.78,SE,141,0.0,1.0,95,0.02,,---,0.13,VWS V14.01,2013-09-22 01:27:00,
2013-09-21 21:28:00,71.6,70.1,29.78,SE,135,1.0,1.0,95,0.02,,---,0.13,VWS V14.01,2013-09-22 01:28:00,
2013-09-21 21:29:00,71.6,70.1,29.78,SSE,149,1.0,1.0,95,0.02,,---,0.13,VWS V14.01,2013-09-22 01:29:00,
2013-09-21 21:30:00,71.6,70.1,29.78,SSE,148,0.0,1.0,95,0.02,,---,0.13,VWS V14.01,2013-09-22 01:30:00,
2013-09-21 21:31:00,71.6,70.1,29.78,SSE,149,1.0,1.0,95,0.02,,---,0.13,VWS V14.01,2013-09-22 01:31:00,
2013-09-21 21:32:00,71.6,70.1,29.78,SSE,152,1.0,2.0,95,0.02,,---,0.13,VWS V14.01,2013-09-22 01:32:00,
2013-09-21 21:33:00,71.5,70.0,29.78,SSE,163,2.0,2.0,95,0.02,,---,0.13,VWS V14.01,2013-09-22 01:33:00,
2013-09-21 21:34:00,71.5,70.0,29.77,SSE,156,1.0,1.0,95,0.02,,---,0.13,VWS V14.01,2013-09-22 01:34:00,
2013-09-21 21:35:00,71.5,70.0,29.77,SE,136,1.0,2.0,95,0.02,,---,0.13,VWS V14.01,2013-09-22 01:35:00,
2013-09-21 21:36:00,71.5,70.0,29.77,SE,140,1.0,1.0,95,0.02,,---,0.13,VWS V14.01,2013-09-22 01:36:00,
2013-09-21 21:37:00,71.5,70.0,29.78,SE,138,1.0,1.0,95,0.02,,---,0.13,VWS V14.01,2013-09-22 01:37:00,
2013-09-21 21:38:00,71.5,70.0,29.78,ESE,108,2.0,2.0,95,0.02,,---,0.13,VWS V14.01,2013-09-22 01:38:00,
2013-09-21 21:39:00,71.5,70.0,29.78,SW,227,0.0,2.0,95,0.02,,---,0.13,VWS V14.01,2013-09-22 01:39:00,
2013-09-21 21:40:00,71.5,70.0,29.78,SW,227,0.0,2.0,95,0.02,,---,0.13,VWS V14.01,2013-09-22 01:40:00,
2013-09-21 21:41:00,71.5,70.0,29.78,SW,227,0.0,0.0,95,0.02,,---,0.13,VWS V14.01,2013-09-22 01:41:00,
2013-09-21 21:42:00,71.5,70.0,29.78,SW,227,0.0,0.0,95,0.02,,---,0.13,VWS V14.01,2013-09-22 01:42:00,
2013-09-21 21:43:00,71.5,70.0,29.78,SW,227,0.0,0.0,95,0.03,,---,0.14,VWS V14.01,2013-09-22 01:43:00,
2013-09-21 21:44:00,71.5,70.0,29.78,SSW,203,0.0,0.0,95,0.03,,---,0.14,VWS V14.01,2013-09-22 01:44:00,
2013-09-21 21:45:00,71.5,70.0,29.78,SSW,199,0.0,0.0,95,0.03,,---,0.14,VWS V14.01,2013-09-22 01:45:00,
2013-09-21 21:46:00,71.5,70.0,29.78,SSE,162,1.0,2.0,95,0.03,,---,0.14,VWS V14.01,2013-09-22 01:46:00,
2013-09-21 21:47:00,71.5,70.0,29.78,SSE,161,1.0,1.0,95,0.03,,---,0.14,VWS V14.01,2013-09-22 01:47:00,
2013-09-21 21:48:00,71.5,70.0,29.77,SSE,161,0.0,1.0,95,0.03,,---,0.14,VWS V14.01,2013-09-22 01:48:00,
2013-09-21 21:49:00,71.4,69.9,29.77,East,100,2.0,3.0,95,0.03,,---,0.14,VWS V14.01,2013-09-22 01:49:00,
2013-09-21 21:50:00,71.4,69.9,29.77,ESE,122,1.0,3.0,95,0.03,,---,0.14,VWS V14.01,2013-09-22 01:50:00,
2013-09-21 21:51:00,71.4,69.9,29.77,SE,139,1.0,1.0,95,0.03,,---,0.14,VWS V14.01,2013-09-22 01:51:00,
2013-09-21 21:52:00,71.4,69.9,29.77,SE,139,1.0,1.0,95,0.03,,---,0.14,VWS V14.01,2013-09-22 01:52:00,
2013-09-21 21:53:00,71.4,69.9,29.77,SE,128,1.0,2.0,95,0.03,,---,0.14,VWS V14.01,2013-09-22 01:53:00,
2013-09-21 21:54:00,71.4,69.9,29.77,SE,128,0.0,0.0,95,0.03,,---,0.14,VWS V14.01,2013-09-22 01:54:00,
2013-09-21 21:55:00,71.4,69.9,29.77,SE,128,0.0,0.0,95,0.03,,---,0.14,VWS V14.01,2013-09-22 01:55:00,
2013-09-21 21:56:00,71.4,69.9,29.77,SE,128,0.0,0.0,95,0.03,,---,0.14,VWS V14.01,2013-09-22 01:56:00,
2013-09-21 21:57:00,71.4,69.9,29.77,SE,138,0.0,0.0,95,0.03,,---,0.14,VWS V14.01,2013-09-22 01:57:00,
2013-09-21 21:58:00,71.4,69.9,29.77,SE,139,0.0,0.0,95,0.03,,---,0.14,VWS V14.01,2013-09-22 01:58:00,
2013-09-21 21:59:00,71.3,69.8,29.77,SSE,155,0.0,0.0,95,0.04,,---,0.15,VWS V14.01,2013-09-22 01:59:00,
2013-09-21 22:00:00,71.3,69.8,29.77,SSE,155,0.0,0.0,95,0.04,,---,0.15,VWS V14.01,2013-09-22 02:00:00,
2013-09-21 22:01:00,71.3,69.8,29.77,SSE,149,0.0,0.0,95,0.04,,---,0.15,VWS V14.01,2013-09-22 02:01:00,
2013-09-21 22:02:00,71.3,69.8,29.77,SE,146,0.0,0.0,95,0.04,,---,0.15,VWS V14.01,2013-09-22 02:02:00,
2013-09-21 22:03:00,71.3,69.8,29.77,SSE,155,0.0,0.0,95,0.04,,---,0.15,VWS V14.01,2013-09-22 02:03:00,
2013-09-21 22:04:00,71.3,69.8,29.77,SE,145,2.0,2.0,95,0.04,,---,0.15,VWS V14.01,2013-09-22 02:04:00,
2013-09-21 22:05:00,71.3,69.8,29.77,SE,129,1.0,2.0,95,0.04,,---,0.15,VWS V14.01,2013-09-22 02:05:00,
2013-09-21 22:06:00,71.3,69.8,29.77,SE,138,1.0,1.0,95,0.04,,---,0.15,VWS V14.01,2013-09-22 02:06:00,
2013-09-21 22:07:00,71.3,69.8,29.77,South,171,3.0,3.0,95,0.04,,---,0.15,VWS V14.01,2013-09-22 02:07:00,
2013-09-21 22:08:00,71.2,69.7,29.77,SE,146,1.0,3.0,95,0.04,,---,0.15,VWS V14.01,2013-09-22 02:08:00,
2013-09-21 22:09:00,71.2,69.7,29.77,South,173,1.0,3.0,95,0.04,,---,0.15,VWS V14.01,2013-09-22 02:09:00,
2013-09-21 22:10:00,71.2,69.7,29.77,South,172,0.0,3.0,95,0.04,,---,0.15,VWS V14.01,2013-09-22 02:10:00,
2013-09-21 22:11:00,71.2,69.7,29.77,South,173,0.0,0.0,95,0.04,,---,0.15,VWS V14.01,2013-09-22 02:11:00,
2013-09-21 22:12:00,71.2,69.7,29.77,South,172,0.0,0.0,95,0.04,,---,0.15,VWS V14.01,2013-09-22 02:12:00,
2013-09-21 22:14:00,71.2,69.7,29.77,South,173,1.0,1.0,95,0.04,,---,0.15,VWS V14.01,2013-09-22 02:14:00,
2013-09-21 22:15:00,71.2,69.7,29.77,SE,141,1.0,1.0,95,0.04,,---,0.15,VWS V14.01,2013-09-22 02:15:00,
2013-09-21 22:16:00,71.2,69.7,29.77,SE,141,0.0,1.0,95,0.04,,---,0.15,VWS V14.01,2013-09-22 02:16:00,
2013-09-21 22:17:00,71.2,69.7,29.77,SE,141,0.0,0.0,95,0.04,,---,0.16,VWS V14.01,2013-09-22 02:17:00,
2013-09-21 22:18:00,71.2,69.7,29.77,SE,141,0.0,0.0,95,0.04,,---,0.16,VWS V14.01,2013-09-22 02:18:00,
2013-09-21 22:19:00,71.2,70.0,29.77,SE,142,0.0,0.0,96,0.04,,---,0.16,VWS V14.01,2013-09-22 02:19:00,
2013-09-21 22:20:00,71.2,70.0,29.77,SE,141,0.0,0.0,96,0.04,,---,0.16,VWS V14.01,2013-09-22 02:20:00,
2013-09-21 22:21:00,71.1,69.6,29.77,SE,141,0.0,0.0,95,0.05,,---,0.17,VWS V14.01,2013-09-22 02:21:00,
2013-09-21 22:22:00,71.2,70.0,29.77,SSE,168,0.0,0.0,96,0.05,,---,0.17,VWS V14.01,2013-09-22 02:22:00,
2013-09-21 22:23:00,71.2,70.0,29.77,WSW,245,1.0,1.0,96,0.05,,---,0.18,VWS V14.01,2013-09-22 02:23:00,
2013-09-21 22:24:00,71.2,70.0,29.77,WSW,257,2.0,2.0,96,0.05,,---,0.18,VWS V14.01,2013-09-22 02:24:00,
2013-09-21 22:25:00,71.2,70.0,29.77,West,260,2.0,2.0,96,0.05,,---,0.18,VWS V14.01,2013-09-22 02:25:00,
2013-09-21 22:26:00,71.2,70.0,29.77,WSW,246,1.0,2.0,96,0.06,,---,0.19,VWS V14.01,2013-09-22 02:26:00,
2013-09-21 22:27:00,71.1,69.9,29.77,WSW,245,1.0,1.0,96,0.07,,---,0.20,VWS V14.01,2013-09-22 02:27:00,
2013-09-21 22:28:00,71.1,69.9,29.77,WSW,245,0.0,1.0,96,0.07,,---,0.20,VWS V14.01,2013-09-22 02:28:00,
2013-09-21 22:29:00,71.1,69.9,29.77,SSW,194,2.0,2.0,96,0.11,,---,0.24,VWS V14.01,2013-09-22 02:29:00,
2013-09-21 22:30:00,71.1,69.9,29.77,SSW,208,2.0,2.0,96,0.11,,---,0.24,VWS V14.01,2013-09-22 02:30:00,
2013-09-21 22:31:00,71.1,69.9,29.77,SSW,207,1.0,2.0,96,0.12,,---,0.25,VWS V14.01,2013-09-22 02:31:00,
2013-09-21 22:32:00,71.1,69.9,29.77,SW,214,4.0,4.0,96,0.12,,---,0.25,VWS V14.01,2013-09-22 02:32:00,
2013-09-21 22:33:00,71.1,69.9,29.77,WSW,240,2.0,4.0,96,0.13,,---,0.26,VWS V14.01,2013-09-22 02:33:00,
2013-09-21 22:34:00,71.1,69.9,29.77,SW,227,0.0,1.0,96,0.14,,---,0.27,VWS V14.01,2013-09-22 02:34:00,
2013-09-21 22:35:00,71.1,69.9,29.77,SW,227,0.0,1.0,96,0.14,,---,0.27,VWS V14.01,2013-09-22 02:35:00,
2013-09-21 22:36:00,71.1,69.9,29.77,SSW,199,1.0,1.0,96,0.15,,---,0.28,VWS V14.01,2013-09-22 02:36:00,
2013-09-21 22:37:00,71.1,69.9,29.77,WSW,249,0.0,2.0,96,0.16,,---,0.29,VWS V14.01,2013-09-22 02:37:00,
2013-09-21 22:38:00,71.1,69.9,29.77,WSW,249,0.0,0.0,96,0.17,,---,0.30,VWS V14.01,2013-09-22 02:38:00,
2013-09-21 22:39:00,71.0,69.8,29.77,WSW,246,1.0,1.0,96,0.17,,---,0.30,VWS V14.01,2013-09-22 02:39:00,
2013-09-21 22:40:00,71.1,69.9,29.77,WSW,246,1.0,1.0,96,0.17,,---,0.30,VWS V14.01,2013-09-22 02:40:00,
2013-09-21 22:41:00,71.0,69.8,29.77,WSW,246,0.0,1.0,96,0.18,,---,0.31,VWS V14.01,2013-09-22 02:41:00,
2013-09-21 22:42:00,71.0,69.8,29.77,WSW,246,0.0,0.0,96,0.18,,---,0.31,VWS V14.01,2013-09-22 02:42:00,
2013-09-21 22:43:00,71.0,69.8,29.77,SW,226,1.0,1.0,96,0.18,,---,0.31,VWS V14.01,2013-09-22 02:43:00,
2013-09-21 22:44:00,71.0,69.8,29.77,ESE,115,1.0,2.0,96,0.17,,---,0.31,VWS V14.01,2013-09-22 02:44:00,
2013-09-21 22:45:00,71.0,69.8,29.77,ESE,115,1.0,2.0,96,0.17,,---,0.31,VWS V14.01,2013-09-22 02:45:00,
2013-09-21 22:46:00,71.0,69.8,29.77,SE,124,1.0,1.0,96,0.17,,---,0.31,VWS V14.01,2013-09-22 02:46:00,
2013-09-21 22:47:00,71.0,69.8,29.77,SE,124,1.0,1.0,96,0.17,,---,0.31,VWS V14.01,2013-09-22 02:47:00,
2013-09-21 22:48:00,71.0,69.8,29.77,ESE,123,0.0,1.0,96,0.17,,---,0.31,VWS V14.01,2013-09-22 02:48:00,
2013-09-21 22:49:00,71.0,69.8,29.77,South,186,0.0,0.0,96,0.18,,---,0.32,VWS V14.01,2013-09-22 02:49:00,
2013-09-21 22:50:00,71.0,69.8,29.77,South,186,0.0,0.0,96,0.18,,---,0.32,VWS V14.01,2013-09-22 02:50:00,
2013-09-21 22:51:00,71.0,69.8,29.77,South,186,0.0,0.0,96,0.18,,---,0.32,VWS V14.01,2013-09-22 02:51:00,
2013-09-21 22:52:00,71.0,69.8,29.77,SSE,167,1.0,2.0,96,0.18,,---,0.32,VWS V14.01,2013-09-22 02:52:00,
2013-09-21 22:53:00,71.0,69.8,29.77,SE,134,1.0,2.0,96,0.18,,---,0.32,VWS V14.01,2013-09-22 02:53:00,
2013-09-21 22:54:00,71.0,69.8,29.77,SSE,167,2.0,2.0,96,0.18,,---,0.32,VWS V14.01,2013-09-22 02:54:00,
2013-09-21 22:55:00,71.0,69.8,29.77,SSE,167,1.0,2.0,96,0.18,,---,0.32,VWS V14.01,2013-09-22 02:55:00,
2013-09-21 22:56:00,71.0,69.8,29.77,SSE,167,0.0,1.0,96,0.18,,---,0.32,VWS V14.01,2013-09-22 02:56:00,
2013-09-21 22:57:00,70.9,69.7,29.77,SSE,167,0.0,0.0,96,0.18,,---,0.32,VWS V14.01,2013-09-22 02:57:00,
2013-09-21 22:58:00,70.9,69.7,29.77,SSE,167,0.0,1.0,96,0.18,,---,0.32,VWS V14.01,2013-09-22 02:58:00,
2013-09-21 22:59:00,70.9,69.7,29.77,SSE,167,0.0,0.0,96,0.18,,---,0.32,VWS V14.01,2013-09-22 02:59:00,
2013-09-21 23:00:00,70.9,69.7,29.77,SSE,167,0.0,0.0,96,0.18,,---,0.32,VWS V14.01,2013-09-22 03:00:00,
2013-09-21 23:01:00,70.9,69.7,29.77,SE,128,0.0,1.0,96,0.17,,---,0.32,VWS V14.01,2013-09-22 03:01:00,
2013-09-21 23:02:00,70.9,69.7,29.77,SE,146,0.0,2.0,96,0.17,,---,0.32,VWS V14.01,2013-09-22 03:02:00,
2013-09-21 23:03:00,70.9,69.7,29.76,SE,146,1.0,1.0,96,0.18,,---,0.33,VWS V14.01,2013-09-22 03:03:00,
2013-09-21 23:04:00,70.9,69.7,29.76,SE,146,0.0,0.0,96,0.18,,---,0.33,VWS V14.01,2013-09-22 03:04:00,
2013-09-21 23:06:00,70.9,69.7,29.76,ESE,119,1.0,1.0,96,0.18,,---,0.33,VWS V14.01,2013-09-22 03:06:00,
2013-09-21 23:07:00,70.9,69.7,29.76,South,175,1.0,3.0,96,0.18,,---,0.33,VWS V14.01,2013-09-22 03:07:00,
2013-09-21 23:08:00,70.9,69.7,29.76,SSW,200,1.0,2.0,96,0.18,,---,0.33,VWS V14.01,2013-09-22 03:08:00,
2013-09-21 23:09:00,70.9,69.7,29.77,South,182,0.0,1.0,96,0.18,,---,0.33,VWS V14.01,2013-09-22 03:09:00,
2013-09-21 23:10:00,70.9,69.7,29.77,South,182,0.0,1.0,96,0.18,,---,0.33,VWS V14.01,2013-09-22 03:10:00,
2013-09-21 23:11:00,70.9,69.7,29.77,South,182,0.0,1.0,96,0.19,,---,0.34,VWS V14.01,2013-09-22 03:11:00,
2013-09-21 23:12:00,70.9,69.7,29.77,SW,221,1.0,1.0,96,0.21,,---,0.36,VWS V14.01,2013-09-22 03:12:00,
2013-09-21 23:13:00,70.9,69.7,29.77,SW,227,1.0,1.0,96,0.23,,---,0.38,VWS V14.01,2013-09-22 03:13:00,
2013-09-21 23:14:00,70.9,69.7,29.76,SSW,207,0.0,1.0,96,0.24,,---,0.39,VWS V14.01,2013-09-22 03:14:00,
2013-09-21 23:15:00,70.9,69.7,29.76,SW,231,1.0,1.0,96,0.25,,---,0.40,VWS V14.01,2013-09-22 03:15:00,
2013-09-21 23:16:00,70.9,69.7,29.77,WSW,248,3.0,4.0,96,0.25,,---,0.40,VWS V14.01,2013-09-22 03:16:00,
2013-09-21 23:17:00,70.9,69.7,29.77,WSW,245,2.0,3.0,96,0.25,,---,0.40,VWS V14.01,2013-09-22 03:17:00,
2013-09-21 23:18:00,70.8,69.6,29.77,WSW,239,0.0,2.0,96,0.24,,---,0.40,VWS V14.01,2013-09-22 03:18:00,
2013-09-21 23:19:00,70.8,69.6,29.77,SE,146,2.0,3.0,96,0.25,,---,0.41,VWS V14.01,2013-09-22 03:19:00,
2013-09-21 23:20:00,70.8,69.6,29.77,ESE,102,1.0,3.0,96,0.25,,---,0.41,VWS V14.01,2013-09-22 03:20:00,
2013-09-21 23:21:00,70.8,69.6,29.77,West,271,0.0,2.0,96,0.26,,---,0.42,VWS V14.01,2013-09-22 03:21:00,
2013-09-21 23:22:00,70.8,69.6,29.77,SW,236,1.0,2.0,96,0.25,,---,0.42,VWS V14.01,2013-09-22 03:22:00,
2013-09-21 23:23:00,70.8,69.6,29.77,WSW,238,1.0,2.0,96,0.25,,---,0.42,VWS V14.01,2013-09-22 03:23:00,
2013-09-21 23:24:00,70.8,69.6,29.77,WSW,238,0.0,1.0,96,0.25,,---,0.43,VWS V14.01,2013-09-22 03:24:00,
2013-09-21 23:25:00,70.8,69.6,29.77,SW,232,0.0,1.0,96,0.25,,---,0.43,VWS V14.01,2013-09-22 03:25:00,
2013-09-21 23:26:00,70.7,69.5,29.77,WSW,252,2.0,5.0,96,0.25,,---,0.43,VWS V14.01,2013-09-22 03:26:00,
2013-09-21 23:27:00,70.7,69.5,29.77,WSW,250,3.0,3.0,96,0.25,,---,0.44,VWS V14.01,2013-09-22 03:27:00,
2013-09-21 23:28:00,70.7,69.5,29.77,WSW,254,1.0,3.0,96,0.24,,---,0.44,VWS V14.01,2013-09-22 03:28:00,
2013-09-21 23:29:00,70.7,69.5,29.77,WSW,254,0.0,0.0,96,0.22,,---,0.44,VWS V14.01,2013-09-22 03:29:00,
2013-09-21 23:30:00,70.7,69.5,29.77,WSW,254,0.0,0.0,96,0.22,,---,0.44,VWS V14.01,2013-09-22 03:30:00,
2013-09-21 23:31:00,70.7,69.5,29.77,WSW,254,0.0,1.0,96,0.20,,---,0.44,VWS V14.01,2013-09-22 03:31:00,
2013-09-21 23:32:00,70.7,69.5,29.77,WSW,254,0.0,1.0,96,0.20,,---,0.45,VWS V14.01,2013-09-22 03:32:00,
2013-09-21 23:33:00,70.7,69.5,29.77,WSW,254,0.0,0.0,96,0.20,,---,0.45,VWS V14.01,2013-09-22 03:33:00,
2013-09-21 23:34:00,70.7,69.5,29.77,WSW,241,0.0,2.0,96,0.19,,---,0.45,VWS V14.01,2013-09-22 03:34:00,
2013-09-21 23:35:00,70.7,69.5,29.77,WSW,241,0.0,2.0,96,0.19,,---,0.45,VWS V14.01,2013-09-22 03:35:00,
2013-09-21 23:36:00,70.7,69.5,29.77,WSW,241,0.0,1.0,96,0.19,,---,0.46,VWS V14.01,2013-09-22 03:36:00,
2013-09-21 23:37:00,70.7,69.5,29.77,South,184,2.0,4.0,96,0.19,,---,0.47,VWS V14.01,2013-09-22 03:37:00,
2013-09-21 23:38:00,70.7,69.5,29.77,South,183,0.0,5.0,96,0.18,,---,0.47,VWS V14.01,2013-09-22 03:38:00,
2013-09-21 23:39:00,70.7,69.5,29.77,SW,222,3.0,3.0,96,0.17,,---,0.47,VWS V14.01,2013-09-22 03:39:00,
2013-09-21 23:40:00,70.7,69.5,29.77,SW,219,2.0,3.0,96,0.17,,---,0.47,VWS V14.01,2013-09-22 03:40:00,
2013-09-21 23:41:00,70.7,69.5,29.77,SSW,202,3.0,3.0,96,0.17,,---,0.47,VWS V14.01,2013-09-22 03:41:00,
2013-09-21 23:42:00,70.7,69.5,29.77,South,184,1.0,3.0,96,0.17,,---,0.48,VWS V14.01,2013-09-22 03:42:00,
2013-09-21 23:43:00,70.7,69.5,29.77,West,261,1.0,1.0,96,0.17,,---,0.48,VWS V14.01,2013-09-22 03:43:00,
2013-09-21 23:44:00,70.7,69.5,29.77,WSW,249,3.0,3.0,96,0.17,,---,0.48,VWS V14.01,2013-09-22 03:44:00,
2013-09-21 23:45:00,70.7,69.5,29.77,SW,223,2.0,3.0,96,0.17,,---,0.48,VWS V14.01,2013-09-22 03:45:00,
2013-09-21 23:46:00,70.7,69.5,29.77,SSW,212,1.0,4.0,96,0.18,,---,0.49,VWS V14.01,2013-09-22 03:46:00,
2013-09-21 23:47:00,70.7,69.5,29.77,SW,227,2.0,4.0,96,0.18,,---,0.49,VWS V14.01,2013-09-22 03:47:00,
2013-09-21 23:48:00,70.6,69.4,29.77,SW,214,4.0,4.0,96,0.18,,---,0.49,VWS V14.01,2013-09-22 03:48:00,
2013-09-21 23:49:00,70.4,69.2,29.77,SSW,207,3.0,5.0,96,0.17,,---,0.49,VWS V14.01,2013-09-22 03:49:00,
2013-09-21 23:50:00,70.4,68.9,29.77,SW,230,3.0,5.0,95,0.18,,---,0.50,VWS V14.01,2013-09-22 03:50:00,
2013-09-21 23:51:00,70.3,68.8,29.77,South,190,2.0,4.0,95,0.18,,---,0.50,VWS V14.01,2013-09-22 03:51:00,
2013-09-21 23:52:00,70.2,68.7,29.77,WSW,252,2.0,3.0,95,0.18,,---,0.50,VWS V14.01,2013-09-22 03:52:00,
2013-09-21 23:53:00,70.2,68.7,29.77,SSW,203,3.0,4.0,95,0.18,,---,0.50,VWS V14.01,2013-09-22 03:53:00,
2013-09-21 23:54:00,70.1,68.6,29.77,SSW,210,1.0,4.0,95,0.18,,---,0.50,VWS V14.01,2013-09-22 03:54:00,
2013-09-21 23:55:00,70.1,68.6,29.77,SSW,206,1.0,4.0,95,0.18,,---,0.50,VWS V14.01,2013-09-22 03:55:00,
2013-09-21 23:56:00,70.0,68.5,29.77,SW,217,0.0,2.0,95,0.19,,---,0.51,VWS V14.01,2013-09-22 03:56:00,
2013-09-21 23:57:00,70.0,68.5,29.77,South,179,3.0,3.0,95,0.19,,---,0.51,VWS V14.01,2013-09-22 03:57:00,
2013-09-21 23:58:00,70.0,68.5,29.77,South,172,2.0,3.0,95,0.20,,---,0.52,VWS V14.01,2013-09-22 03:58:00,
2013-09-21 23:59:00,69.9,68.4,29.77,SSE,152,0.0,1.0,95,0.20,,---,0.52,VWS V14.01,2013-09-22 03:59:00,